     2              OBSERVATION DATA    GPS                 RINEX VERSION / TYPE
teqc 2000Jul20 Karen Wendt 20030616 22:35:02UTC             PGM / RUN BY / DATE
                                                            COMMENT
L2: 1 -> 1; 150 -> 5; 250 -> 9                              COMMENT
L2: 1 -> 1; 150 -> 5; 250 -> 9                              COMMENT
L2: 1 -> 1; 150 -> 5; 250 -> 9                              COMMENT
L2: 1 -> 1; 150 -> 5; 250 -> 9                              COMMENT
L2: 1 -> 1; 150 -> 5; 250 -> 9                              COMMENT
L2: 1 -> 1; 150 -> 5; 250 -> 9                              COMMENT
L2: 1 -> 1; 150 -> 5; 250 -> 9                              COMMENT
L2: 1 -> 1; 150 -> 5; 250 -> 9                              COMMENT
L2: 1 -> 1; 150 -> 5; 250 -> 9                              COMMENT
L2: 1 -> 1; 150 -> 5; 250 -> 9                              COMMENT
L2: 1 -> 1; 150 -> 5; 250 -> 9                              COMMENT
L2: 1 -> 1; 150 -> 5; 250 -> 9                              COMMENT
L2: 1 -> 1; 150 -> 5; 250 -> 9                              COMMENT
L2: 1 -> 1; 150 -> 5; 250 -> 9                              COMMENT
Original Marker Name: 3187 3187_JPL                         COMMENT
Campaign Name: USGS Death Valley 2003                       COMMENT
4-Character Station Name: 3187                              COMMENT
6-Character Antenna Code: DMRCHT                            COMMENT
Vertical Measurement Point: BCR                             COMMENT
Vertical Offset to Rinex Ref. Point: 0.0348                 COMMENT
Radial Measurement Point: ECF                               COMMENT
Radial Offset to Rinex Ref. Point: 0.1897                   COMMENT
Antenna Height from Field Measurement: 1.1640 m             COMMENT
Additional Antenna Identification Info.:                    COMMENT
Turborogue and Ashtech Choke Ring                           COMMENT
Original XYZ: -2436034.8863 -4555526.6261 3731363.1884      COMMENT
New XYZ position is based on association with SCEC monument COMMENT
E1F1W1J5+0011. Position of that monument is believed to be  COMMENT
valid to within 1 m horizontally; vertical accuracy         COMMENT
should be no worse than 3-times this value.                 COMMENT
                                                            COMMENT
Revised Rinex header created by UCSD GPS archive for        COMMENT
GSAC on 20-Apr-2005 (2005:110) 16:31:13 GMT                 COMMENT
For assistance contact dagnew@ucsd.edu                      COMMENT
or anderson@python.ucsd.edu                                 COMMENT
                                                            COMMENT
3187S                                                       MARKER NAME
GDH US GEOLOGICAL SURVEY                                    OBSERVER / AGENCY
ZE120023208 ASHTECH UZ-12 ZE00                              REC # / TYPE / VERS
CR620022602 DORNE-MARGOL. TYPE T                            ANT # / TYPE
 -2436057.0000 -4555503.0000  3731342.0000                  APPROX POSITION XYZ
        1.1136        0.0000        0.0000                  ANTENNA: DELTA H/E/N
     1     1     0                                          WAVELENGTH FACT L1/2
     5    C1    L1    L2    P1    P2                        # / TYPES OF OBSERV
    30                                                      INTERVAL
  2003     6     6     0     0    0.000000                  TIME OF FIRST OBS
  2003     6     6     9    53   30.000000                  TIME OF LAST OBS
                                                            END OF HEADER
 03  6  6  0  0  0.0000000  0  6G14G25G11G20G23G 1
  23120680.638   -12907174.41643 -10009892.26542  23120682.708    23120677.652
  20627062.175   -25194526.57044 -19621941.97842  20627064.313    20627059.006
  21434769.615   -19915608.92943 -15508091.34342  21434771.780    21434766.105
  22814922.564   -13546132.33943 -10545484.60142  22814924.378    22814919.844
  24467711.088    -2054385.42443  -1595205.13442  24467712.511    24467711.662
  23958697.856    -2160124.77343  -1673880.19642  23958700.050    23958698.425
 03  6  6  0  0 30.0000000  0  6G14G25G11G20G23G 1
  23135090.075   -12831452.46643  -9950888.18542  23135092.175    23135087.017
  20629350.296   -25182502.43344 -19612572.51942  20629352.428    20629347.116
  21438171.442   -19897732.21443 -15494161.45942  21438173.642    21438167.982
  22798593.384   -13631942.54943 -10612349.65942  22798595.191    22798590.614
  24482392.116    -1977236.65343  -1535089.37542  24482393.693    24482392.772
  23944944.732    -2232397.45043  -1730196.44342  23944946.967    23944945.306
 03  6  6  0  1  0.0000000  0  6G14G25G11G20G23G 1
  23149506.763   -12755692.87243  -9891854.79242  23149508.867    23149503.647
  20631735.988   -25169965.52544 -19602803.49942  20631738.123    20631732.801
  21441676.601   -19879312.49043 -15479808.45242  21441678.837    21441673.195
  22782282.628   -13717656.03743 -10679139.34642  22782284.453    22782279.836
  24497109.240    -1899897.53343  -1474825.21342  24497110.693    24497109.976
  23931218.934    -2304525.88943  -1786400.25542  23931221.251    23931219.685
 03  6  6  0  1 30.0000000  0  6G14G25G11G20G23G 1
  23163929.442   -12679901.32643  -9832796.50542  23163931.564    23163926.347
  20634218.121   -25156921.93144 -19592639.65242  20634220.236    20634214.904
  21445284.031   -19860355.29243 -15465036.63942  21445286.259    21445280.653
  22765989.611   -13803276.04843 -10745856.19542  22765991.447    22765986.867
  24511861.867    -1822373.46043  -1414417.00442  24511863.276    24511862.514
  23917519.616    -2376514.83243  -1842495.44042  23917521.996    23917520.400
 03  6  6  0  2  0.0000000  0  6G14G25G11G20G23G 1
  23178358.328   -12604077.40143  -9773712.98942  23178360.358    23178355.273
  20636796.862   -25143370.59944 -19582080.16842  20636798.999    20636793.644
  21448993.746   -19840860.53843 -15449845.94642  21448995.967    21448990.400
  22749715.129   -13888799.53243 -10812497.83542  22749716.853    22749712.287
  24526649.674    -1744663.24143  -1353863.73942  24526650.963    24526650.306
  23903847.319    -2448363.01043  -1898480.90442  23903849.632    23903848.205
 03  6  6  0  2 30.0000000  0  6G14G25G11G20G23G 1
  23192793.622   -12528219.42643  -9714602.91642  23192795.679    23192790.535
  20639472.378   -25129310.66544 -19571124.37142  20639474.514    20639469.124
  21452806.090   -19820826.67743 -15434235.17542  21452808.291    21452802.728
  22733459.620   -13974222.81943 -10879061.39542  22733461.312    22733456.702
  24541473.213    -1666765.35343  -1293164.30542  24541474.447    24541473.547
  23890202.288    -2520068.36643  -1954355.07042  23890204.494    23890203.140
 03  6  6  0  3  0.0000000  0  6G14G25G11G20G23G 1
  23207235.528   -12452326.75043  -9655465.82042  23207237.599    23207232.543
  20642244.668   -25114742.26544 -19559772.36842  20642246.790    20642241.360
  21456721.075   -19800253.53943 -15418204.18542  21456723.233    21456717.691
  22717223.728   -14059542.84943 -10945544.50142  22717225.463    22717220.799
  24556332.696    -1588679.31743  -1232318.13442  24556334.188    24556332.735
  23876584.400    -2591629.99043  -2010117.28242  23876586.565    23876585.057
 03  6  6  0  3 30.0000000  0  6G14G25G11G20G23G 1
  23221682.446   -12376407.98443  -9596308.40842  23221684.529    23221679.435
  20645112.047   -25099674.22644 -19548031.03442  20645114.163    20645108.699
  21460737.022   -19779150.03244 -15401759.92242  21460739.162    21460733.539
  22701006.331   -14144765.67843 -11011951.84942  22701008.062    22701003.373
  24571226.561    -1510412.94843  -1171331.54442  24571228.008    24571226.624
  23862992.614    -2663055.47443  -2065773.39642  23862994.761    23862993.174
 03  6  6  0  4  0.0000000  0  6G14G25G11G20G23G 1
  23236135.476   -12300456.78743  -9537125.72542  23236137.503    23236132.583
  20648075.588   -25084100.55944 -19535895.70342  20648077.720    20648072.260
  21464854.950   -19757510.24743 -15384897.77642  21464857.151    21464851.438
  22684809.124   -14229882.88743 -11078276.92642  22684810.851    22684806.018
  24586155.840    -1431959.67043  -1110199.20742  24586157.258    24586155.842
  23849427.858    -2734337.84543  -2121317.98842  23849430.079    23849428.413
 03  6  6  0  4 30.0000000  0  6G14G25G11G20G23G 1
  23250594.465   -12224473.63443  -9477918.09342  23250596.544    23250591.689
  20651135.216   -25068021.95444 -19523366.92142  20651137.353    20651131.883
  21469074.767   -19735335.09743 -15367618.46842  21469076.984    21469071.217
  22668632.272   -14314892.35243 -11144518.03042  22668634.069    22668629.219
  24601120.655    -1353319.87043  -1048921.68042  24601122.040    24601120.761
  23835890.494    -2805476.93243  -2176750.93542  23835892.722    23835890.933
 03  6  6  0  5  0.0000000  0  5G14G25G11G20G 1
  23265062.061   -12148445.87043  -9418675.72942  23265064.112    23265059.372
  20654293.221   -25051426.39344 -19510435.30842  20654295.370    20654289.924
  21473398.814   -19712612.39543 -15349912.48742  21473400.983    21473395.230
  22652478.865   -14399779.08043 -11210663.49842  22652480.637    22652475.781
  23822383.034    -2876459.63743  -2232062.02942  23822385.155    23822383.121
 03  6  6  0  5 30.0000000  0  5G14G25G11G20G 1
  23279532.036   -12072405.65043  -9359423.66642  23279534.094    23279529.438
  20657543.439   -25034346.35644 -19497126.18942  20657545.560    20657540.154
  21477820.737   -19689374.85643 -15331805.33942  21477822.943    21477817.234
  22636343.099   -14484572.89943 -11276736.57642  22636344.870    22636339.992
  23808899.174    -2947317.49143  -2287275.84642  23808901.427    23808899.210
 03  6  6  0  6  0.0000000  0  5G14G25G11G20G 1
  23294008.097   -11996333.77543  -9300146.93042  23294010.172    23294005.537
  20660889.351   -25016763.47344 -19483425.23742  20660891.464    20660886.080
  21482344.285   -19665603.58643 -15313282.29742  21482346.466    21482340.819
  22620229.097   -14569252.32943 -11342720.50042  22620230.883    22620226.042
  23795442.751    -3018030.84643  -2342377.08042  23795445.091    23795442.729
 03  6  6  0  6 30.0000000  0  5G14G25G11G20G 1
  23308488.762   -11920237.99643  -9240851.56942  23308490.824    23308486.156
  20664329.388   -24998685.98044 -19469338.87842  20664331.496    20664326.120
  21486967.805   -19641306.74543 -15294349.71842  21486970.036    21486964.372
  22604135.861   -14653822.62643 -11408619.38642  22604137.641    22604132.857
  23782012.514    -3088606.78643  -2397371.23242  23782014.912    23782012.464
 03  6  6  0  7  0.0000000  0  5G14G25G11G20G 1
  23322974.648   -11844114.03943  -9181534.23542  23322976.758    23322971.959
  20667864.258   -24980109.99144 -19454864.08442  20667866.380    20667861.008
  21491691.978   -19616480.96143 -15275004.97642  21491694.213    21491688.587
  22588064.654   -14738277.17343 -11474428.08142  22588066.447    22588061.726
  23768609.174    -3159040.37443  -2452254.44942  23768611.575    23768609.412
 03  6  6  0  7 30.0000000  0  5G14G25G11G20G 1
  23337465.383   -11767964.54043  -9122197.03342  23337467.478    23337462.767
  20671493.357   -24961038.88244 -19440003.47642  20671495.495    20671490.126
  21496516.238   -19591129.37343 -15255250.51842  21496518.470    21496512.852
  22572015.343   -14822616.34443 -11540146.86942  22572017.163    22572012.469
  23755232.836    -3229333.80743  -2507028.44742  23755235.107    23755232.822
 03  6  6  0  8  0.0000000  0  5G14G25G11G20G 1
  23351961.213   -11691788.18843  -9062838.90742  23351963.352    23351958.668
  20675216.812   -24941472.00844 -19424756.56342  20675218.948    20675213.571
  21501440.746   -19565251.12843 -15235085.68342  21501442.939    21501437.324
  22555988.818   -14906836.32843 -11605772.80442  22555990.625    22555985.859
  23741883.661    -3299485.05043  -2561691.66842  23741885.831    23741883.457
 03  6  6  0  8 30.0000000  0  5G14G25G11G20G 1
  23366461.557   -11615588.19843  -9003462.33142  23366463.721    23366459.161
  20679033.858   -24921413.22544 -19409126.34142  20679036.007    20679030.623
  21506464.695   -19538850.37643 -15214513.69542  21506466.882    21506461.252
  22539984.801   -14990937.88243 -11671306.45442  22539986.604    22539981.738
  23728560.778    -3369497.08443  -2616246.41842  23728562.978    23728560.477
 03  6  6  0  9  0.0000000  0  5G14G25G11G20G 1
  23380967.106   -11539361.63543  -8944065.07042  23380969.229    23380964.632
  20682944.989   -24900860.08144 -19393110.90642  20682947.128    20682941.756
  21511588.591   -19511924.29243 -15193532.36042  21511590.753    21511585.146
  22524004.308   -15074915.85843 -11736743.80742  22524006.117    22524001.227
  23715264.832    -3439366.37643  -2670689.91642  23715267.144    23715264.796
 03  6  6  0  9 30.0000000  0  5G14G25G11G20G 1
  23395476.983   -11463111.94643  -8884649.78742  23395479.045    23395474.468
  20686949.465   -24879816.62244 -19376713.40542  20686951.578    20686946.199
  21516811.497   -19484477.78943 -15172145.50642  21516813.665    21516808.108
  22508047.147   -15158771.27543 -11802085.66542  22508048.961    22508043.949
  23701995.644    -3509095.86043  -2725024.50242  23701997.977    23701995.701
 03  6  6  0 10  0.0000000  0  5G14G25G11G20G 1
  23409991.342   -11386838.75443  -8825216.18942  23409993.444    23409988.845
  20691047.152   -24858283.10644 -19359934.03742  20691049.297    20691043.884
  21522133.482   -19456510.58343 -15150352.90042  21522135.653    21522130.163
  22492113.883   -15242501.25343 -11867329.78142  22492115.680    22492110.647
  23688753.395    -3578684.69743  -2779249.49142  23688755.581    23688753.191
 03  6  6  0 10 30.0000000  0  5G14G25G11G20G 1
  23424509.998   -11310543.19543  -8765765.15342  23424512.117    23424507.424
  20695237.718   -24836261.54444 -19342774.37742  20695239.870    20695234.449
  21527554.174   -19428024.63743 -15128156.09442  21527556.346    21527550.900
  22476204.688   -15326104.54843 -11932475.17942  22476206.488    22476201.478
  23675537.528    -3648133.59643  -2833365.39842  23675539.682    23675537.433
 03  6  6  0 11  0.0000000  0  5G14G25G11G20G 1
  23439033.088   -11234224.34843  -8706295.97042  23439035.260    23439030.458
  20699521.165   -24813752.00044 -19325234.47142  20699523.299    20699517.847
  21533073.546   -19399020.12643 -15105555.20842  21533075.742    21533070.274
  22460320.118   -15409578.14543 -11997519.51242  22460321.956    22460316.955
  23662348.731    -3717440.99543  -2887371.11242  23662350.820    23662348.506
 03  6  6  0 11 30.0000000  0  5G14G25G11G20G 1
  23453559.992   -11157885.12143  -8646810.92142  23453562.149    23453557.362
  20703896.797   -24790757.99244 -19307317.06042  20703898.923    20703893.437
  21538690.929   -19369500.87643 -15082553.22542  21538693.095    21538687.599
  22444460.147   -15492922.60543 -12062463.22342  22444462.011    22444457.038
  23649186.400    -3786609.44843  -2941268.49642  23649188.453    23649186.068
 03  6  6  0 12  0.0000000  0  6G14G16G25G11G20G 1
  23468088.602   -11081537.39043  -8587319.23442  23468090.690    23468085.981
  24658863.760    -3539682.99153  -2732911.83952  24658866.016    24658865.776
  20708362.175   -24767292.34844 -19289032.14342  20708364.282    20708358.801
  21544403.935   -19339479.22243 -15059159.76042  21544406.053    21544400.542
  22428622.973   -15576147.15443 -12127313.48342  22428624.806    22428619.954
  23636048.172    -3855650.28343  -2995066.47042  23636050.283    23636047.861
 03  6  6  0 12 30.0000000  0  6G14G16G25G11G20G 1
  23482624.262   -11005152.10243  -8527798.29842  23482626.386    23482621.766
  24641860.136    -3629035.45743  -2802536.91142  24641862.464    24641862.647
  20712922.646   -24743326.79844 -19270357.69242  20712924.736    20712919.307
  21550217.840   -19308927.09443 -15035352.93342  21550219.983    21550214.406
  22412814.691   -15659220.27843 -12192045.76342  22412816.484    22412811.641
  23622939.930    -3924534.14643  -3048742.14342  23622942.072    23622939.774
 03  6  6  0 13  0.0000000  0  6G14G16G25G11G20G 1
  23497162.821   -10928751.79443  -8468265.63042  23497164.978    23497160.312
  24624844.040    -3718455.38143  -2872214.60642  24624846.455    24624846.474
  20717573.910   -24718884.21644 -19251311.52642  20717575.960    20717570.571
  21556128.224   -19277867.97443 -15011151.04842  21556130.386    21556124.787
  22397031.357   -15742162.25743 -12256675.84742  22397033.125    22397028.277
  23609857.490    -3993282.97143  -3102312.58742  23609859.604    23609857.264
 03  6  6  0 13 30.0000000  0  6G14G16G25G11G20G 1
  23511705.582   -10852328.66643  -8408715.18942  23511707.733    23511703.204
  24607816.901    -3807931.86043  -2941936.33942  24607819.387    24607819.596
  20722317.189   -24693958.00244 -19231888.50142  20722319.276    20722313.884
  21562136.356   -19246295.08143 -14986548.82442  21562138.527    21562132.948
  22381274.855   -15824962.99143 -12321195.86742  22381276.648    22381271.767
  23596802.061    -4061888.82643  -3155771.61542  23596804.147    23596801.813
 03  6  6  0 14  0.0000000  0  6G14G16G25G11G20G 1
  23526251.563   -10775889.16443  -8349151.99342  23526253.671    23526249.200
  24590778.832    -3897467.71743  -3011704.39542  24590781.240    24590781.274
  20727151.115   -24668555.39344 -19212094.26842  20727153.215    20727147.837
  21568240.803   -19214215.96043 -14961552.13942  21568242.974    21568237.448
  22365544.530   -15907626.41843 -12385608.90642  22365546.292    22365541.351
  23583772.895    -4130357.56443  -3209123.79042  23583775.050    23583772.733
 03  6  6  0 14 30.0000000  0  6G14G16G25G11G20G 1
  23540801.584   -10699428.16543  -8289572.05242  23540803.677    23540799.280
  24573730.905    -3987054.69643  -3081512.31342  24573733.238    24573733.099
  20732076.456   -24642672.53944 -19191925.80742  20732078.578    20732073.176
  21574442.480   -19181625.94743 -14936157.34842  21574444.628    21574439.140
  22349841.682   -15990145.11543 -12449909.15642  22349843.479    22349838.573
  23570770.674    -4198683.82943  -3262364.95842  23570772.943    23570770.527
 03  6  6  0 15  0.0000000  0  6G14G16G25G11G20G 1
  23555355.187   -10622949.39543  -8229978.27142  23555357.151    23555352.865
  24556673.040    -4076693.34343  -3151360.42142  24556675.243    24556675.038
  20737092.313   -24616314.09344 -19171386.76242  20737094.420    20737088.984
  21580740.416   -19148530.23543 -14910368.51442  21580742.538    21580737.056
  22334166.104   -16072520.54343 -12514097.77342  22334167.899    22334163.028
  23557795.143    -4266871.07443  -3315497.80942  23557797.298    23557794.857
 03  6  6  0 15 30.0000000  0  6G14G16G25G11G20G 1
  23569911.598   -10546454.90943  -8170372.24042  23569913.642    23569909.341
  24539605.559    -4166382.24343  -3221247.68642  24539607.893    24539607.581
  20742198.108   -24589482.79544 -19150479.25742  20742200.242    20742194.822
  21587133.969   -19114931.80943 -14884187.95342  21587136.146    21587130.664
  22318517.909   -16154752.21643 -12578174.36542  22318519.672    22318514.886
  23544845.592    -4334920.82543  -3368523.51142  23544847.728    23544845.291
 03  6  6  0 16  0.0000000  0  6G14G16G25G11G20G 1
  23584471.770   -10469941.02043  -8110751.08242  23584473.862    23584469.530
  24522529.984    -4256114.74143  -3291169.00342  24522532.259    24522531.995
  20747394.391   -24562176.19944 -19129201.38942  20747396.503    20747391.111
  21593623.690   -19080828.32043 -14857613.83742  21593625.864    21593620.368
  22302898.157   -16236834.17743 -12642134.29842  22302899.948    22302895.245
  23531922.984    -4402829.14043  -3421439.00542  23531925.167    23531922.695
 03  6  6  0 16 30.0000000  0  6G14G16G25G11G20G 1
  23599035.292   -10393409.82743  -8051116.45642  23599037.360    23599033.054
  24505446.076    -4345889.66743  -3361123.32442  24505448.424    24505448.378
  20752680.559   -24534397.14944 -19107555.37442  20752682.673    20752677.261
  21600208.896   -19046222.95143 -14830648.64942  21600211.074    21600205.576
  22287306.975   -16318766.16243 -12705977.37542  22287308.754    22287304.096
  23519027.032    -4470597.68243  -3474245.57942  23519029.132    23519026.629
 03  6  6  0 17  0.0000000  0  6G14G16G25G11G20G 1
  23613601.204   -10316865.78743  -7991471.78442  23613603.315    23613599.025
  24488354.106    -4435708.18843  -3431111.60242  24488356.268    24488356.351
  20758055.668   -24506150.84044 -19085545.26842  20758057.787    20758052.348
  21606888.687   -19011120.68343 -14803296.27142  21606890.838    21606885.368
  22271744.043   -16400549.91043 -12769704.93342  22271745.791    22271741.176
  23506156.915    -4538230.32543  -3526946.25042  23506158.963    23506156.571
 03  6  6  0 17 30.0000000  0  6G14G16G25G11G20G 1
  23628170.647   -10240302.46243  -7931812.10742  23628172.803    23628168.506
  24471255.571    -4525560.31743  -3501126.09242  24471257.912    24471257.957
  20763520.613   -24477432.27044 -19063167.15842  20763522.762    20763517.349
  21613663.904   -18975516.69943 -14775552.95342  21613666.072    21613660.666
  22256210.873   -16482176.87343 -12833310.32042  22256212.637    22256208.052
  23493313.952    -4605720.44743  -3579535.86142  23493315.987    23493313.549
 03  6  6  0 18  0.0000000  0  6G14G16G25G11G20G 1
  23642742.700   -10163725.87843  -7872142.09042  23642744.844    23642740.482
  24454150.330    -4615448.65343  -3571168.76642  24454152.701    24454152.871
  20769074.090   -24448248.60044 -19040426.63442  20769076.226    20769070.851
  21620533.287   -18939417.87843 -14747424.03942  21620535.452    21620530.101
  22240706.924   -16563650.58143 -12896796.29242  22240708.688    22240704.087
  23480497.002    -4673073.81343  -3632018.92542  23480498.976    23480496.461
 03  6  6  0 18 30.0000000  0  6G14G16G25G11G20G 1
  23657318.033   -10087132.39043  -7812458.89742  23657320.155    23657315.731
  24437039.258    -4705367.19243  -3641235.01942  24437041.715    24437041.928
  20774716.513   -24418597.49644 -19017321.87742  20774718.645    20774713.263
  21627497.277   -18902822.13243 -14718907.91242  21627499.389    21627494.107
  22225233.203   -16644965.35643 -12960158.42242  22225234.958    22225230.341
  23467706.599    -4740286.98843  -3684392.74442  23467708.587    23467706.203
 03  6  6  0 19  0.0000000  0  6G14G16G25G11G20G 1
  23671895.679   -10010526.26443  -7752765.85642  23671897.935    23671893.371
  24419922.285    -4795316.08543  -3711324.89742  24419924.786    24419924.888
  20780446.943   -24388483.84744 -18993856.69842  20780449.083    20780443.661
  21634554.756   -18865734.96343 -14690008.86142  21634556.904    21634551.598
  22209789.439   -16726122.57143 -13023397.77142  22209791.220    22209786.587
  23454942.297    -4807363.45343  -3736660.02542  23454944.292    23454941.865
 03  6  6  0 19 30.0000000  0  6G14G16G25G11G20G 1
  23686476.244    -9933905.39843  -7693061.34442  23686478.408    23686473.965
  24402800.953    -4885289.99543  -3781434.26242  24402803.262    24402803.365
  20786265.621   -24357906.63244 -18970030.29742  20786267.737    20786262.299
  21641706.053   -18828155.11343 -14660725.90442  21641708.182    21641702.829
  22194376.493   -16807117.81043 -13086510.90442  22194378.259    22194373.676
  23442204.599    -4874300.63743  -3788818.81242  23442206.506    23442204.143
 03  6  6  0 20  0.0000000  0  6G14G16G25G11G20G 1
  23701059.370    -9857271.05743  -7633346.32942  23701061.607    23701056.988
  24385674.781    -4975287.23943  -3851561.81942  24385677.110    24385677.418
  20792171.964   -24326868.47844 -18945844.72442  20792174.091    20792168.644
  21648950.498   -18790085.30043 -14631061.15742  21648952.654    21648947.311
  22178994.658   -16887950.03043 -13149497.02242  22178996.378    22178991.750
  23429493.130    -4941099.60343  -3840869.87842  23429494.965    23429492.627
 03  6  6  0 20 30.0000000  0  6G14G16G25G11G20G 1
  23715645.049    -9780622.89243  -7573620.53642  23715647.379    23715642.765
  24368544.962    -5065304.14243  -3921704.68142  24368547.463    24368547.707
  20798165.896   -24295370.10044 -18921300.53042  20798168.031    20798162.560
  21656287.996   -18751526.76343 -14601015.59642  21656290.156    21656284.803
  22163644.242   -16968616.83943 -13212354.23842  22163645.972    22163641.364
  23416808.001    -5007759.85643  -3892812.84242  23416809.945    23416807.534
 03  6  6  0 21  0.0000000  0  6G14G16G25G11G20G 1
  23730233.086    -9703962.24943  -7513885.05042  23730235.335    23730230.902
  24351411.915    -5155338.60143  -3991861.27842  24351414.214    24351414.444
  20804246.921   -24263414.11244 -18896399.75842  20804249.057    20804243.561
  21663718.026   -18712481.93143 -14570591.09342  21663720.214    21663714.816
  22148325.599   -17049116.77943 -13275081.43042  22148327.319    22148322.691
  23404149.082    -5074282.52943  -3944648.61842  23404151.063    23404148.573
 03  6  6  0 21 30.0000000  0  6G14G16G25G11G20G 1
  23744823.712    -9627289.13443  -7454139.82242  23744825.954    23744821.359
  24334276.035    -5245387.20443  -4062028.86642  24334278.397    24334278.488
  20810414.878   -24231001.38744 -18871143.09142  20810417.001    20810411.504
  21671240.396   -18672952.03643 -14539788.61742  21671242.558    21671237.102
  22133039.201   -17129447.37043 -13337676.65842  22133040.902    22133036.229
  23391516.339    -5140667.03443  -3996376.71442  23391518.332    23391515.996
 03  6  6  0 22  0.0000000  0  6G14G16G25G11G20G 1
  23759416.450    -9550603.37743  -7394384.72642  23759418.791    23759414.192
  24317138.130    -5335446.92443  -4132205.12342  24317140.350    24317140.478
  20816669.465   -24198133.23444 -18845531.54742  20816671.604    20816666.099
  21678854.713   -18632938.77843 -14508609.50242  21678856.900    21678851.357
  22117785.426   -17209606.37343 -13400138.19042  22117787.131    22117782.430
  23378910.106    -5206913.26943  -4047997.07742  23378912.102    23378909.604
 03  6  6  0 22 30.0000000  0  6G14G16G25G11G20G 1
  23774011.293    -9473907.27643  -7334621.60642  23774013.591    23774009.038
  24299998.277    -5425516.72643  -4202389.22342  24300000.607    24300000.682
  20823010.045   -24164813.10944 -18819567.81742  20823012.180    20823006.715
  21686560.296   -18592445.78443 -14477056.57642  21686562.468    21686556.949
  22102564.297   -17289593.71143 -13462465.95342  22102566.076    22102561.303
  23366329.801    -5273023.50643  -4099511.47942  23366331.799    23366329.155
 03  6  6  0 23  0.0000000  0  6G14G16G25G11G20G 1
  23788608.660    -9397197.16943  -7274847.55142  23788610.924    23788606.635
  24282857.995    -5515589.47643  -4272575.60542  24282860.305    24282860.165
  20829437.136   -24131038.65944 -18793250.06642  20829439.267    20829433.760
  21694357.706   -18551470.46643 -14445127.80742  21694359.842    21694354.373
  22087377.072   -17369403.22643 -13524655.15942  22087378.812    22087374.037
  23353775.904    -5338993.47543  -4150916.57042  23353778.009    23353775.420
 03  6  6  0 23 30.0000000  0  6G14G16G25G11G20G 1
  23803207.835    -9320477.43443  -7215066.02742  23803210.066    23803206.013
  24265716.728    -5605666.49743  -4342765.32542  24265719.017    24265718.955
  20835949.477   -24096816.03744 -18766583.09142  20835951.608    20835946.118
  21702245.703   -18510018.66543 -14412827.75642  21702247.850    21702242.450
  22072223.279   -17449037.00143 -13586707.41942  22072224.984    22072220.214
  23341248.045    -5404827.76543  -4202215.93542  23341250.111    23341247.497
 03  6  6  0 24  0.0000000  0  6G14G16G25G11G20G 1
  23817809.017    -9243748.36143  -7155277.18142  23817811.266    23817807.136
  24248575.375    -5695744.61643  -4412955.85342  24248577.691    24248577.577
  20842546.915   -24062146.39444 -18739567.79242  20842549.035    20842543.546
  21710224.066   -18468092.34743 -14380157.93942  21710226.168    21710220.787
  22057103.338   -17528492.65843 -13648620.88842  22057105.042    22057100.258
  23328746.148    -5470525.98843  -4253409.30442  23328748.278    23328745.434
 03  6  6  0 24 30.0000000  0  6G14G16G25G11G20G 1
  23832412.416    -9167007.27843  -7095479.00542  23832414.593    23832410.536
  24231434.847    -5785817.99443  -4483142.74142  24231437.205    24231436.825
  20849229.678   -24027028.21044 -18712202.97742  20849231.813    20849226.309
  21718292.946   -18425690.14343 -14347117.30642  21718295.087    21718289.703
  22042018.242   -17607765.27543 -13710391.73742  22042019.941    22042015.144
  23316270.510    -5536085.39043  -4304494.46842  23316272.638    23316269.790
 03  6  6  0 25  0.0000000  0  6G14G16G25G11G20G 1
  23847017.013    -9090259.29843  -7035675.48042  23847019.273    23847015.128
  24214294.985    -5875888.44143  -4553327.33242  24214297.292    24214296.691
  20855996.520   -23991468.15144 -18684493.84742  20855998.668    20855993.170
  21726451.047   -18382819.01543 -14313711.27942  21726453.182    21726447.846
  22026967.417   -17686857.52343 -13772022.03142  22026969.159    22026964.350
  23303820.384    -5601510.85243  -4355475.28942  23303822.480    23303819.624
 03  6  6  0 25 30.0000000  0  6G14G16G25G11G20G 1
  23861624.177    -9013499.18443  -6975862.45242  23861626.387    23861622.145
  24197156.992    -5965947.55143  -4623503.07342  24197159.308    24197158.700
  20862848.194   -23955462.30344 -18656437.34742  20862850.347    20862844.860
  21734699.081   -18339475.18743 -14279936.91242  21734701.192    21734695.905
  22011952.483   -17765761.79043 -13833505.85942  22011954.186    22011949.329
  23291396.678    -5666796.92243  -4406347.49342  23291398.876    23291396.023
 03  6  6  0 26  0.0000000  0  6G14G16G25G11G20G 1
  23876232.533    -8936732.30543  -6916044.19142  23876234.599    23876230.472
  24180021.071    -6055997.51143  -4693671.71742  24180023.399    24180022.565
  20869783.502   -23919017.34444 -18628038.68442  20869785.601    20869780.106
  21743035.787   -18295665.64443 -14245799.64642  21743037.905    21743032.592
  21996972.721   -17844480.85143 -13894845.36242  21996974.452    21996969.522
  23278998.656    -5731948.78643  -4457115.10742  23279000.755    23278998.046
 03  6  6  0 26 30.0000000  0  6G14G16G25G11G20G 1
  23890843.006    -8859953.43043  -6856216.57242  23890845.112    23890841.144
  24162888.343    -6146029.71243  -4763826.45042  24162890.745    24162889.948
  20876802.988   -23882129.60244 -18599294.99542  20876805.125    20876799.594
  21751461.863   -18251386.61643 -14211296.55542  21751463.967    21751458.652
  21982029.626   -17923007.36643 -13956034.83542  21982031.341    21982026.386
  23266627.357    -5796961.09443  -4507774.00442  23266629.349    23266626.514
 03  6  6  0 27  0.0000000  0  6G14G16G25G11G20G 1
  23905454.776    -8783168.53743  -6796384.26542  23905456.821    23905452.884
  24145758.560    -6236046.79643  -4833969.49142  24145760.991    24145759.882
  20883905.403   -23844806.09444 -18570211.74742  20883907.531    20883902.034
  21759975.832   -18206645.60343 -14176433.46842  21759977.951    21759972.628
  21967122.416   -18001345.15243 -14017077.24542  21967124.165    21967119.141
  23254281.400    -5861839.67343  -4558328.68342  23254283.402    23254280.559
 03  6  6  0 27 30.0000000  0  6G14G16G25G11G20G 1
  23920067.890    -8706376.84743  -6736546.65042  23920069.914    23920065.973
  24128632.258    -6326044.99443  -4904097.76442  24128634.686    24128633.629
  20891090.580   -23807047.94744 -18540789.81842  20891092.687    20891087.198
  21768577.514   -18161443.85043 -14141211.35842  21768579.650    21768574.294
  21952251.702   -18079491.04343 -14077970.12542  21952253.451    21952248.467
  23241960.907    -5926583.83943  -4608778.62042  23241962.944    23241960.093
 03  6  6  0 28  0.0000000  0  6G14G16G25G11G20G 1
  23934683.410    -8629571.83343  -6676698.65742  23934685.518    23934681.451
  24111511.693    -6416014.03743  -4974203.34142  24111514.187    24111512.744
  20898359.422   -23768849.86244 -18511025.08242  20898361.545    20898356.080
  21777267.763   -18115776.30143 -14105626.29742  21777269.920    21777264.579
  21937419.243   -18157435.86143 -14138706.30942  21937420.982    21937416.029
  23229667.342    -5991186.84843  -4659118.56542  23229669.364    23229666.422
 03  6  6  0 28 30.0000000  0  6G14G16G25G11G20G 1
  23949299.636    -8552764.00043  -6616848.46742  23949301.640    23949297.508
  24094395.201    -6505961.49343  -5044292.07342  24094397.679    24094396.153
  20905709.668   -23730223.95844 -18480926.98442  20905711.792    20905706.349
  21786044.409   -18069655.13843 -14069687.77442  21786046.533    21786041.176
  21922623.557   -18235187.54743 -14199292.01242  21922625.285    21922620.373
  23217398.683    -6055659.08043  -4709356.59642  23217400.685    23217397.684
 03  6  6  0 29  0.0000000  0  6G14G16G25G11G20G 1
  23963917.180    -8475948.79243  -6556992.51542  23963919.159    23963914.915
  24077284.183    -6595879.57043  -5114357.94042  24077286.782    24077285.146
  20913141.988   -23691166.79244 -18450492.83542  20913144.092    20913138.703
  21794907.830   -18023077.57343 -14033393.61442  21794909.972    21794904.636
  21907865.946   -18312739.34143 -14259721.94242  21907867.631    21907862.770
  23205155.805    -6119995.83043  -4759489.07342  23205157.815    23205154.643
 03  6  6  0 29 30.0000000  0  7G14G 2G16G25G11G20G 1
  23978533.411    -8399139.79143  -6497141.43042  23978535.400    23978531.363
  24462064.121    -4573258.71853  -3427864.06652  24462066.043    24462069.866
  24060176.935    -6685778.36543  -5184408.78442  24060179.482    24060177.887
  20920653.454   -23651693.80644 -18419734.66942  20920655.555    20920650.171
  21803855.230   -17976058.77343 -13996755.63642  21803857.399    21803852.078
  21893144.300   -18390102.21543 -14320004.67442  21893145.973    21893141.084
  23192936.098    -6184210.36643  -4809526.31342  23192938.147    23192935.021
 03  6  6  0 30  0.0000000  0  7G14G 2G16G25G11G20G 1
  23993154.076    -8322308.64643  -6437273.08342  23993156.114    23993151.971
  24445921.169    -4658089.91943  -3493966.02442  24445922.993    24445927.001
  24043079.362    -6775626.30143  -5254420.03342  24043081.821    24043080.250
  20928249.181   -23611777.98344 -18388631.44042  20928251.259    20928245.879
  21812891.724   -17928572.07143 -13959753.05442  21812893.833    21812888.587
  21878464.275   -18467245.62043 -14380116.38842  21878466.007    21878461.152
  23180745.001    -6248274.35143  -4859446.23442  23180747.080    23180744.083
 03  6  6  0 30 30.0000000  0  7G14G 2G16G25G11G20G 1
  24007775.702    -8245470.88643  -6377399.57342  24007777.835    24007773.793
  24429769.621    -4742967.53343  -3560104.24842  24429771.416    24429774.824
  24025988.798    -6865435.88643  -5324401.36042  24025991.338    24025989.809
  20935925.879   -23571436.72244 -18357196.69642  20935927.987    20935922.561
  21822013.851   -17880635.17943 -13922399.67642  21822015.964    21822010.753
  21863823.572   -18544182.94343 -14440067.52142  21863825.306    21863820.441
  23168579.546    -6312203.48543  -4909261.08342  23168581.636    23168578.706
 03  6  6  0 31  0.0000000  0  7G14G 2G16G25G11G20G 1
  24022398.425    -8168628.92743  -6317522.77642  24022400.454    24022396.518
  24413608.998    -4827891.22843  -3626278.28342  24413610.877    24413614.393
  24008905.933    -6955206.22343  -5394352.16442  24008908.376    24008906.770
  20943682.891   -23530673.37444 -18325433.05642  20943685.007    20943679.568
  21831220.938   -17832252.03943 -13884698.57342  21831223.045    21831217.813
  21849222.175   -18620913.75843 -14499857.73642  21849223.921    21849219.035
  23156439.427    -6375999.80843  -4958972.43242  23156441.520    23156438.643
 03  6  6  0 31 30.0000000  0  7G14G 2G16G25G11G20G 1
  24037022.201    -8091780.69743  -6257641.06842  24037024.217    24037020.255
  24397440.613    -4912855.98343  -3692484.41842  24397442.627    24397445.775
  23991831.814    -7044932.00643  -5464268.22742  23991834.036    23991832.571
  20951520.182   -23489487.96944 -18293340.53942  20951522.318    20951516.887
  21840512.886   -17783422.70143 -13846649.77942  21840514.999    21840509.751
  21834660.867   -18697433.77943 -14559483.69442  21834662.663    21834657.776
  23144325.047    -6439661.23143  -5008578.65042  23144327.108    23144324.203
 03  6  6  0 32  0.0000000  0  7G14G 2G16G25G11G20G 1
  24051647.053    -8014926.92643  -6197755.08742  24051648.987    24051645.037
  24381264.354    -4997860.01443  -3758721.07442  24381266.471    24381269.754
  23974766.435    -7134610.71243  -5534147.63042  23974768.621    23974767.078
  20959437.417   -23447882.66444 -18260920.82942  20959439.530    20959434.111
  21849889.220   -17734149.76443 -13808255.33442  21849891.358    21849886.116
  21820139.973   -18773741.57943 -14618944.28942  21820141.772    21820136.896
  23132236.261    -6503188.47943  -5058080.32642  23132238.293    23132235.392
 03  6  6  0 32 30.0000000  0  7G14G 2G16G25G11G20G 1
  24066273.838    -7938063.52943  -6137861.59542  24066275.727    24066271.762
  24365082.295    -5082896.22743  -3824982.85142  24365084.389    24365087.849
  23957711.138    -7224234.78843  -5603984.47042  23957713.330    23957712.160
  20967435.107   -23405854.60744 -18228171.69942  20967437.230    20967431.824
  21859350.481   -17684430.70343 -13769513.25442  21859352.620    21859347.387
  21805660.727   -18849830.44843 -14678234.28542  21805662.509    21805657.652
  23120173.580    -6566577.19443  -5107474.02942  23120175.636    23120172.858
 03  6  6  0 33  0.0000000  0  7G14G 2G16G25G11G20G 1
  24080900.868    -7861198.12443  -6077966.52242  24080902.838    24080898.690
  24348893.361    -5167969.81743  -3891273.74742  24348895.415    24348898.595
  23940665.892    -7313808.59943  -5673782.13642  23940667.979    23940666.823
  20975511.478   -23363413.16544 -18195100.45642  20975513.596    20975508.173
  21868894.779   -17634274.94843 -13730430.90242  21868896.961    21868891.757
  21791222.109   -18925705.72443 -14737357.85042  21791223.891    21791219.024
  23108136.022    -6629834.96743  -5156765.72542  23108138.052    23108135.253
 03  6  6  0 33 30.0000000  0  7G14G 2G16G25G11G20G 1
  24095528.635    -7784328.62043  -6018068.28542  24095530.628    24095526.548
  24332698.021    -5253075.75543  -3957589.81642  24332700.189    24332703.312
  23923630.938    -7403326.98943  -5743536.58442  23923633.035    23923631.982
  20983666.577   -23320557.91544 -18161706.76142  20983668.714    20983663.265
  21878522.255   -17583682.40643 -13691008.18842  21878524.429    21878519.252
  21776825.019   -19001362.71143 -14796311.31842  21776826.802    21776821.932
  23096123.704    -6692959.64843  -5205953.70442  23096125.824    23096122.970
 03  6  6  0 34  0.0000000  0  7G14G 2G16G25G11G20G 1
  24110157.224    -7707454.48343  -5958166.41442  24110159.388    24110155.227
  24316497.191    -5338210.73043  -4023928.58842  24316499.504    24316502.392
  23906607.369    -7492786.23943  -5813244.96642  23906609.474    23906608.348
  20991900.223   -23277289.89044 -18127991.42042  20991902.357    20991896.895
  21888232.540   -17532654.57243 -13651246.28242  21888234.726    21888229.590
  21762470.030   -19076798.74643 -14855092.62142  21762471.757    21762466.848
  23084136.829    -6755950.71943  -5255037.55942  23084139.008    23084136.059
 03  6  6  0 34 30.0000000  0  7G14G 2G16G25G11G20G 1
  24124786.824    -7630576.04243  -5898261.19242  24124788.884    24124784.828
  24300291.291    -5423372.16143  -4090287.90342  24300293.293    24300296.575
  23889595.587    -7582183.20843  -5882904.84742  23889597.670    23889596.404
  21000212.053   -23233610.97644 -18093955.91142  21000214.199    21000208.737
  21898025.263   -17481193.64143 -13611146.90742  21898027.403    21898022.350
  21748157.521   -19152011.43743 -14913699.89542  21748159.254    21748154.306
  23072175.329    -6818808.35143  -5304017.46142  23072177.539    23072174.475
 03  6  6  0 35  0.0000000  0  7G14G 2G16G25G11G20G 1
  24139417.268    -7553693.31243  -5838352.63742  24139419.303    24139415.277
  24284080.981    -5508557.47643  -4156665.84842  24284083.021    24284086.319
  23872596.251    -7671514.78243  -5952513.76542  23872598.460    23872596.914
  21008601.663   -23189523.21644 -18059601.81842  21008603.805    21008598.357
  21907899.960   -17429301.95243 -13570711.87442  21907902.102    21907897.040
  21733887.934   -19226998.61643 -14972131.44142  21733889.649    21733884.669
  23060239.318    -6881532.74243  -5352893.53642  23060241.413    23060238.296
 03  6  6  0 35 30.0000000  0  7G14G 2G16G25G11G20G 1
  24154047.982    -7476808.52943  -5778442.49942  24154050.164    24154046.063
  24267866.007    -5593766.44343  -4223062.24042  24267867.926    24267871.178
  23855609.547    -7760779.92443  -6022070.87442  23855611.809    23855610.333
  21017068.362   -23145030.39744 -18024932.09842  21017070.495    21017065.073
  21917855.857   -17376983.62843 -13529944.38842  21917857.984    21917852.935
  21719661.257   -19301760.36043 -15030387.32742  21719662.958    21719657.929
  23048328.102    -6944126.05943  -5401667.46442  23048330.203    23048327.043
 03  6  6  0 36  0.0000000  0  7G14G 2G16G25G11G20G 1
  24168679.727    -7399917.93943  -5718527.83442  24168682.002    24168677.774
  24251647.759    -5678992.64543  -4289472.01542  24251649.714    24251652.770
  23838636.923    -7849971.75443  -6091570.88142  23838639.160    23838637.559
  21025612.589   -23100130.39744 -17989945.08942  21025614.702    21025609.232
  21927893.205   -17324236.91743 -13488843.11042  21927895.297    21927890.334
  21705478.613   -19376290.44143 -15088462.69642  21705480.331    21705475.314
  23036442.536    -7006584.52843  -5450336.32942  23036444.650    23036441.507
 03  6  6  0 36 30.0000000  0  7G14G 2G16G25G11G20G 1
  24183312.163    -7323025.00543  -5658611.34842  24183314.333    24183310.033
  24235426.191    -5764236.52943  -4355895.54742  24235428.230    24235431.418
  23821678.301    -7939090.40843  -6161013.86742  23821680.526    23821678.763
  21034233.240   -23054828.44844 -17954644.87942  21034235.341    21034229.902
  21938011.124   -17271067.24943 -13447412.25542  21938013.209    21938008.215
  21691339.900   -19450589.89843 -15146358.36142  21691341.615    21691336.569
  23024582.174    -7068911.48743  -5498902.71742  23024584.174    23024580.915
 03  6  6  0 37  0.0000000  0  7G14G 2G16G25G11G20G 1
  24197945.387    -7246127.16543  -5598691.01042  24197947.568    24197943.349
  24219202.323    -5849492.89843  -4422328.84442  24219204.411    24219207.459
  23804734.376    -8028130.26743  -6230395.44442  23804736.726    23804734.996
  21042930.559   -23009123.85244 -17919030.91642  21042932.646    21042927.210
  21948209.531   -17217473.98643 -13405651.32142  21948211.666    21948206.685
  21677245.998   -19524653.87843 -15204070.53642  21677247.707    21677242.646
  23012747.206    -7131104.37643  -5547364.63542  23012749.210    23012745.934
 03  6  6  0 37 30.0000000  0  7G14G 2G16G25G11G20G 1
  24212579.107    -7169225.88143  -5538768.02342  24212581.359    24212577.382
  24202976.186    -5934760.69443  -4488771.05442  24202978.316    24202981.086
  23787805.835    -8117089.31843  -6299714.06342  23787808.123    23787806.545
  21051703.832   -22963019.92144 -17883105.78342  21051705.952    21051700.507
  21958487.965   -17163460.57243 -13363562.99842  21958490.067    21958485.127
  21663197.077   -19598481.28043 -15261598.36742  21663198.862    21663193.734
  23000937.448    -7193164.70743  -5595723.25642  23000939.522    23000936.245
 03  6  6  0 38  0.0000000  0  7G14G 2G16G25G11G20G 1
  24227212.997    -7092325.65843  -5478845.82842  24227215.136    24227211.023
  24186747.697    -6020041.23243  -4555223.19042  24186749.853    24186752.736
  23770892.565    -8205968.89143  -6368970.73642  23770894.900    23770893.155
  21060552.055   -22916522.29144 -17846873.87142  21060554.168    21060548.712
  21968845.169   -17109033.75543 -13321152.55342  21968847.217    21968842.260
  21649192.861   -19672073.92143 -15318943.26642  21649194.660    21649189.500
  22989152.036    -7255096.77743  -5643981.93942  22989154.123    22989150.809
 03  6  6  0 38 30.0000000  0  7G14G 2G16G25G11G20G 1
  24241847.698    -7015419.72143  -5418919.17442  24241849.810    24241845.619
  24170518.707    -6105324.88243  -4621677.76942  24170520.877    24170523.475
  23753996.424    -8294758.72443  -6438157.52442  23753998.613    23753996.661
  21069476.131   -22869625.78844 -17810331.14942  21069478.294    21069472.833
  21979281.787   -17054189.02943 -13278416.45342  21979283.872    21979278.930
  21635235.050   -19745422.90443 -15376098.30042  21635236.800    21635231.637
  22977392.421    -7316893.76243  -5692135.37242  22977394.508    22977391.187
 03  6  6  0 39  0.0000000  0  7G14G 2G16G25G11G20G 1
  24256482.973    -6938511.25543  -5358990.57442  24256485.070    24256480.914
  24154288.754    -6190612.47443  -4688135.40142  24154290.820    24154293.447
  23737116.900    -8383459.02243  -6507274.49442  23737119.220    23737117.648
  21078475.111   -22822335.97144 -17773481.95142  21078477.237    21078471.807
  21989796.961   -16998931.72843 -13235358.87842  21989799.031    21989794.100
  21621323.423   -19818529.09543 -15433064.14142  21621325.143    21621319.985
  22965657.827    -7378558.97343  -5740186.12642  22965659.867    22965656.686
 03  6  6  0 39 30.0000000  0  7G14G 2G16G25G11G20G 1
  24271118.472    -6861601.53243  -5299060.97742  24271120.669    24271116.501
  24138058.402    -6275902.68143  -4754595.10742  24138060.359    24138062.951
  23720255.300    -8472067.96143  -6576320.29642  23720257.488    23720255.877
  21087548.323   -22774655.88544 -17736328.64342  21087550.469    21087545.040
  22000390.089   -16943265.11243 -13191982.35342  22000392.174    22000387.167
  21607458.157   -19891391.47643 -15489840.00542  21607459.890    21607454.747
  22953947.992    -7440093.90243  -5788135.35942  22953950.068    22953946.922
 03  6  6  0 40  0.0000000  0  7G14G 2G16G25G11G20G 1
  24285754.478    -6784687.72443  -5239128.23542  24285756.650    24285752.723
  24121828.617    -6361189.74043  -4821052.33942  24121830.649    24121833.251
  23703412.063    -8560579.37943  -6645290.09242  23703414.324    23703412.609
  21096696.017   -22726584.43844 -17698870.38242  21096698.144    21096692.736
  22011061.142   -16887188.65043 -13148286.45642  22011063.263    22011058.243
  21593640.314   -19964004.70443 -15546421.72342  21593642.028    21593636.874
  22942263.560    -7501495.64443  -5835980.79342  22942265.655    22942262.460
 03  6  6  0 40 30.0000000  0  7G14G 2G16G25G11G20G 1
  24300390.512    -6707774.99743  -5179196.27142  24300392.507    24300388.755
  24105599.108    -6446476.10143  -4887509.03742  24105601.078    24105603.694
  23686586.953    -8648995.23943  -6714185.41342  23686589.221    23686587.541
  21105916.900   -22678128.51644 -17661112.52742  21105919.006    21105913.574
  22021808.717   -16830709.87143 -13104277.07942  22021810.863    22021805.864
  21579869.306   -20036371.62043 -15602811.51342  21579871.052    21579865.858
  22930603.470    -7562769.49743  -5883726.59242  22930605.564    22930602.369
 03  6  6  0 41  0.0000000  0  7G14G 2G16G25G11G20G 1
  24315027.239    -6630859.11443  -5119261.91842  24315029.204    24315025.655
  24089370.824    -6531754.98343  -4953959.90542  24089372.912    24089375.347
  23669781.295    -8737308.23743  -6783000.59242  23669783.577    23669781.857
  21115211.364   -22629285.66644 -17623053.17042  21115213.466    21115208.039
  22032633.394   -16773826.16743 -13059952.17342  22032635.521    22032630.487
  21566146.449   -20108485.61543 -15659004.21742  21566148.185    21566142.989
  22918968.634    -7623911.14943  -5931369.37542  22918970.641    22918967.473
 03  6  6  0 41 30.0000000  0  7G14G 2G16G25G11G20G 1
  24329664.456    -6553940.01743  -5059325.00242  24329666.507    24329662.914
  24073144.628    -6617023.50843  -5020402.68242  24073146.671    24073149.249
  23652996.107    -8825514.77443  -6851732.81142  23652998.412    23652996.611
  21124579.211   -22580057.41944 -17584693.50742  21124581.321    21124575.885
  22043534.644   -16716539.96043 -13015313.62042  22043536.789    22043531.705
  21552472.209   -20180344.20843 -15714997.90742  21552473.938    21552468.700
  22907358.852    -7684920.54843  -5978909.11042  22907360.919    22907357.667
 03  6  6  0 42  0.0000000  0  7G14G 2G16G25G11G20G 1
  24344301.533    -6477022.37643  -4999389.28242  24344303.514    24344299.928
  24056919.961    -6702283.71343  -5086838.99642  24056922.083    24056924.553
  23636230.791    -8913616.45043  -6920383.31642  23636233.083    23636231.319
  21134019.098   -22530450.47444 -17546038.75342  21134021.221    21134015.775
  22054511.067   -16658858.35743 -12970366.97242  22054513.268    22054508.164
  21538846.092   -20251949.86743 -15770794.50542  21538847.819    21538842.551
  22895773.446    -7745802.48643  -6026349.51042  22895775.445    22895772.188
 03  6  6  0 42 30.0000000  0  7G14G 2G16G25G11G20G 1
  24358939.286    -6400099.92143  -4939449.76142  24358941.378    24358937.717
  24040698.649    -6787526.62643  -5153261.86442  24040700.813    24040703.020
  23619487.246    -9001603.74143  -6988944.68842  23619489.509    23619487.791
  21143531.802   -22480460.81844 -17507085.78342  21143533.916    21143528.459
  22065563.610   -16600777.18543 -12925108.96642  22065565.769    22065560.650
  21525269.691   -20323294.03643 -15826387.34142  21525271.460    21525266.209
  22884213.334    -7806550.77243  -6073685.77742  22884215.401    22884212.144
 03  6  6  0 43  0.0000000  0  7G14G 2G16G25G11G20G 1
  24373577.207    -6323176.92343  -4879509.82542  24373579.312    24373575.699
  24024480.301    -6872753.58543  -5219672.25542  24024482.465    24024484.660
  23602765.289    -9089477.68543  -7057417.73542  23602767.627    23602765.853
  21153116.303   -22430094.31844 -17467839.16442  21153118.381    21153112.897
  22076690.890   -16542302.97943 -12879544.70342  22076693.092    22076687.957
  21511742.751   -20394378.28843 -15881777.64542  21511744.516    21511739.286
  22872677.878    -7867169.47243  -6120921.06242  22872679.936    22872676.752
 03  6  6  0 43 30.0000000  0  7G14G 2G16G25G11G20G 1
  24388215.075    -6246254.30843  -4819570.24342  24388217.247    24388213.627
  24008265.043    -6957962.99143  -5286068.97842  24008267.422    24008269.699
  23586065.221    -9177236.14043  -7125800.77842  23586067.569    23586065.829
  21162771.893   -22379353.83444 -17428301.13442  21162773.975    21162768.513
  22087892.344   -16483439.11743 -12833676.81542  22087894.503    22087889.428
  21498265.519   -20465201.27843 -15936964.36242  21498267.297    21498262.084
  22861166.945    -7927659.81143  -6168056.33842  22861168.949    22861165.718
 03  6  6  0 44  0.0000000  0  7G14G 2G16G25G11G20G 1
  24402853.175    -6169332.08043  -4759630.89642  24402855.343    24402851.590
  23992053.921    -7043152.13643  -5352449.90242  23992056.177    23992058.470
  23569387.645    -9264876.07943  -7194091.50342  23569390.071    23569388.235
  21172498.267   -22328241.44344 -17388473.30842  21172500.372    21172494.885
  22099167.504   -16424188.07743 -12787507.22842  22099169.632    22099164.584
  21484838.470   -20535760.78643 -15991945.78342  21484840.240    21484835.032
  22849680.368    -7988021.98243  -6215091.75442  22849682.391    22849679.107
 03  6  6  0 44 30.0000000  0  7G14G 2G16G25G11G20G 1
  24417491.595    -6092407.49143  -4699689.70542  24417493.640    24417489.822
  23975847.911    -7128315.50243  -5418810.76942  23975850.010    23975852.093
  23552734.040    -9352391.16443  -7262284.93742  23552736.447    23552734.500
  21182295.725   -22276755.46044 -17348354.36742  21182297.845    21182292.335
  22110516.496   -16364548.94343 -12741035.23242  22110518.666    22110513.569
  21471462.597   -20606051.48243 -16046717.73042  21471464.319    21471459.134
  22838218.595    -8048253.19643  -6262025.10042  22838220.631    22838217.440
 03  6  6  0 45  0.0000000  0  7G14G 2G16G25G11G20G 1
  24432129.981    -6015482.38343  -4639748.15142  24432132.018    24432128.144
  23959646.748    -7213452.04443  -5485150.69242  23959648.889    23959650.935
  23536104.521    -9439779.80443  -7330379.84842  23536106.859    23536104.783
  21192163.447   -22224900.16944 -17307947.65642  21192165.579    21192160.098
  22121938.460   -16304526.06643 -12694264.21142  22121940.669    22121935.584
  21458137.940   -20676072.90843 -16101279.86142  21458139.681    21458134.483
  22826781.517    -8108355.15643  -6308857.74942  22826783.482    22826780.368
 03  6  6  0 45 30.0000000  0  7G14G 2G16G25G11G20G 1
  24446768.776    -5938555.45243  -4579805.19242  24446770.745    24446767.037
  23943451.657    -7298557.76043  -5551466.60942  23943453.758    23943455.552
  23519499.679    -9527037.91843  -7398373.02942  23519502.036    23519499.930
  21202101.312   -22172676.47744 -17267253.88142  21202103.424    21202097.949
  22133433.373   -16244120.57443 -12647195.05042  22133435.518    22133430.490
  21444865.239   -20745821.45143 -16155629.35642  21444866.943    21444861.775
  22815369.284    -8168326.79843  -6355588.84342  22815371.255    22815368.066
 03  6  6  0 46  0.0000000  0  7G14G 2G16G25G11G20G 1
  24461407.542    -5861629.29543  -4519862.77442  24461409.589    24461405.741
  23927262.356    -7383632.66943  -5617758.52142  23927264.550    23927266.120
  23502919.801    -9614165.04443  -7466264.14242  23502922.217    23502920.004
  21212108.418   -22120088.76844 -17226276.45142  21212110.540    21212105.076
  22145000.032   -16183337.46343 -12599831.64842  22145002.166    22144997.199
  21431644.326   -20815297.57043 -16209766.57042  21431646.063    21431640.903
  22803981.336    -8228170.92043  -6402220.57742  22803983.351    22803980.011
 03  6  6  0 46 30.0000000  0  7G14G 2G16G25G11G20G 1
  24476046.226    -5784702.90343  -4459920.18542  24476048.225    24476044.358
  23911079.339    -7468673.38143  -5684023.77042  23911081.606    23911083.215
  23486365.725    -9701157.07443  -7534049.98742  23486368.083    23486365.951
  21222184.678   -22067137.88544 -17185016.02942  21222186.784    21222181.317
  22156638.249   -16122178.34443 -12552175.24142  22156640.359    22156635.450
  21418475.970   -20884497.78943 -16263688.79542  21418477.685    21418472.534
  22792617.693    -8287886.71443  -6448752.30042  22792619.791    22792616.427
 03  6  6  0 47  0.0000000  0  7G14G 2G16G25G11G20G 1
  24490684.608    -5707776.91043  -4399977.95542  24490686.605    24490683.005
  23894903.624    -7553677.68643  -5750260.68242  23894905.726    23894907.234
  23469837.836    -9788011.15343  -7601728.37942  23469840.252    23469837.955
  21232329.543   -22013826.28944 -17143474.54042  21232331.640    21232326.172
  22168347.536   -16060645.90343 -12504227.94442  22168349.590    22168344.679
  21405360.433   -20953420.39943 -16317394.70742  21405362.160    21405357.009
  22781278.548    -8347474.64743  -6495184.40342  22781280.598    22781277.147
 03  6  6  0 47 30.0000000  0  7G14G 2G16G25G11G20G 1
  24505323.322    -5630851.02143  -4340035.79042  24505325.244    24505321.666
  23878735.181    -7638642.37143  -5816466.69042  23878737.421    23878738.888
  23453336.801    -9874723.61743  -7669296.37842  23453339.212    23453337.026
  21242542.762   -21960155.44044 -17101653.09742  21242544.892    21242539.390
  22180127.451   -15998742.35943 -12455991.46542  22180129.483    22180124.591
  21392298.223   -21022062.51343 -16370882.05342  21392299.993    21392294.839
  22769963.807    -8406934.32143  -6541516.55642  22769965.819    22769962.226
 03  6  6  0 48  0.0000000  0  7G14G 2G16G25G11G20G 1
  24519962.150    -5553922.94843  -4280091.91242  24519964.161    24519960.624
  23862575.294    -7723562.62043  -5882638.10542  23862577.466    23862578.763
  23436863.892    -9961289.06343  -7736749.84942  23436866.265    23436863.972
  21252824.323   -21906125.41744 -17059551.79242  21252826.453    21252821.000
  22191977.835   -15936468.18843 -12407466.20142  22191979.880    22191975.006
  21379290.323   -21090419.67043 -16424147.35942  21379292.079    21379286.925
  22758673.847    -8466263.84443  -6587747.31742  22758675.846    22758672.149
 03  6  6  0 48 30.0000000  0  7G14G 2G16G25G11G20G 1
  24534601.361    -5476994.16043  -4220147.45542  24534603.317    24534599.547
  23846423.858    -7808437.24143  -5948773.94542  23846426.033    23846427.423
  23420419.217   -10047706.15943  -7804087.70342  23420421.479    23420419.406
  21263173.628   -21851739.72944 -17017173.34542  21263175.732    21263170.262
  22203898.072   -15873826.93543 -12358654.88542  22203900.157    22203895.285
  21366336.765   -21158490.99943 -16477189.93742  21366338.518    21366333.377
  22747408.184    -8525464.85143  -6633877.91142  22747410.143    22747406.472
 03  6  6  0 49  0.0000000  0  7G14G 2G16G25G11G20G 1
  24549239.729    -5400069.47343  -4160206.19142  24549241.853    24549237.905
  23830280.865    -7893268.36443  -6014875.91942  23830282.956    23830284.277
  23404002.477   -10133976.35643  -7871311.10442  23404004.691    23404002.602
  21273589.252   -21797005.11044 -16974522.99842  21273591.386    21273585.891
  22215886.839   -15810825.89043 -12309563.21142  22215888.918    22215884.056
  21353437.077   -21226279.00143 -16530011.74342  21353438.838    21353433.725
  22736166.071    -8584542.29343  -6679912.22342  22736168.032    22736164.373
 03  6  6  0 49 30.0000000  0  7G14G 2G16G25G11G20G 1
  24563878.894    -5323140.50843  -4100261.61042  24563881.083    24563877.015
  23814148.160    -7978044.74043  -6080935.19542  23814150.258    23814151.716
  23387615.835   -10220087.84743  -7938410.81642  23387618.022    23387616.034
  21284072.568   -21741914.74243 -16931595.45042  21284074.712    21284069.238
  22227945.140   -15747459.27243 -12260186.68742  22227947.230    22227942.430
  21340593.407   -21293772.98043 -16582604.44442  21340595.138    21340590.025
  22724949.104    -8643487.67843  -6725843.63242  22724951.105    22724947.430
 03  6  6  0 50  0.0000000  0  7G14G 2G16G25G11G20G 1
  24578517.604    -5246213.80743  -4040318.80542  24578519.818    24578515.721
  23798025.176    -8062770.25943  -6146954.84642  23798027.292    23798028.875
  23371258.817   -10306044.17143  -8005389.63742  23371260.989    23371258.852
  21294621.891   -21686477.66544 -16888397.74342  21294624.017    21294618.577
  22240071.289   -15683736.23343 -12210532.42442  22240073.355    22240068.572
  21327804.934   -21360976.90043 -16634971.12142  21327806.652    21327801.496
  22713755.925    -8702307.68943  -6771677.36842  22713757.966    22713754.266
 03  6  6  0 50 30.0000000  0  7G14G 2G16G25G11G20G 1
  24593156.544    -5169285.79743  -3980375.01442  24593158.787    24593154.946
  23781913.175    -8147438.56943  -6212929.92542  23781915.243    23781916.787
  23354932.556   -10391838.53943  -8072242.23442  23354934.789    23354932.568
  21305237.614   -21630691.78244 -16844928.23242  21305239.741    21305234.234
  22252265.529   -15619655.34343 -12160599.32242  22252267.597    22252262.836
  21315072.792   -21427884.78043 -16687107.12342  21315074.501    21315069.299
  22702587.298    -8760998.66743  -6817410.53142  22702589.315    22702585.704
 03  6  6  0 51  0.0000000  0  7G14G 2G16G25G11G20G 1
  24607794.862    -5092360.99743  -3920433.65142  24607796.951    24607793.162
  23765811.669    -8232051.75543  -6278862.03042  23765813.714    23765815.205
  23338636.725   -10477472.59643  -8138969.91142  23338638.967    23338636.787
  21315918.396   -21574563.96744 -16801192.28542  21315920.511    21315914.980
  22264526.457   -15555224.03843 -12110393.16942  22264528.525    22264523.828
  21302396.501   -21494499.07943 -16739014.35842  21302398.217    21302392.999
  22691442.375    -8819565.62443  -6863047.07242  22691444.379    22691440.737
 03  6  6  0 51 30.0000000  0  7G14G 2G16G25G11G20G 1
  24622433.760    -5015433.87343  -3860490.46942  24622435.899    24622432.043
  23749722.300    -8316601.43243  -6344744.65942  23749724.338    23749725.701
  23322373.238   -10562937.36943  -8205565.67542  23322375.472    23322373.209
  21326664.932   -21518090.66544 -16757187.12542  21326667.032    21326661.518
  22276854.615   -15490439.04443 -12059911.41842  22276856.739    22276852.067
  21289777.604   -21560811.96143 -16790686.72842  21289779.302    21289774.029
  22680321.982    -8878003.03343  -6908582.65442  22680324.040    22680320.460
 03  6  6  0 52  0.0000000  0  7G14G 2G16G25G11G20G 1
  24637072.044    -4938508.78643  -3800548.95942  24637074.223    24637070.769
  23733644.575    -8401089.63643  -6410579.39342  23733646.699    23733647.900
  23306141.752   -10648234.24843  -8272030.62542  23306143.911    23306141.560
  21337475.893   -21461278.67743 -16712918.05142  21337477.993    21337472.513
  22289248.775   -15425307.68743 -12009159.76742  22289250.882    22289246.237
  21277215.616   -21626825.54044 -16842125.86942  21277217.338    21277212.038
  22669225.490    -8936315.50743  -6954020.89742  22669227.513    22669223.910
 03  6  6  0 52 30.0000000  0  7G14G 2G16G25G11G20G 1
  24651710.432    -4861582.86643  -3740606.73642  24651712.446    24651709.336
  23717579.561    -8485510.74743  -6476361.84342  23717581.761    23717582.847
  23289943.279   -10733357.27343  -8338360.09142  23289945.512    23289942.963
  21348351.509   -21404126.86643 -16668384.18142  21348353.598    21348348.126
  22301708.942   -15359829.26743 -11958137.67142  22301711.081    22301706.429
  21264711.607   -21692534.48644 -16893327.63642  21264713.365    21264708.048
  22658153.202    -8994500.16643  -6999359.54242  22658155.236    22658151.672
 03  6  6  0 53  0.0000000  0  7G14G 2G16G25G11G20G 1
  24666348.547    -4784659.33843  -3680666.37042  24666350.560    24666347.332
  23701527.339    -8569865.16343  -6542092.33042  23701529.527    23701530.681
  23273777.782   -10818306.35943  -8404554.02342  23273780.079    23273777.403
  21359290.907   -21346640.47344 -16623589.60342  21359292.928    21359287.455
  22314234.080   -15294009.66343 -11906849.72542  22314236.210    22314231.534
  21252265.439   -21757939.67944 -16944292.70642  21252267.155    21252261.864
  22647104.655    -9052560.43243  -7044601.26642  22647106.692    22647103.152
 03  6  6  0 53 30.0000000  0  7G14G 2G16G25G11G20G 1
  24680986.914    -4707735.56143  -3620725.84942  24680988.786    24680985.454
  23685488.834    -8654147.60943  -6607766.76142  23685491.014    23685492.063
  23257646.773   -10903075.36643  -8470607.64142  23257649.029    23257646.252
  21370293.927   -21288819.06844 -16578533.97642  21370295.990    21370290.528
  22326824.144   -15227848.92743 -11855295.97042  22326826.259    22326821.575
  21239877.912   -21823036.45743 -16995017.45242  21239879.632    21239874.353
  22636080.247    -9110493.79643  -7089744.10542  22636082.324    22636078.802
 03  6  6  0 54  0.0000000  0  7G14G 2G16G25G11G20G 1
  24695624.665    -4630813.34043  -3560786.50342  24695626.419    24695623.333
  23669464.187    -8738357.11443  -6673384.33942  23669466.309    23669467.355
  23241550.023   -10987663.47943  -8536520.30042  23241552.313    23241549.471
  21381360.024   -21230666.37743 -16533220.20442  21381362.092    21381356.630
  22339478.265   -15161351.23543 -11803479.65642  22339480.417    22339475.681
  21227549.215   -21887824.03643 -17045501.26342  21227550.950    21227545.700
  22625079.663    -9168302.23743  -7134789.60142  22625081.688    22625078.144
 03  6  6  0 54 30.0000000  0  7G14G 2G16G25G11G20G 1
  24710262.261    -4553892.54543  -3500848.30442  24710264.264    24710260.911
  23653453.874    -8822490.76243  -6738942.81642  23653456.044    23653456.999
  23225488.424   -11072067.21343  -8602289.29642  23225490.758    23225487.916
  21392488.792   -21172183.94543 -16487649.48542  21392490.907    21392485.468
  22352196.091   -15094519.15943 -11751402.78842  22352198.210    22352193.430
  21215279.833   -21952299.88643 -17095742.15942  21215281.567    21215276.364
  22614102.883    -9225985.61443  -7179737.63842  22614104.866    22614101.264
 03  6  6  0 55  0.0000000  0  7G14G 2G16G25G11G20G 1
  24724900.160    -4476970.45443  -3440909.06042  24724902.128    24724898.755
  23637458.897    -8906543.26543  -6804438.05242  23637461.160    23637462.202
  23209463.095   -11156280.75443  -8667910.07942  23209465.425    23209462.475
  21403680.443   -21113371.30943 -16441821.46742  21403682.565    21403677.148
  22364977.445   -15027352.89343 -11699065.51242  22364979.572    22364974.825
  21203070.729   -22016458.99443 -17145736.24642  21203072.457    21203067.295
  22603150.363    -9283541.40343  -7224586.26542  22603152.361    22603148.689
 03  6  6  0 55 30.0000000  0  7G14G 2G16G25G11G20G 1
  24739537.777    -4400050.70243  -3380971.64442  24739539.722    24739536.168
  23621479.358    -8990515.43143  -6869870.70942  23621481.576    23621482.643
  23193473.935   -11240304.54843  -8733383.02942  23193476.225    23193473.146
  21414933.852   -21054234.32243 -16395740.70742  21414935.936    21414930.554
  22377821.283   -14959858.34343 -11646472.42242  22377823.406    22377818.673
  21190921.659   -22080302.59944 -17195484.48442  21190923.397    21190918.225
  22592221.400    -9340973.30943  -7269338.36342  22592223.390    22592219.691
 03  6  6  0 56  0.0000000  0  6G 2G16G25G11G20G 1
  23605513.315    -9074416.10643  -6935247.64642  23605515.554    23605516.657
  23177519.226   -11324146.82143  -8798714.55142  23177521.500    23177518.354
  21426246.462   -20994786.47843 -16349417.72242  21426248.513    21426243.122
  22390724.890   -14892049.66443 -11593634.56542  22390727.001    22390722.270
  21178830.846   -22143839.84943 -17244994.00542  21178832.639    21178827.458
  22581313.807    -9398292.75243  -7314002.82042  22581315.860    22581312.118
 03  6  6  0 56 30.0000000  0  6G 2G16G25G11G20G 1
  23589567.032    -9158213.02543  -7000543.72542  23589569.327    23589570.456
  23161605.183   -11407774.70743  -8863878.99542  23161607.543    23161604.403
  21437623.450   -20935000.21943 -16302831.03542  21437625.494    21437620.075
  22403693.481   -14823899.64243 -11540530.72442  22403695.566    22403690.880
  21166804.484   -22207038.73643 -17294239.87042  21166806.252    21166801.074
  22570433.305    -9455470.19743  -7358556.63042  22570435.288    22570431.545
 03  6  6  0 57  0.0000000  0  6G 2G16G25G11G20G 1
  23573637.381    -9241924.32043  -7065773.09342  23573639.419    23573640.474
  23145728.615   -11491206.23343  -8928890.45142  23145730.992    23145727.780
  21449060.418   -20874898.43343 -16255998.48742  21449062.504    21449057.079
  22416722.389   -14755432.20943 -11487179.54242  22416724.503    22416719.825
  21154838.952   -22269917.97144 -17343236.65742  21154840.704    21154835.497
  22559575.684    -9512526.92343  -7403016.36442  22559577.684    22559573.978
 03  6  6  0 57 30.0000000  0  6G 2G16G25G11G20G 1
  23557725.094    -9325543.32943  -7130930.54542  23557727.218    23557728.013
  23129890.779   -11574434.05643  -8993743.15142  23129893.126    23129889.974
  21460557.840   -20814479.00043 -16208918.42442  21460559.908    21460554.506
  22429812.063   -14686645.68943 -11433579.72542  22429814.177    22429809.526
  21142935.451   -22332471.18244 -17391979.39842  21142937.206    21142931.982
  22548741.866    -9569458.94443  -7447378.94942  22548743.896    22548740.116
 03  6  6  0 58  0.0000000  0  6G 2G16G25G11G20G 1
  23541830.950    -9409066.71143  -7196013.49842  23541833.174    23541833.723
  23114092.334   -11657454.37543  -9058434.17542  23114094.795    23114091.552
  21472115.498   -20753743.34843 -16161591.95242  21472117.542    21472112.108
  22442961.976   -14617542.20243 -11379732.92142  22442964.162    22442959.586
  21131094.638   -22394695.27844 -17440465.68642  21131096.380    21131091.092
  22537931.896    -9626265.71743  -7491643.93042  22537933.861    22537930.130
 03  6  6  0 58 30.0000000  0  6G 2G16G25G11G20G 1
  23525955.259    -9492493.24543  -7261020.97142  23525957.519    23525957.957
  23098333.727   -11740265.46743  -9122962.18142  23098336.152    23098333.064
  21483732.587   -20692695.12943 -16114021.92542  21483734.630    21483729.176
  22456171.512   -14548125.97043 -11325642.40242  22456173.715    22456169.147
  21119316.587   -22456589.31644 -17488694.78842  21119318.345    21119313.008
  22527145.418    -9682948.80543  -7535812.52442  22527147.407    22527143.657
 03  6  6  0 59  0.0000000  0  6G 2G16G25G11G20G 1
  23510098.503    -9575819.67843  -7325950.43742  23510100.904    23510101.157
  23082615.821   -11822863.54743  -9187324.23142  23082618.081    23082614.980
  21495408.863   -20631335.86443 -16066209.52442  21495410.946    21495405.448
  22469440.247   -14478398.79143 -11271309.60342  22469442.377    22469437.837
  21107601.871   -22518150.67844 -17536664.66942  21107603.625    21107598.256
  22516382.709    -9739507.68843  -7579884.35742  22516384.642    22516380.803
 03  6  6  0 59 30.0000000  0  6G 2G16G25G11G20G 1
  23494261.925    -9659040.68443  -7390797.75742  23494264.272    23494264.493
  23066939.594   -11905242.68343  -9251515.64342  23066941.766    23066938.627
  21507144.507   -20569664.75343 -16018154.12642  21507146.584    21507141.046
  22482768.191   -14408360.58343 -11216734.44642  22482770.252    22482765.737
  21095951.424   -22579374.12944 -17584371.24142  21095953.182    21095947.807
  22505643.963    -9795939.80343  -7623857.39742  22505645.945    22505642.108
 03  6  6  1  0  0.0000000  0  6G 2G16G25G11G20G 1
  23478444.575    -9742160.08543  -7455565.90542  23478446.891    23478447.118
  23051304.228   -11987406.63643  -9315539.39942  23051306.351    23051303.131
  21518937.719   -20507690.81843 -15969862.77042  21518939.814    21518934.321
  22496153.383   -14338020.85143 -11161924.34142  22496155.522    22496151.010
  21084364.455   -22640264.01544 -17631817.89842  21084366.214    21084360.811
  22494928.111    -9852251.91043  -7667736.94342  22494930.105    22494926.201
 03  6  6  1  0 30.0000000  0  6G 2G16G25G11G20G 1
  23462648.964    -9825166.27043  -7520245.82442  23462651.144    23462651.452
  23035711.964   -12069343.33743  -9379386.05742  23035714.170    23035710.882
  21530789.935   -20445406.86043 -15921329.82842  21530792.052    21530786.580
  22509597.223   -14267373.30043 -11106874.35842  22509599.339    22509594.779
  21072843.101   -22700809.01344 -17678995.80242  21072844.857    21072839.451
  22484236.677    -9908435.21443  -7711516.10142  22484238.710    22484234.849
 03  6  6  1  1  0.0000000  0  6G 2G16G25G11G20G 1
  23446873.792    -9908064.86443  -7584841.90642  23446875.914    23446876.086
  23020162.155   -12151057.60843  -9443059.39342  23020164.436    23020161.175
  21542699.267   -20382823.24743 -15872563.39842  21542701.353    21542695.877
  22523097.534   -14196428.95543 -11051593.13542  22523099.665    22523095.068
  21061386.261   -22761015.09844 -17725909.62742  21061388.018    21061382.601
  22473568.240    -9964498.00843  -7755201.35742  22473570.273    22473566.402
 03  6  6  1  1 30.0000000  0  6G 2G16G25G11G20G 1
  23431119.433    -9990853.53243  -7649352.36042  23431121.563    23431121.765
  23004655.274   -12232546.91143  -9506557.44742  23004657.513    23004654.146
  21554665.093   -20319942.52243 -15823565.45042  21554667.193    21554661.715
  22536653.689   -14125190.94743 -10996083.06942  22536655.886    22536651.266
  21049994.227   -22820880.33544 -17772557.85642  21049995.994    21049990.612
  22462922.757   -10020440.65143  -7798792.99942  22462924.711    22462920.807
 03  6  6  1  2  0.0000000  0  6G 2G16G25G11G20G 1
  23415388.000   -10073522.37243  -7713769.42342  23415390.074    23415390.221
  22989192.988   -12313800.98243  -9569872.20342  22989195.184    22989191.936
  21566688.405   -20256759.72743 -15774332.12142  21566690.527    21566685.014
  22550266.619   -14053654.65543 -10940340.57542  22550268.812    22550264.264
  21038668.915   -22880395.25644 -17818933.11642  21038670.691    21038665.294
  22452301.322   -10076256.30343  -7842285.66342  22452303.361    22452299.429
 03  6  6  1  2 30.0000000  0  6G 2G16G25G11G20G 1
  23399678.849   -10156073.70143  -7778094.90642  23399680.907    23399681.019
  22973775.125   -12394821.49343  -9633004.96542  22973777.280    22973774.177
  21578767.858   -20193281.65643 -15724868.70242  21578770.019    21578764.520
  22563934.909   -13981827.88243 -10884371.73342  22563937.030    22563932.598
  21027409.812   -22939562.46344 -17865037.42842  21027411.555    21027406.161
  22441703.111   -10131950.02043  -7885683.32442  22441705.211    22441701.247
 03  6  6  1  3  0.0000000  0  6G 2G16G25G11G20G 1
  23383993.239   -10238501.14143  -7842323.87642  23383995.383    23383995.456
  22958403.122   -12475601.68843  -9695950.46742  22958405.247    22958402.042
  21590903.793   -20129506.97043 -15675174.15742  21590905.936    21590900.439
  22577658.561   -13909709.70143 -10828175.81942  22577660.737    22577656.308
  21016217.969   -22998376.08344 -17910866.21242  21016219.724    21016214.327
  22431128.809   -10187518.26543  -7928983.21842  22431130.876    22431126.937
 03  6  6  1  3 30.0000000  0  6G 2G16G25G11G20G 1
  23368331.273   -10320804.95843  -7906456.52442  23368333.374    23368333.266
  22943076.819   -12556141.89643  -9758708.96442  22943078.934    22943075.600
  21603095.194   -20065440.96643 -15625252.60742  21603097.302    21603091.799
  22591436.562   -13837306.03843 -10771757.44042  22591438.710    22591434.342
  21005093.289   -23056836.82744 -17956420.03342  21005095.040    21005089.612
  22420577.724   -10242964.14143  -7972187.76042  22420579.773    22420575.885
 03  6  6  1  4  0.0000000  0  6G 2G16G25G11G20G 1
  23352692.368   -10402987.10243  -7970494.33942  23352694.539    23352694.346
  22927795.982   -12636442.93143  -9821281.09142  22927798.105    22927794.790
  21615340.810   -20001089.82943 -15575108.87742  21615342.949    21615337.428
  22605267.483   -13764623.82943 -10715122.03342  22605269.634    22605265.424
  20994035.280   -23114946.92244 -18001700.61742  20994037.043    20994031.631
  22410049.143   -10298292.23843  -8015300.52842  22410051.123    22410047.305
 03  6  6  1  4 30.0000000  0  6G 2G16G25G11G20G 1
  23337079.112   -10485033.91743  -8034426.72142  23337081.382    23337081.141
  22912563.311   -12716490.99843  -9883656.12342  22912565.435    22912562.036
  21627642.367   -19936444.64543 -15524736.02542  21627644.527    21627639.004
  22619153.089   -13691654.93743 -10658263.23542  22619155.229    22619150.991
  20983046.543   -23172692.99144 -18046697.54742  20983048.300    20983042.926
  22399544.995   -10353491.75843  -8058313.11242  22399546.937    22399543.205
 03  6  6  1  5  0.0000000  0  6G 2G16G25G11G20G 1
  23321490.322   -10566952.82743  -8098259.43642  23321492.546    23321492.295
  22897377.356   -12796293.09043  -9945839.45742  22897379.565    22897376.127
  21639997.580   -19871517.86443 -15474143.74442  21639999.692    21639994.232
  22633090.850   -13618412.19743 -10601191.03742  22633092.943    22633088.624
  20972125.505   -23230083.13344 -18091417.12542  20972127.270    20972121.922
  22389063.345   -10408572.85043  -8101233.39842  22389065.329    22389061.638
 03  6  6  1  5 30.0000000  0  6G 2G16G25G11G20G 1
  23305927.126   -10648737.73043  -8161987.74642  23305929.265    23305928.900
  22882239.512   -12875842.67343 -10007826.04842  22882241.716    22882238.161
  21652406.584   -19806308.04643 -15423330.91142  21652408.707    21652403.306
  22647080.715   -13544895.22743 -10543905.15542  22647082.785    22647078.432
  20961273.428   -23287111.36844 -18135854.69842  20961275.151    20961269.822
  22378604.974   -10463532.34043  -8144058.94642  22378606.927    22378603.130
 03  6  6  1  6  0.0000000  0  6G 2G16G25G11G20G 1
  23290390.140   -10730384.22543  -8225608.19642  23290392.350    23290391.972
  22867150.777   -12955134.83343 -10069612.05542  22867152.947    22867149.274
  21664869.460   -19740815.40243 -15372297.69942  21664871.593    21664866.164
  22661122.626   -13471104.78143 -10486406.16642  22661124.699    22661120.368
  20950490.953   -23343773.62144 -18180007.09042  20950492.693    20950487.345
  22368170.004   -10518368.26443  -8186788.20542  22368171.985    22368168.132
 03  6  6  1  6 30.0000000  0  6G 2G16G25G11G20G 1
  23274879.815   -10811890.74343  -8289119.57842  23274881.965    23274881.626
  22852111.077   -13034167.68043 -10131195.96142  22852113.395    22852109.712
  21677385.423   -19675043.41143 -15321046.81442  21677387.584    21677382.179
  22675215.751   -13397044.86843 -10428697.21942  22675217.863    22675213.562
  20939778.318   -23400068.79044 -18223873.43942  20939780.081    20939774.708
  22357758.284   -10573082.01143  -8229422.26142  22357760.275    22357756.411
 03  6  6  1  7  0.0000000  0  6G 2G16G25G11G20G 1
  23259395.993   -10893257.34943  -8352521.93242  23259398.172    23259397.852
  22837121.049   -13112940.85743 -10192577.56242  22837123.342    22837119.508
  21689953.653   -19608996.72843 -15269581.88642  21689955.810    21689950.466
  22689359.185   -13322720.83843 -10370782.46642  22689361.250    22689356.942
  20929135.428   -23455997.36944 -18267454.13042  20929137.187    20929131.841
  22347369.385   -10627676.23043  -8271963.18242  22347371.339    22347367.441
 03  6  6  1  7 30.0000000  0  6G 2G16G25G11G20G 1
  23243940.159   -10974477.34243  -8415810.04342  23243942.303    23243942.018
  22822181.622   -13191447.34043 -10253751.34742  22822183.918    22822180.093
  21702574.583   -19542673.54043 -15217901.49342  21702576.692    21702571.351
  22703553.105   -13248131.65643 -10312661.10342  22703555.134    22703550.859
  20918563.528   -23511552.98144 -18310744.19642  20918565.281    20918559.960
  22337003.910   -10682147.18643  -8314408.05242  22337005.886    22337001.946
 03  6  6  1  8  0.0000000  0  6G 2G16G25G11G20G 1
  23228512.603   -11055549.67543  -8478983.10742  23228514.631    23228514.249
  22807293.397   -13269685.47743 -10314716.02842  22807295.634    22807291.809
  21715247.346   -19476077.53043 -15166008.50842  21715249.486    21715244.113
  22717796.741   -13173281.49743 -10254336.37042  22717798.755    22717794.456
  20908062.691   -23566735.09844 -18353743.22642  20908064.427    20908059.120
  22326661.440   -10736496.54443  -8356758.16442  22326663.459    22326659.608
 03  6  6  1  8 30.0000000  0  6G 2G16G25G11G20G 1
  23213113.993   -11136468.55143  -8542036.59842  23213116.036    23213115.745
  22792457.148   -13347649.07943 -10375466.76942  22792459.412    22792455.752
  21727972.263   -19409207.71743 -15113902.18142  21727974.357    21727969.027
  22732090.121   -13098170.07443 -10195808.08042  22732092.141    22732087.759
  20897634.014   -23621538.18844 -18396446.91442  20897635.743    20897630.436
  22316342.858   -10790721.26143  -8399011.16242  22316344.818    22316340.920
 03  6  6  1  9  0.0000000  0  6G 2G16G25G11G20G 1
  23197743.434   -11217241.31043  -8604976.22642  23197745.435    23197744.933
  22777672.049   -13425345.31543 -10436009.19642  22777674.259    22777670.581
  21740746.972   -19342076.17143 -15061591.89742  21740749.116    21740743.759
  22746430.631   -13022810.53743 -10137086.43642  22746432.728    22746428.299
  20887275.865   -23675970.33744 -18438861.55842  20887277.631    20887272.325
  22306046.004   -10844831.53943  -8441174.97742  22306047.947    22306044.034
 03  6  6  1  9 30.0000000  0  6G 2G16G25G11G20G 1
  23182402.495   -11297857.15943  -8667793.58742  23182404.570    23182404.062
  22762939.934   -13502762.76243 -10496334.37042  22762942.120    22762938.524
  21753572.735   -19274676.43443 -15009072.63742  21753574.925    21753569.508
  22760819.459   -12947197.32443 -10078167.12542  22760821.488    22760817.124
  20876990.387   -23730020.63344 -18480978.65742  20876992.161    20876986.848
  22295772.506   -10898819.14843  -8483243.20842  22295774.415    22295770.459
 03  6  6  1 10  0.0000000  0  6G 2G16G25G11G20G 1
  23167092.542   -11378310.69443  -8730484.47242  23167094.609    23167094.015
  22748262.049   -13579895.64343 -10556437.81742  22748264.176    22748260.494
  21766449.595   -19207008.34643 -14956344.26842  21766451.736    21766446.299
  22775256.542   -12871330.15743 -10019049.92842  22775258.566    22775254.220
  20866778.503   -23783684.38444 -18522794.54942  20866780.260    20866774.927
  22285522.770   -10952681.47743  -8525213.81842  22285524.739    22285520.739
 03  6  6  1 10 30.0000000  0  6G 2G16G25G11G20G 1
  23151812.216   -11458608.52643  -8793054.03442  23151814.270    23151813.669
  22733636.966   -13656750.20543 -10616324.37742  22733639.159    22733635.524
  21779375.315   -19139083.25043 -14903415.63542  21779377.442    21779372.009
  22789739.611   -12795221.57443  -9959744.62942  22789741.612    22789737.273
  20856638.835   -23836968.53144 -18564314.65042  20856640.590    20856635.264
  22275295.137   -11006427.87543  -8567094.09142  22275297.124    22275293.086
 03  6  6  1 11  0.0000000  0  6G 2G16G25G11G20G 1
  23136563.762   -11538739.05143  -8855493.21642  23136565.761    23136565.150
  22719067.259   -13733314.46643 -10675984.74742  22719069.459    22719065.735
  21792351.289   -19070894.11743 -14850281.26642  21792353.381    21792347.987
  22804269.802   -12718865.19643  -9900246.24642  22804271.787    22804267.544
  20846573.529   -23889861.93444 -18605530.27442  20846575.267    20846569.983
  22265091.263   -11060049.40543  -8608877.05242  22265093.231    22265089.223
 03  6  6  1 11 30.0000000  0  6G 2G16G25G11G20G 1
  23121346.330   -11618706.02543  -8917804.95042  23121348.361    23121347.755
  22704552.154   -13809591.69143 -10735421.45442  22704554.314    22704550.512
  21805375.902   -19002449.29843 -14796947.65242  21805378.015    21805372.626
  22818845.408   -12642270.15343  -9840561.87442  22818847.411    22818843.225
  20836581.835   -23942368.82344 -18646444.72042  20836583.551    20836578.259
  22254909.883   -11113552.63343  -8650567.84142  22254911.848    22254907.837
 03  6  6  1 12  0.0000000  0  6G 2G16G25G11G20G 1
  23106161.511   -11698502.04243  -8979983.49242  23106163.548    23106162.952
  22690093.078   -13885574.19343 -10794628.51142  22690095.247    22690091.455
  21818449.639   -18933746.22843 -14743412.81342  21818451.738    21818446.418
  22833466.734   -12565434.83943  -9780690.29442  22833468.767    22833464.644
  20826665.044   -23994482.07644 -18687052.43642  20826666.751    20826661.440
  22244751.916   -11166932.83943  -8692162.76942  22244753.883    22244749.882
 03  6  6  1 12 30.0000000  0  6G 2G16G25G11G20G 1
  23091008.325   -11778131.53443  -9042032.26942  23091010.362    23091009.746
  22675689.260   -13961266.08743 -10853609.12242  22675691.397    22675687.617
  21831570.860   -18864794.04243 -14689683.85642  21831572.938    21831567.629
  22848131.892   -12488369.16343  -9720639.18742  22848133.943    22848129.803
  20816822.215   -24046206.66544 -18727357.30042  20816823.921    20816818.561
  22234616.037   -11220197.17943  -8733667.39642  22234617.976    22234613.944
 03  6  6  1 13  0.0000000  0  6G 2G16G25G11G20G 1
  23075888.799   -11857584.46743  -9103943.45242  23075890.831    23075890.154
  22661342.842   -14036657.07743 -10912355.25842  22661344.944    22661341.158
  21844740.473   -18795587.40643 -14635756.62042  21844742.572    21844737.265
  22862841.733   -12411068.50343  -9660404.98742  22862843.806    22862839.674
  20807055.077   -24097533.07044 -18767351.89042  20807056.824    20807051.449
  22224503.551   -11273338.42443  -8775076.11342  22224505.530    22224501.444
 03  6  6  1 13 30.0000000  0  6G 2G16G25G11G20G 1
  23060802.855   -11936861.05143  -9165717.25142  23060804.876    23060804.114
  22647053.638   -14111746.74743 -10970866.59642  22647055.787    22647051.913
  21857957.476   -18726131.62743 -14581635.25042  21857959.556    21857954.298
  22877595.109   -12333538.63443  -9599992.19842  22877597.238    22877593.126
  20797363.663   -24148461.65544 -18807036.48942  20797365.414    20797360.051
  22214413.986   -11326359.46243  -8816391.15842  22214415.961    22214411.841
 03  6  6  1 14  0.0000000  0  6G 2G16G25G11G20G 1
  23045750.448   -12015961.11343  -9227353.49242  23045752.466    23045751.663
  22632821.893   -14186534.63443 -11029142.77542  22632824.082    22632820.105
  21871221.136   -18656430.94543 -14527323.04842  21871223.180    21871217.924
  22892391.374   -12255784.45043  -9539404.60842  22892393.470    22892389.399
  20787747.879   -24198992.83944 -18846411.42542  20787749.614    20787744.278
  22204346.837   -11379262.67443  -8857614.39842  22204348.808    22204344.652
 03  6  6  1 14 30.0000000  0  6G 2G16G25G11G20G 1
  23030732.861   -12094878.62143  -9288847.47642  23030734.883    23030734.039
  22618648.878   -14261014.24143 -11087178.75142  22618651.027    22618647.041
  21884531.587   -18586484.13443 -14472819.05642  21884533.651    21884528.422
  22907230.512   -12177805.52743  -9478641.90542  22907232.463    22907228.412
  20778208.809   -24249120.91544 -18885472.25342  20778210.530    20778205.197
  22194302.665   -11432044.75543  -8898743.24342  22194304.645    22194300.530
 03  6  6  1 15  0.0000000  0  6G 2G16G25G11G20G 1
  23015750.166   -12173613.21143  -9350198.94542  23015752.183    23015751.102
  22604534.628   -14335184.89843 -11144973.98142  22604536.803    22604532.745
  21897888.009   -18516295.47143 -14418126.60942  21897890.087    21897884.915
  22922111.141   -12099607.01643  -9417708.09942  22922113.131    22922109.155
  20768746.415   -24298846.04244 -18924219.09242  20768748.142    20768742.803
  22184281.067   -11484708.09543  -8939779.57342  22184283.097    22184278.989
 03  6  6  1 15 30.0000000  0  6G 2G16G25G11G20G 1
  23000804.238   -12252153.78343  -9411399.22842  23000806.290    23000805.145
  22590481.246   -14409035.24443 -11202519.61642  22590483.410    22590479.338
  21911291.711   -18445858.55543 -14363240.71742  21911293.774    21911288.591
  22937034.720   -12021183.43843  -9356598.89142  22937036.743    22937032.723
  20759362.804   -24348157.46244 -18962643.56042  20759364.493    20759359.124
  22174283.684   -11537244.23843  -8980716.78442  22174285.746    22174281.651
 03  6  6  1 16  0.0000000  0  6G 2G16G25G11G20G 1
  22985892.993   -12330512.20143  -9472457.56842  22985895.010    22985893.865
  22576486.669   -14482576.84243 -11259824.66442  22576488.808    22576484.694
  21924739.495   -18375190.09143 -14308174.39442  21924741.560    21924736.348
  22951997.806   -11942552.13743  -9295327.84842  22951999.844    22951995.890
  20750055.441   -24397067.71644 -19000755.43142  20750057.197    20750051.771
  22164307.813   -11589667.73243  -9021566.21442  22164309.805    22164305.726
 03  6  6  1 16 30.0000000  0  6G 2G16G25G11G20G 1
  22971018.516   -12408678.02743  -9533365.84442  22971020.480    22971019.223
  22562552.793   -14555798.81243 -11316880.65642  22562554.951    22562550.870
  21938232.488   -18304283.79643 -14252922.75642  21938234.550    21938229.408
  22967001.344   -11863708.05143  -9233890.98442  22967003.415    22966999.428
  20740826.446   -24445566.52944 -19038546.70142  20740828.185    20740822.739
  22154354.875   -11641970.73343  -9062321.75942  22154356.858    22154352.717
 03  6  6  1 17  0.0000000  0  6G 2G16G25G11G20G 1
  22956180.975   -12486648.73843  -9594122.05942  22956182.963    22956181.745
  22548680.425   -14628698.22043 -11373685.30842  22548682.546    22548678.516
  21951770.300   -18233142.26743 -14197487.81642  21951772.327    21951767.176
  22982044.894   -11784654.13243  -9172290.62442  22982046.924    22982042.912
  20731676.097   -24493651.92544 -19076015.82342  20731677.829    20731672.409
  22144424.801   -11694153.37043  -9102983.51642  22144426.816    22144422.661
 03  6  6  1 17 30.0000000  0  6G 2G16G25G11G20G 1
  22941380.559   -12564424.91443  -9654726.71842  22941382.577    22941381.264
  22534869.369   -14701275.43443 -11430238.90942  22534871.458    22534867.491
  21965351.844   -18161770.86543 -14141873.75642  21965353.839    21965348.698
  22997127.336   -11705396.28943  -9110531.33642  22997129.328    22997125.263
  20722604.192   -24541325.03944 -19113163.68842  20722605.932    20722600.522
  22134517.072   -11746218.88443  -9143554.01242  22134519.091    22134514.951
 03  6  6  1 18  0.0000000  0  6G 2G16G25G11G20G 1
  22926618.300   -12642000.53543  -9715175.10042  22926620.318    22926618.909
  22521120.906   -14773523.70843 -11486536.19342  22521123.010    22521118.974
  21978977.405   -18090168.06843 -14086079.38642  21978979.412    21978974.264
  23012248.487   -11625933.86943  -9048612.65142  23012250.635    23012246.580
  20713611.794   -24588580.14844 -19149985.83542  20713613.564    20713608.158
  22124632.274   -11798163.78243  -9184030.52942  22124634.288    22124630.148
 03  6  6  1 18 30.0000000  0  6G 2G16G25G11G20G 1
  22911895.113   -12719370.81043  -9775463.46042  22911897.161    22911895.614
  22507436.071   -14845438.03343 -11542573.26042  22507438.196    22507433.999
  21992646.978   -18018333.77043 -14030104.62542  21992649.031    21992643.917
  23027408.452   -11546267.81843  -8986535.31142  23027410.539    23027406.638
  20704699.762   -24635412.82244 -19186478.81542  20704701.545    20704696.177
  22114770.817   -11849985.86243  -9224411.33842  22114772.838    22114768.688
 03  6  6  1 19  0.0000000  0  6G 2G16G25G11G20G 1
  22897210.594   -12796537.76043  -9835593.40342  22897212.672    22897211.047
  22493814.270   -14917020.37743 -11598351.61442  22493816.405    22493812.256
  22006359.298   -17946274.84643 -13973954.83342  22006361.408    22006356.253
  23042605.703   -11466405.61043  -8924305.10842  23042607.754    23042604.040
  20695867.616   -24681825.86144 -19222644.80442  20695869.376    20695864.038
  22104931.799   -11901690.10543  -9264700.31142  22104933.813    22104929.640
 03  6  6  1 19 30.0000000  0  6G 2G16G25G11G20G 1
  22882565.168   -12873499.48743  -9895563.41742  22882567.206    22882565.583
  22480256.174   -14988268.26743 -11653869.37642  22480258.303    22480254.173
  22020113.917   -17873993.83243 -13917631.98242  22020116.016    22020110.847
  23057839.714   -11386350.57043  -8861924.64242  23057841.718    23057838.099
  20687115.676   -24727817.57744 -19258482.49342  20687117.429    20687112.094
  22095115.060   -11953277.13243  -9304897.96842  22095117.098    22095112.901
 03  6  6  1 20  0.0000000  0  6G 2G16G25G11G20G 1
  22867960.464   -12950247.22543  -9955366.70742  22867962.465    22867960.765
  22466763.423   -15059172.76443 -11709119.56742  22466765.559    22466761.472
  22033911.599   -17801486.72843 -13861132.95242  22033913.674    22033908.490
  23073110.991   -11306099.62943  -8799391.54842  23073113.036    23073109.424
  20678445.490   -24773379.83544 -19293985.53742  20678447.224    20678441.886
  22085321.718   -12004740.97343  -9344999.62642  22085323.790    22085319.647
 03  6  6  1 20 30.0000000  0  6G 2G16G25G11G20G 1
  22853395.491   -13026785.84143 -10015007.04142  22853397.540    22853395.773
  22453335.211   -15129738.21643 -11764105.55642  22453337.323    22453333.233
  22047750.577   -17728762.47843 -13804464.72242  22047752.643    22047747.491
  23088417.719   -11225663.11143  -8736713.82242  23088419.695    23088416.041
  20669856.072   -24818517.78144 -19329157.95042  20669857.779    20669852.419
  22075550.523   -12056088.90343  -9385010.97142  22075552.532    22075548.439
 03  6  6  1 21  0.0000000  0  6G 2G16G25G11G20G 1
  22838871.625   -13103108.97543 -10074479.47342  22838873.648    22838871.741
  22439972.793   -15199958.22043 -11818822.36542  22439974.856    22439970.759
  22061631.180   -17655819.49843 -13747626.05442  22061633.232    22061628.083
  23103759.877   -11145039.80743  -8673890.55042  23103761.843    23103758.288
  20661348.431   -24863225.63344 -19363995.22542  20661350.175    20661344.795
  22065802.172   -12107317.05443  -9424928.97442  22065804.121    22065800.012
 03  6  6  1 21 30.0000000  0  6G 2G16G25G11G20G 1
  22824389.166   -13179213.79043 -10133781.77442  22824391.210    22824389.362
  22426676.733   -15269829.29643 -11873267.29342  22426678.769    22426674.645
  22075552.910   -17582660.30743 -13690618.90942  22075554.993    22075549.810
  23119137.144   -11064232.61543  -8610924.01442  23119139.079    23119135.535
  20652923.060   -24907501.04944 -19398495.53542  20652924.844    20652919.456
  22056076.515   -12158425.32143  -9464753.55642  22056078.513    22056074.401
 03  6  6  1 22  0.0000000  0  7G 2G16G25G11G20G 1G13
  22809947.286   -13255105.86743 -10192918.32342  22809949.290    22809947.501
  22413446.051   -15339356.97443 -11927444.64342  22413448.065    22413443.901
  22089513.911   -17509294.68243 -13633450.90542  22089516.028    22089510.843
  23134547.300   -10983252.38843  -8547822.63042  23134549.190    23134545.697
  20644578.888   -24951349.93744 -19432663.48342  20644580.669    20644575.300
  22046372.181   -12209421.78743  -9504491.01642  22046374.173    22046370.036
  24645922.562    -3337848.89653  -2574223.73952  24645925.447    24645922.305
 03  6  6  1 22 30.0000000  0  7G 2G16G25G11G20G 1G13
  22795549.369   -13330766.86743 -10251874.81342  22795551.407    22795549.610
  22400284.348   -15408522.37043 -11981339.68642  22400286.343    22400282.112
  22103516.905   -17435708.64743 -13576111.15442  22103518.966    22103513.813
  23149992.737   -10902086.06643  -8484576.23642  23149994.715    23149991.193
  20636319.249   -24994754.56844 -19466485.25742  20636321.027    20636315.653
  22036692.118   -12260290.63943  -9544129.04342  22036694.139    22036690.006
  24631360.665    -3414371.96043  -2633851.96642  24631363.432    24631360.275
 03  6  6  1 23  0.0000000  0  7G 2G16G25G11G20G 1G13
  22781194.537   -13406201.76443 -10310655.12142  22781196.568    22781194.749
  22387190.545   -15477330.56143 -12034956.39242  22387192.578    22387188.275
  22117559.909   -17361912.28443 -13518607.50942  22117562.011    22117556.859
  23165471.604   -10820744.61143  -8421193.38342  23165473.607    23165469.973
  20628143.084   -25037720.53444 -19499965.22142  20628144.858    20628139.465
  22027034.893   -12311039.63343  -9583673.66942  22027036.921    22027032.734
  24616805.393    -3490859.89743  -2693452.82542  24616808.102    24616805.004
 03  6  6  1 23 30.0000000  0  7G 2G16G25G11G20G 1G13
  22766882.643   -13481410.82843 -10369259.44142  22766884.669    22766882.813
  22374164.665   -15545781.09843 -12088294.40242  22374166.750    22374162.513
  22131642.125   -17287909.89043 -13460943.31542  22131644.251    22131639.070
  23180982.713   -10739233.42043  -8357678.24942  23180984.710    23180981.163
  20620050.342   -25080248.25644 -19533103.69342  20620052.124    20620046.657
  22017400.000   -12361671.35643  -9623126.92142  22017402.027    22017397.799
  24602256.412    -3567315.47043  -2753028.47142  24602259.111    24602255.851
 03  6  6  1 24  0.0000000  0  7G 2G16G25G11G20G 1G13
  22752614.341   -13556390.98543 -10427685.39942  22752616.327    22752614.418
  22361207.584   -15613870.70143 -12141351.16742  22361209.646    22361205.406
  22145763.223   -17213703.08743 -13403119.84642  22145765.371    22145760.201
  23196525.709   -10657554.70743  -8294032.60442  23196527.737    23196524.236
  20612041.429   -25122335.38344 -19565898.84742  20612043.195    20612037.713
  22007787.587   -12412185.20943  -9662488.32842  22007789.565    22007785.264
  24587713.465    -3643738.24643  -2812578.54742  24587716.361    24587713.028
 03  6  6  1 24 30.0000000  0  7G 2G16G25G11G20G 1G13
  22738390.629   -13631136.66743 -10485928.66942  22738392.568    22738390.642
  22348320.261   -15681593.69243 -12194122.26142  22348322.289    22348318.011
  22159923.433   -17139290.92043 -13345136.35742  22159925.565    22159920.403
  23212100.672   -10575708.39043  -8230256.36142  23212102.655    23212099.091
  20604117.289   -25163976.88944 -19598346.76442  20604119.056    20604113.554
  21998198.036   -12462578.10543  -9701755.48342  21998200.040    21998195.765
  24573177.319    -3720125.12443  -2872100.63642  24573180.403    24573176.919
 03  6  6  1 25  0.0000000  0  7G 2G16G25G11G20G 1G13
  22724211.663   -13705647.00343 -10543988.53842  22724213.607    22724211.661
  22335502.942   -15748948.89043 -12246606.77742  22335504.930    22335500.661
  22174121.891   -17064677.50543 -13286996.04442  22174124.035    22174118.871
  23227706.659   -10493699.05043  -8166353.08142  23227708.581    23227705.043
  20596278.067   -25205172.48644 -19630447.21942  20596279.802    20596274.275
  21988631.231   -12512851.88643  -9740929.82542  21988633.220    21988628.899
  24558647.803    -3796477.93943  -2931596.20842  24558650.878    24558647.442
 03  6  6  1 25 30.0000000  0  7G 2G16G25G11G20G 1G13
  22710078.087   -13779919.01943 -10601862.71142  22710079.944    22710077.935
  22322756.245   -15815932.95343 -12298802.08542  22322758.168    22322754.016
  22188358.409   -16989864.08543 -13228699.89642  22188360.592    22188355.393
  23243343.069   -10411529.35343  -8102324.82842  23243345.085    23243341.383
  20588524.141   -25245919.76144 -19662198.33342  20588525.877    20588520.310
  21979087.245   -12563006.15043  -9780011.02442  21979089.205    21979084.826
  24544124.809    -3872796.19143  -2991064.84442  24544127.858    24544124.310
 03  6  6  1 26  0.0000000  0  7G 2G16G25G11G20G 1G13
  22695989.580   -13853953.72243 -10659551.97442  22695991.472    22695989.406
  22310080.065   -15882546.68443 -12350708.82442  22310082.006    22310077.862
  22202631.980   -16914856.27343 -13170252.26042  22202634.115    22202628.888
  23259008.836   -10329205.35243  -8038176.34342  23259010.921    23259007.224
  20580855.184   -25286220.06244 -19693601.15142  20580856.966    20580851.395
  21969565.199   -12613044.50943  -9819001.92442  21969567.203    21969562.753
  24529607.726    -3949083.67143  -3050509.51642  24529610.671    24529607.181
 03  6  6  1 26 30.0000000  0  7G 2G16G25G11G20G 1G13
  22681948.174   -13927741.47743 -10717048.80442  22681950.025    22681947.907
  22297476.290   -15948780.21343 -12402319.31042  22297478.269    22297473.942
  22216943.544   -16839648.65743 -13111648.94542  22216945.655    22216940.420
  23274704.677   -10246723.08043  -7973904.52842  23274706.835    23274703.164
  20573273.086   -25326064.17244 -19724648.50142  20573274.864    20573269.300
  21960066.599   -12662959.76643  -9857896.88842  21960068.594    21960064.141
  24515097.988    -4025333.11743  -3109924.56442  24515100.959    24515097.360
 03  6  6  1 27  0.0000000  0  7G 2G16G25G11G20G 1G13
  22667953.403   -14001283.92843 -10774354.48442  22667955.271    22667953.102
  22284944.660   -16014634.82543 -12453634.53142  22284946.619    22284942.161
  22231291.907   -16764247.64143 -13052894.92342  22231293.991    22231288.715
  23290429.412   -10164089.47943  -7909514.83542  23290431.431    23290428.025
  20565777.335   -25365454.43344 -19755342.20042  20565779.116    20565773.574
  21950590.650   -12712755.98443  -9896699.10042  21950592.648    21950588.176
  24500594.668    -4101548.21643  -3169312.77342  24500597.518    24500593.887
 03  6  6  1 27 30.0000000  0  7G 2G16G25G11G20G 1G13
  22654005.193   -14074581.61543 -10831469.43742  22654007.109    22654004.969
  22272484.908   -16080110.65243 -12504654.60042  22272486.896    22272482.386
  22245676.033   -16688658.26543 -12993994.13342  22245678.133    22245672.938
  23306181.920   -10081310.22843  -7845011.64842  23306183.877    23306180.516
  20558367.813   -25404391.72044 -19785682.93142  20558369.574    20558364.063
  21941136.792   -12762436.10743  -9935410.85242  21941138.793    21941134.285
  24486097.182    -4177732.41843  -3228677.00142  24486100.148    24486096.556
 03  6  6  1 28  0.0000000  0  7G 2G16G25G11G20G 1G13
  22640105.279   -14147625.44943 -10888386.59542  22640107.218    22640105.122
  22260099.031   -16145198.54043 -12555372.36842  22260101.007    22260096.492
  22260096.923   -16612876.07443 -12934943.09642  22260099.021    22260093.800
  23321962.894    -9998381.70743  -7780392.09842  23321964.831    23321961.372
  20551046.085   -25442867.64344 -19815664.16342  20551047.843    20551042.334
  21931706.344   -12811993.48043  -9974026.96042  21931708.323    21931703.812
  24471606.808    -4253879.02743  -3288011.86842  24471609.706    24471606.036
 03  6  6  1 28 30.0000000  0  7G 2G16G25G11G20G 1G13
  22626253.148   -14220418.51843 -10945108.34342  22626255.096    22626252.974
  22247786.402   -16209901.33943 -12605790.06342  22247788.401    22247783.895
  22274553.083   -16536908.47143 -12875747.58442  22274555.176    22274550.007
  23337770.524    -9915312.49743  -7715662.94442  23337772.522    23337769.062
  20543811.439   -25480885.82944 -19845288.71242  20543813.185    20543807.697
  21922298.128   -12861433.77743 -10012551.82842  21922300.125    21922295.628
  24457122.576    -4329993.62443  -3347321.83142  24457125.486    24457121.814
 03  6  6  1 29  0.0000000  0  7G 2G16G25G11G20G 1G13
  22612449.560   -14292956.49543 -11001631.32742  22612451.475    22612449.278
  22235547.958   -16274214.33043 -12655904.02342  22235549.966    22235545.448
  22289044.543   -16460755.22243 -12816407.40442  22289046.662    22289041.498
  23353604.658    -9832103.41943  -7650824.79042  23353606.699    23353603.357
  20536664.683   -25518442.26444 -19874553.45642  20536666.431    20536660.942
  21912912.665   -12910754.95543 -10050983.88642  21912914.632    21912910.080
  24442644.650    -4406074.57243  -3406605.52942  24442647.665    24442643.591
 03  6  6  1 29 30.0000000  0  7G 2G16G25G11G20G 1G13
  22598695.366   -14365234.81843 -11057951.98342  22598697.284    22598695.051
  22223384.682   -16338132.76943 -12705710.53242  22223386.660    22223382.142
  22303571.313   -16384416.52643 -12756922.73442  22303573.400    22303568.298
  23369465.200    -9748755.42843  -7585878.40542  23369467.353    23369464.086
  20529606.513   -25555533.05644 -19903455.36442  20529608.291    20529602.808
  21903550.142   -12959955.05143 -10089321.58942  21903552.134    21903547.610
  24428173.651    -4482119.69443  -3465861.36142  24428176.620    24428172.465
 03  6  6  1 30  0.0000000  0  7G 2G16G25G11G20G 1G13
  22584989.881   -14437257.05243 -11114073.08742  22584991.822    22584989.479
  22211295.745   -16401660.14943 -12755212.31942  22211297.763    22211293.231
  22318131.963   -16307900.49243 -12697299.86542  22318133.972    22318128.813
  23385350.507    -9665277.38943  -7520830.66242  23385352.695    23385349.429
  20522636.128   -25592162.68644 -19931997.92142  20522637.911    20522632.419
  21894209.495   -13009040.15243 -10127569.68742  21894211.514    21894207.021
  24413708.160    -4558135.14043  -3525094.05442  24413711.249    24413707.212
 03  6  6  1 30 30.0000000  0  7G 2G16G25G11G20G 1G13
  22571335.143   -14509012.96143 -11169986.67442  22571337.076    22571334.679
  22199283.225   -16464786.01443 -12804401.23742  22199285.252    22199280.737
  22332727.262   -16231201.68843 -12637534.58742  22332729.283    22332724.101
  23401261.499    -9581664.83743  -7455678.10242  23401263.625    23401260.405
  20515755.398   -25628321.20044 -19960173.37342  20515757.158    20515751.664
  21884892.270   -13058002.34243 -10165722.00642  21884894.276    21884889.838
  24399249.848    -4634113.12143  -3584297.51142  24399252.694    24399249.032
 03  6  6  1 31  0.0000000  0  7G 2G16G25G11G20G 1G13
  22557730.282   -14580506.16243 -11225695.54342  22557732.248    22557729.813
  22187346.447   -16527513.56843 -12853279.76942  22187348.491    22187344.025
  22347355.902   -16154327.71243 -12577632.80142  22347357.972    22347352.731
  23417196.530    -9497926.22343  -7390427.32742  23417198.630    23417195.402
  20508963.535   -25664012.64344 -19987984.87442  20508965.298    20508959.774
  21875597.315   -13106847.47243 -10203783.11542  21875599.350    21875594.905
  24384797.727    -4710059.39843  -3643476.32642  24384800.632    24384796.734
 03  6  6  1 31 30.0000000  0  7G 2G16G25G11G20G 1G13
  22544176.465   -14651731.41443 -11281195.62842  22544178.396    22544175.966
  22175486.573   -16589837.16443 -12901843.54442  22175488.603    22175484.124
  22362018.088   -16077277.84643 -12517593.97842  22362020.172    22362014.919
  23433155.468    -9414061.52543  -7325078.31342  23433157.492    23433154.307
  20502261.505   -25699232.17244 -20015428.65342  20502263.246    20502257.689
  21866325.236   -13155572.51843 -10241750.65242  21866327.238    21866322.820
  24370352.003    -4785971.20943  -3702628.24442  24370354.927    24370351.187
 03  6  6  1 32  0.0000000  0  7G 2G16G25G11G20G 1G13
  22530674.744   -14722683.07343 -11336482.53042  22530676.667    22530674.193
  22163704.689   -16651751.25043 -12950088.22442  22163706.726    22163702.180
  22376713.861   -16000050.86843 -12457417.12842  22376716.003    22376710.749
  23449138.536    -9330070.70843  -7259631.01342  23449140.570    23449137.342
  20495650.163   -25733974.93944 -20042500.93142  20495651.928    20495646.357
  21857076.589   -13204174.38743 -10279622.20242  21857078.591    21857074.178
  24355913.480    -4861845.59043  -3761751.02242  24355916.404    24355912.511
 03  6  6  1 32 30.0000000  0  7G 2G16G25G11G20G 1G13
  22517224.236   -14793365.64643 -11391559.74842  22517226.142    22517223.626
  22151999.897   -16713260.03143 -12998017.08142  22152001.956    22151997.383
  22391441.744   -15922655.66043 -12397109.19342  22391443.821    22391438.535
  23465143.798    -9245963.65943  -7194093.15342  23465145.771    23465142.548
  20489128.522   -25768246.35644 -20069205.92042  20489130.308    20489124.731
  21847850.086   -13252660.00243 -10317403.17642  21847852.058    21847847.616
  24341480.816    -4937689.37743  -3820849.94942  24341483.613    24341479.878
 03  6  6  1 33  0.0000000  0  7G 2G16G25G11G20G 1G13
  22503825.789   -14863774.41343 -11446423.60742  22503827.694    22503825.177
  22140373.132   -16774358.80343 -13045626.44642  22140375.198    22140370.584
  22406201.607   -15845091.74143 -12336669.79642  22406203.703    22406198.511
  23481170.909    -9161740.92843  -7128465.17842  23481172.922    23481169.705
  20482697.442   -25802042.03544 -20095540.20742  20482699.203    20482693.604
  21838646.052   -13301027.19843 -10355091.86242  21838648.062    21838643.586
  24327054.597    -5013500.53143  -3879923.43042  24327057.336    24327053.311
 03  6  6  1 33 30.0000000  0  7G 2G16G25G11G20G 1G13
  22490480.720   -14933903.11043 -11501069.24042  22490482.580    22490480.058
  22128825.692   -16835040.98143 -13092911.20242  22128827.750    22128823.047
  22420993.949   -15767357.66443 -12276097.80842  22420996.036    22420990.872
  23497220.195    -9077401.28443  -7062746.04742  23497222.257    23497219.048
  20476357.930   -25835356.29544 -20121499.36142  20476359.697    20476354.090
  21829465.416   -13349271.90343 -10392685.10642  21829467.381    21829462.879
  24312635.174    -5089274.93843  -3938968.30042  24312637.895    24312633.859
 03  6  6  1 34  0.0000000  0  7G 2G16G25G11G20G 1G13
  22477188.844   -15003751.99043 -11555496.82542  22477190.717    22477188.231
  22117357.477   -16895306.63043 -13139871.37942  22117359.555    22117354.779
  22435817.795   -15689457.76643 -12215396.61242  22435819.859    22435814.683
  23513290.776    -8992950.48843  -6996940.34642  23513292.819    23513289.595
  20470109.835   -25868190.09344 -20147084.12842  20470111.603    20470106.021
  21820307.501   -13397396.73143 -10430184.93742  21820309.482    21820304.976
  24298222.142    -5165015.29643  -3997986.64242  24298224.843    24298220.959
 03  6  6  1 34 30.0000000  0  7G 2G16G25G11G20G 1G13
  22463950.092   -15073321.50543 -11609706.73342  22463951.961    22463949.494
  22105968.521   -16955155.84043 -13186507.06242  22105970.543    22105965.729
  22450672.347   -15611396.69043 -12154569.81942  22450674.431    22450669.268
  23529381.498    -8908394.12243  -6931052.39242  23529383.489    23529380.309
  20463953.044   -25900544.29244 -20172295.18442  20463954.787    20463949.200
  21811171.969   -13445404.35243 -10467593.44542  21811173.940    21811169.400
  24283814.976    -5240724.28643  -4056980.49742  24283817.784    24283813.901
 03  6  6  1 35  0.0000000  0  7G 2G16G25G11G20G 1G13
  22450765.745   -15142605.50743 -11663694.16642  22450767.585    22450765.089
  22094660.019   -17014582.14543 -13232813.22042  22094662.045    22094657.189
  22465557.942   -15533172.52043 -12093615.94742  22465560.011    22465554.880
  23545492.316    -8823731.24243  -6865081.42142  23545494.316    23545491.224
  20457888.526   -25932413.16743 -20197128.06642  20457890.304    20457884.760
  21802059.511   -13493290.74843 -10504907.49342  21802061.486    21802056.898
  24269414.877    -5316398.07543  -4115947.00642  24269417.516    24269413.353
 03  6  6  1 35 30.0000000  0  7G 2G16G25G11G20G 1G13
  22437635.854   -15211602.90143 -11717458.26142  22437637.705    22437635.216
  22083432.191   -17073584.55543 -13278789.07042  22083434.206    22083429.374
  22480473.880   -15454788.83043 -12032537.75542  22480475.965    22480470.788
  23561622.675    -8738966.06243  -6799030.75242  23561624.607    23561621.662
  20451916.455   -25963796.46144 -20221582.57642  20451918.238    20451912.701
  21792969.820   -13541057.25543 -10542128.12442  21792971.784    21792967.165
  24255021.073    -5392037.91443  -4174887.01942  24255023.846    24255019.486
 03  6  6  1 36  0.0000000  0  7G 2G16G25G11G20G 1G13
  22424561.225   -15280310.13443 -11770996.26442  22424563.081    22424560.575
  22072285.638   -17132159.57343 -13324431.88342  22072287.673    22072282.911
  22495420.048   -15376246.24543 -11971335.76342  22495422.152    22495416.985
  23577771.993    -8654100.39243  -6732901.76042  23577774.041    23577771.189
  20446037.345   -25994691.29644 -20245656.46642  20446039.150    20446033.601
  21783903.097   -13588702.67643 -10579254.39542  21783905.060    21783900.520
  24240633.790    -5467643.03543  -4233799.98742  24240636.626    24240632.182
 03  6  6  1 36 30.0000000  0  7G 2G16G25G11G20G 1G13
  22411542.294   -15348724.74843 -11824306.24942  22411544.135    22411541.569
  22061220.955   -17190304.53943 -13369739.58442  22061222.967    22061218.241
  22510396.071   -15297546.77043 -11910011.52642  22510398.197    22510393.073
  23593940.069    -8569136.92243  -6666696.58942  23593942.037    23593939.235
  20440251.573   -26025095.78244 -20269348.27142  20440253.336    20440247.814
  21774859.512   -13636226.89143 -10616286.22442  21774861.457    21774856.925
  24226253.050    -5543213.14443  -4292685.65642  24226256.021    24226251.684
 03  6  6  1 37  0.0000000  0  7G 2G16G25G11G20G 1G13
  22398579.263   -15416845.63143 -11877387.36342  22398581.086    22398578.479
  22050238.420   -17248017.76643 -13414710.87042  22050240.432    22050235.723
  22525401.434   -15218693.05043 -11848567.08642  22525403.572    22525398.425
  23610126.002    -8484079.64643  -6600418.30542  23610128.039    23610125.150
  20434559.222   -26055009.44344 -20292657.61442  20434560.961    20434555.432
  21765838.819   -13683630.95843 -10653224.43242  21765840.736    21765836.183
  24211878.847    -5618749.49343  -4351545.08742  24211881.818    24211877.390
 03  6  6  1 37 30.0000000  0  7G 2G16G25G11G20G 1G13
  22385672.444   -15484671.01143 -11930238.21242  22385674.269    22385671.586
  22039338.431   -17305297.57143 -13459344.43242  22039340.404    22039335.625
  22540435.668   -15139687.83443 -11787004.60642  22540437.766    22540432.572
  23626329.413    -8398932.12043  -6534069.71542  23626331.234    23626328.283
  20428960.504   -26084431.10544 -20315583.58142  20428962.242    20428956.681
  21756840.913   -13730915.36243 -10690069.39042  21756842.836    21756838.230
  24197511.169    -5694252.27243  -4410378.30942  24197514.058    24197509.629
 03  6  6  1 38  0.0000000  0  7G 2G16G25G11G20G 1G13
  22372822.131   -15552199.04743 -11982857.35542  22372823.953    22372821.322
  22028521.250   -17362141.90743 -13503638.65542  22028523.256    22028518.481
  22555498.203   -15060533.77843 -11725326.13742  22555500.346    22555495.158
  23642548.856    -8313697.83543  -6467653.53342  23642550.811    23642547.847
  20423455.594   -26113359.57943 -20338125.24542  20423457.341    20423451.748
  21747865.714   -13778080.33843 -10726821.29742  21747867.639    21747862.995
  24183149.609    -5769722.28143  -4469186.00542  24183152.451    24183148.182
 03  6  6  1 38 30.0000000  0  7G 2G16G25G11G20G 1G13
  22360029.298   -15619425.24743 -12035241.31142  22360031.131    22360028.489
  22017787.902   -17418546.13243 -13547589.94542  22017789.888    22017785.090
  22570589.240   -14981230.27943 -11663531.23242  22570591.338    22570586.178
  23658785.108    -8228377.20543  -6401170.05442  23658786.992    23658783.903
  20418045.265   -26141790.90343 -20360279.52142  20418047.009    20418041.416
  21738913.625   -13825123.63743 -10763478.39642  21738915.530    21738910.946
  24168794.802    -5845157.18043  -4527966.37042  24168797.555    24168793.290
 03  6  6  1 39  0.0000000  0  7G 2G16G25G11G20G 1G13
  22347293.977   -15686349.24143 -12087389.77342  22347295.781    22347293.215
  22007138.346   -17474509.86043 -13591197.99542  22007140.307    22007135.515
  22585707.870   -14901781.00443 -11601622.72442  22585710.001    22585704.870
  23675036.553    -8142975.07043  -6334623.03342  23675038.540    23675035.560
  20412729.548   -26169725.32744 -20382046.60242  20412731.260    20412725.656
  21729984.316   -13872047.21043 -10800042.18842  21729986.230    21729981.687
  24154446.194    -5920558.74243  -4586720.78942  24154448.959    24154444.711
 03  6  6  1 39 30.0000000  0  7G 2G16G25G11G20G 1G13
  22334617.231   -15752965.81643 -12139298.69942  22334619.017    22334616.437
  21996573.598   -17530027.56643 -13634458.48942  21996575.618    21996570.812
  22600854.498   -14822185.18943 -11539600.03542  22600856.578    22600851.407
  23691303.581    -8057491.36043  -6268012.48442  23691305.624    23691302.742
  20407509.233   -26197158.43144 -20403423.04442  20407510.927    20407505.319
  21721078.401   -13918847.95543 -10836510.27842  21721080.312    21721075.786
  24140104.518    -5995924.23943  -4645447.03642  24140107.271    24140103.209
 03  6  6  1 40  0.0000000  0  7G 2G16G25G11G20G 1G13
  22321999.229   -15819273.71143 -12190967.09142  22322000.978    22321998.370
  21986094.018   -17585098.05943 -13677370.50242  21986096.048    21986091.123
  22616028.345   -14742446.08343 -11477465.67642  22616030.442    22616025.223
  23707585.579    -7971930.05943  -6201341.45242  23707587.592    23707584.730
  20402384.424   -26224089.46243 -20424408.25942  20402386.145    20402380.525
  21712195.661   -13965526.74643 -10872883.33842  21712197.613    21712193.064
  24125769.641    -6071254.64243  -4704145.98942  24125772.412    24125768.178
 03  6  6  1 40 30.0000000  0  7G 2G16G25G11G20G 1G13
  22309439.845   -15885273.18643 -12242395.15042  22309441.645    22309439.034
  21975699.511   -17639721.29843 -13719934.00842  21975701.574    21975696.622
  22631228.693   -14662567.67543 -11415222.78342  22631230.803    22631225.630
  23723881.270    -7886296.16143  -6134613.85742  23723883.283    23723880.508
  20397354.945   -26250519.49043 -20445003.08242  20397356.662    20397351.059
  21703335.767   -14012085.93443 -10909163.20742  21703337.703    21703333.109
  24111440.950    -6146552.13043  -4762819.29342  24111443.771    24111439.397
 03  6  6  1 41  0.0000000  0  7G 2G16G25G11G20G 1G13
  22296940.292   -15950958.60343 -12293578.50842  22296942.077    22296939.381
  21965391.221   -17693891.64943 -13762144.62542  21965393.256    21965388.289
  22646455.891   -14582548.49843 -11352870.21142  22646457.959    22646452.801
  23740190.895    -7800589.54643  -6067829.62942  23740192.830    23740189.947
  20392421.739   -26276443.49043 -20465203.60042  20392423.449    20392417.886
  21694499.215   -14058522.00643 -10945347.13242  21694501.181    21694496.586
  24097119.042    -6221813.84143  -4821464.69542  24097121.872    24097117.597
 03  6  6  1 41 30.0000000  0  7G 2G16G25G11G20G 1G13
  22284500.320   -16016330.87343 -12344517.84842  22284502.110    22284499.398
  21955168.823   -17747610.10643 -13804003.11142  21955170.851    21955165.974
  22661708.816   -14502393.85043 -11290412.06742  22661710.859    22661705.721
  23756513.029    -7714816.54743  -6000993.64742  23756514.985    23756512.087
  20387584.487   -26301863.28143 -20485011.22642  20387586.188    20387580.688
  21685685.489   -14104838.29543 -10981437.73242  21685687.448    21685682.835
  24082803.554    -6297042.80843  -4880084.63542  24082806.248    24082801.822
 03  6  6  1 42  0.0000000  0  7G 2G16G25G11G20G 1G13
  22272120.618   -16081386.26443 -12395210.26842  22272122.439    22272119.684
  21945033.248   -17800872.88143 -13845506.52742  21945035.252    21945030.332
  22676987.494   -14422104.11343 -11227848.66042  22676989.518    22676984.352
  23772847.524    -7628978.48143  -5934106.97742  23772849.448    23772846.677
  20382843.809   -26326775.76144 -20504423.54342  20382845.513    20382839.998
  21676894.885   -14151033.05043 -11017433.62242  21676896.818    21676892.275
  24068494.458    -6372237.35143  -4938677.68142  24068497.045    24068492.659
 03  6  6  1 42 30.0000000  0  7G 2G16G25G11G20G 1G13
  22259801.933   -16146121.11143 -12445652.91842  22259803.748    22259800.994
  21934985.101   -17853675.99543 -13886651.76342  21934987.080    21934982.169
  22692291.813   -14341679.49443 -11165180.13642  22692293.842    22692288.593
  23789194.282    -7543076.37143  -5867170.38242  23789196.151    23789193.370
  20378200.278   -26351177.62643 -20523437.97942  20378202.024    20378196.460
  21668127.758   -14197104.50343 -11053333.43142  21668129.663    21668125.172
  24054192.023    -6447395.86343  -4997242.64142  24054194.771    24054190.297
 03  6  6  1 43  0.0000000  0  7G 2G16G25G11G20G 1G13
  22247544.290   -16210535.16343 -12495845.60042  22247546.079    22247543.316
  21925024.564   -17906019.00443 -13927438.47542  21925026.510    21925021.595
  22707620.957   -14261124.21043 -11102409.81042  22707623.016    22707617.759
  23805552.248    -7457115.09343  -5800187.70042  23805554.111    23805551.378
  20373653.793   -26375069.60443 -20542055.10342  20373655.539    20373649.936
  21659383.733   -14243054.66343 -11089138.72642  21659385.644    21659381.145
  24039896.205    -6522520.45743  -5055781.19042  24039898.877    24039894.450
 03  6  6  1 43 30.0000000  0  7G 2G16G25G11G20G 1G13
  22235348.637   -16274623.59343 -12545784.55042  22235350.435    22235347.597
  21915152.429   -17957897.21343 -13967863.00442  21915154.344    21915149.457
  22722975.207   -14180437.25943 -11039536.88842  22722977.230    22722972.086
  23821921.525    -7371094.89043  -5733159.09542  23821923.325    23821920.615
  20369205.092   -26398447.61443 -20560271.72842  20369206.838    20369201.239
  21650663.334   -14288880.71243 -11124847.31742  21650665.253    21650660.727
  24025607.436    -6597608.47443  -5114291.24242  24025610.048    24025605.594
 03  6  6  1 44  0.0000000  0  7G 2G16G25G11G20G 1G13
  22223214.643   -16338387.75143 -12595470.82542  22223216.464    22223213.550
  21905368.479   -18009311.79043 -14007926.25942  21905370.413    21905365.544
  22738353.467   -14099623.87343 -10976565.45042  22738355.519    22738350.405
  23838300.728    -7285022.28343  -5666089.62842  23838302.611    23838299.716
  20364853.884   -26421313.45243 -20578089.26142  20364855.634    20364849.977
  21641965.925   -14334585.87743 -11160461.70942  21641967.835    21641963.281
  24011324.853    -6672663.19443  -5172775.37642  24011327.434    24011323.185
 03  6  6  1 44 30.0000000  0  7G 2G16G25G11G20G 1G13
  22211143.179   -16401823.67543 -12644901.33342  22211144.957    22211141.963
  21895673.599   -18060258.58743 -14047625.01242  21895675.556    21895670.663
  22753755.797   -14018684.13343 -10913495.54642  22753757.887    22753752.760
  23854689.777    -7198898.14643  -5598980.04342  23854691.737    23854688.649
  20360600.755   -26443663.89743 -20595505.18642  20360602.481    20360596.822
  21633291.877   -14380168.32643 -11195980.47842  21633293.780    21633289.184
  23997049.026    -6747683.03543  -5231232.31142  23997051.601    23997047.278
 03  6  6  1 45  0.0000000  0  7G 2G16G25G11G20G 1G13
  22199134.854   -16464927.24043 -12694072.86042  22199136.684    22199133.637
  21886068.528   -18110733.64043 -14086956.17842  21886070.463    21886065.526
  22769182.010   -13937618.35943 -10850327.44242  22769184.183    22769179.164
  23871088.261    -7112723.38443  -5531831.02742  23871090.415    23871087.498
  20356446.299   -26465495.63643 -20612516.93042  20356448.042    20356442.376
  21624641.547   -14425625.90943 -11231401.95042  21624643.480    21624638.879
  23982780.161    -6822666.02243  -5289660.50142  23982782.817    23982778.281
 03  6  6  1 45 30.0000000  0  7G 2G16G25G11G20G 1G13
  22187189.575   -16527699.59343 -12742986.30042  22187191.366    22187188.328
  21876552.932   -18160737.97243 -14125920.54042  21876554.901    21876549.866
  22784631.446   -13856431.16243 -10787064.71442  22784633.620    22784628.568
  23887495.300    -7026504.20543  -5464647.40042  23887497.367    23887494.615
  20352390.210   -26486810.52943 -20629125.93342  20352391.939    20352386.297
  21616014.391   -14470961.72043 -11266728.53742  21616016.337    21616011.738
  23968517.675    -6897615.04043  -5348062.22042  23968520.347    23968515.971
 03  6  6  1 46  0.0000000  0  7G 2G16G25G11G20G 1G13
  22175307.986   -16590137.73843 -12791639.32542  22175309.758    22175306.623
  21867127.492   -18210268.78843 -14164515.93242  21867129.441    21867124.355
  22800103.759   -13775123.99343 -10723708.49642  22800105.888    22800100.882
  23903910.402    -6940242.59243  -5397430.72942  23903912.544    23903909.764
  20348432.878   -26507606.31043 -20645330.43542  20348434.611    20348428.998
  21607410.604   -14516174.87843 -11301959.54842  21607412.547    21607407.951
  23954261.993    -6972529.49543  -5406437.05442  23954264.676    23954260.184
 03  6  6  1 46 30.0000000  0  7G 2G16G25G11G20G 1G13
  22163490.753   -16652237.09943 -12840028.35342  22163492.605    22163489.365
  21857793.091   -18259321.27343 -14202738.60442  21857795.026    21857789.935
  22815598.945   -13693696.18343 -10660258.28942  22815601.058    22815596.156
  23920333.557    -6853939.14243  -5330181.41342  23920335.709    23920332.877
  20344575.052   -26527879.32543 -20661127.58842  20344576.780    20344571.167
  21598830.637   -14561262.78143 -11337092.95442  21598832.595    21598828.005
  23940012.876    -7047407.16943  -5464783.18142  23940015.637    23940011.342
 03  6  6  1 47  0.0000000  0  7G 2G16G25G11G20G 1G13
  22151738.210   -16713996.84443 -12888152.74642  22151740.066    22151736.824
  21848550.013   -18307894.44443 -14240587.78142  21848551.890    21848546.752
  22831116.565   -13612150.77243 -10596716.42842  22831118.612    22831113.721
  23936763.879    -6767597.85043  -5262902.64142  23936765.952    23936763.271
  20340816.769   -26547629.23143 -20676517.12642  20340818.517    20340812.893
  21590274.288   -14606226.55943 -11372129.64942  21590276.250    21590271.696
  23925770.833    -7122249.12543  -5523101.49842  23925773.685    23925769.197
 03  6  6  1 47 30.0000000  0  7G 2G16G25G11G20G 1G13
  22140050.061   -16775418.10543 -12936013.38542  22140051.931    22140048.708
  21839397.659   -18355989.55643 -14278064.44242  21839399.658    21839394.618
  22846655.572   -13530492.70343 -10533086.79142  22846657.660    22846652.741
  23953200.296    -6681224.69543  -5195599.03042  23953202.310    23953199.608
  20337157.677   -26566857.88243 -20691500.49142  20337159.434    20337153.793
  21581740.954   -14651069.35843 -11407072.07642  21581742.892    21581738.367
  23911535.188    -7197058.15843  -5581394.18942  23911537.968    23911533.303
 03  6  6  1 48  0.0000000  0  7G 2G16G25G11G20G 1G13
  22128427.737   -16836493.57843 -12983604.57842  22128429.515    22128426.364
  21830337.818   -18403599.07443 -14315162.71742  21830339.792    21830334.783
  22862216.737   -13448718.34143 -10469366.53242  22862218.826    22862213.908
  23969642.961    -6594817.22743  -5128268.68542  23969645.068    23969642.581
  20333599.027   -26585558.67543 -20706072.53442  20333600.796    20333595.156
  21573231.832   -14695785.48143 -11441915.78842  21573233.724    21573229.132
  23897306.713    -7271829.07743  -5639657.13542  23897309.462    23897304.851
 03  6  6  1 48 30.0000000  0  7G 2G16G25G11G20G 1G13
  22116871.110   -16897223.83843 -13030926.77842  22116872.884    22116869.726
  21821370.252   -18450723.76843 -14351883.20842  21821372.204    21821367.173
  22877799.158   -13366832.30043 -10405559.24142  22877801.220    22877796.307
  23986091.508    -6508380.92543  -5060915.85942  23986093.499    23986090.942
  20330140.533   -26603733.15843 -20720234.46742  20330142.302    20330136.663
  21564746.237   -14740377.63343 -11476662.90542  21564748.158    21564743.527
  23883085.068    -7346564.51143  -5697892.48542  23883087.821    23883083.125
 03  6  6  1 49  0.0000000  0  7G 2G16G25G11G20G 1G13
  22105380.500   -16957607.22243 -13077978.68842  22105382.212    22105379.098
  21812495.295   -18497361.99643 -14388224.63642  21812497.218    21812492.119
  22893402.403   -13284836.99843 -10341666.82242  22893404.435    22893399.474
  24002544.662    -6421919.37843  -4993543.41642  24002546.667    24002544.147
  20326782.362   -26621380.38143 -20733985.54942  20326784.122    20326778.532
  21556284.180   -14784846.00243 -11511313.56142  21556286.093    21556281.447
  23868869.835    -7421264.97043  -5756100.54342  23868872.650    23868868.044
 03  6  6  1 49 30.0000000  0  7G 2G16G25G11G20G 1G13
  22093956.327   -17017641.07343 -13124758.24142  22093958.044    22093954.954
  21803713.435   -18543510.99043 -14424184.84042  21803715.359    21803710.160
  22909026.139   -13202733.78143 -10277690.32242  22909028.172    22909023.270
  24019002.349    -6335434.16143  -4926152.51542  24019004.281    24019001.964
  20323524.932   -26638498.48543 -20747324.33042  20323526.664    20323521.050
  21547845.846   -14829189.77443 -11545867.13542  21547847.760    21547843.081
  23854661.667    -7495929.60943  -5814280.72042  23854664.363    23854659.786
 03  6  6  1 50  0.0000000  0  7G 2G16G25G11G20G 1G13
  22082599.400   -17077321.67643 -13171262.53242  22082601.142    22082598.022
  21795025.279   -18589167.01243 -14459760.90142  21795027.245    21795022.068
  22924670.451   -13120522.26943 -10213629.43442  22924672.509    22924667.667
  24035464.417    -6248926.42643  -4858744.05942  24035466.265    24035464.132
  20320368.762   -26655084.23943 -20760248.29142  20320370.507    20320364.886
  21539431.600   -14873406.93843 -11580322.05142  21539433.498    21539428.804
  23840460.556    -7570556.71143  -5872431.63542  23840463.326    23840458.605
 03  6  6  1 50 30.0000000  0  7G 2G16G25G11G20G 1G13
  22071310.021   -17136647.71843 -13217490.54342  22071311.716    22071308.564
  21786431.193   -18634328.99443 -14494952.00542  21786433.145    21786427.958
  22940334.899   -13038205.11643 -10149486.23042  22940336.937    22940332.135
  24051929.980    -6162400.22643  -4791321.15242  24051931.767    24051929.521
  20317313.970   -26671137.33943 -20772757.20242  20317315.704    20317310.066
  21531041.336   -14917498.07943 -11614678.76742  21531043.243    21531038.497
  23826266.531    -7645147.21943  -5930554.04142  23826269.159    23826264.466
 03  6  6  1 51  0.0000000  0  7G 2G16G25G11G20G 1G13
  22060088.267   -17195618.19443 -13263441.49342  22060089.979    22060086.787
  21777931.343   -18678995.79643 -14529757.25342  21777933.277    21777928.113
  22956018.915   -12955785.37143 -10085263.06642  22956020.940    22956016.096
  24068398.110    -6075859.59243  -4723887.05242  24068399.983    24068397.796
  20314360.558   -26686657.69543 -20784850.99042  20314362.293    20314356.668
  21522674.868   -14961463.95743 -11648937.88042  21522676.814    21522672.044
  23812079.125    -7719701.61943  -5988648.30742  23812081.879    23812077.225
 03  6  6  1 51 30.0000000  0  7G 2G16G25G11G20G 1G13
  22048934.828   -17254229.76843 -13309112.78442  22048936.542    22048933.276
  21769526.346   -18723163.94643 -14564173.94342  21769528.299    21769523.188
  22971722.383   -12873263.48643 -10020960.32742  22971724.379    22971719.499
  24084869.095    -5989305.20243  -4656442.25142  24084870.881    24084868.704
  20311509.074   -26701642.40943 -20796527.39442  20311510.819    20311505.185
  21514332.575   -15005302.98043 -11683098.13942  21514334.506    21514329.681
  23797898.973    -7794218.72243  -6046713.49442  23797901.637    23797897.039
 03  6  6  1 52  0.0000000  0  7G 2G16G25G11G20G 1G13
  22037849.627   -17312482.78043 -13354504.66842  22037851.320    22037848.053
  21761216.183   -18766834.01743 -14598202.51942  21761218.148    21761212.994
  22987444.459   -12790643.43943  -9956581.09842  22987446.461    22987441.610
  24101341.644    -5902742.59143  -4588991.03442  24101343.440    24101341.123
  20308759.278   -26716092.69943 -20807787.36342  20308761.003    20308755.388
  21506013.959   -15049017.36443 -11717161.28042  21506015.896    21506011.082
  23783725.353    -7868700.74743  -6104751.34942  23783728.092    23783723.490
 03  6  6  1 52 30.0000000  0  7G 2G16G25G11G20G 1G13
  22026833.558   -17370372.21143 -13399613.25742  22026835.297    22026831.987
  21753001.726   -18810001.08243 -14631839.13942  21753003.688    21752998.501
  23003185.438   -12707924.08343  -9892124.46842  23003187.509    23003182.551
  24117815.747    -5816171.51743  -4521533.29242  24117817.488    24117815.382
  20306111.863   -26730004.66243 -20818627.86242  20306113.584    20306108.041
  21497719.766   -15092603.79343 -11751124.71342  21497721.686    21497716.822
  23769559.164    -7943144.36243  -6162759.29942  23769561.835    23769557.148
 03  6  6  1 53  0.0000000  0  7G 2G16G25G11G20G 1G13
  22015886.480   -17427899.03043 -13444439.28442  22015888.299    22015884.899
  21744882.779   -18852666.07143 -14665084.53542  21744884.730    21744879.592
  23018944.500   -12625110.08643  -9827594.10142  23018946.575    23018941.529
  24134290.417    -5729597.62143  -4454073.22942  24134292.165    24134289.920
  20303566.598   -26743380.13443 -20829050.31042  20303568.271    20303562.808
  21489449.321   -15136065.11843 -11784990.66642  21489451.264    21489446.371
  23755399.526    -8017552.63543  -6220739.67842  23755402.273    23755397.720
 03  6  6  1 53 30.0000000  0  7G 2G16G25G11G20G 1G13
  22005009.783   -17485056.30543 -13488977.35942  22005011.581    22005008.140
  21736860.650   -18894822.33343 -14697933.52042  21736862.651    21736857.449
  23034722.131   -12542197.85543  -9762987.20642  23034724.251    23034719.303
  24150765.937    -5643018.71643  -4386609.35542  24150767.766    24150765.519
  20301124.632   -26756212.79043 -20839049.78542  20301126.298    20301120.839
  21481203.722   -15179396.05143 -11818755.01242  21481205.689    21481200.773
  23741247.721    -8091920.50343  -6278688.60142  23741250.427    23741245.922
 03  6  6  1 54  0.0000000  0  8G 4G 2G16G25G11G20G 1G13
  24757149.764    -3032336.59453  -2359472.33052  24757152.299    24757147.964
  21994201.754   -17541852.70843 -13533234.23842  21994203.568    21994200.111
  21728933.662   -18936478.47343 -14730392.80742  21728935.659    21728930.466
  23050516.096   -12459200.19543  -9698313.75242  23050518.208    23050513.344
  24167239.801    -5556448.22143  -4319152.01842  24167241.792    24167239.539
  20298784.121   -26768512.11543 -20848633.68142  20298785.816    20298780.325
  21472981.030   -15222606.80243 -11852425.71542  21472982.973    21472978.027
  23727101.655    -8166258.40943  -6336614.16342  23727104.369    23727099.878
 03  6  6  1 54 30.0000000  0  8G 4G 2G16G25G11G20G 1G13
  24748861.359    -3075890.47943  -2393410.38942  24748863.907    24748859.705
  21983465.468   -17598272.17243 -13577197.40142  21983467.237    21983463.763
  21721104.946   -18977618.57243 -14762449.98242  21721106.909    21721101.678
  23066328.618   -12376104.92943  -9633564.21142  23066330.759    23066325.807
  24183714.312    -5469874.96043  -4251692.52942  24183716.286    24183714.121
  20296548.048   -26780263.04143 -20857790.25342  20296549.723    20296544.178
  21464783.853   -15265683.06243 -11885991.61342  21464785.811    21464780.869
  23712963.928    -8240552.39243  -6394505.50742  23712966.692    23712962.150
 03  6  6  1 55  0.0000000  0  8G 4G 2G16G25G11G20G 1G13
  24740664.377    -3118965.37243  -2426975.21042  24740666.995    24740663.004
  21972800.003   -17654319.19043 -13620870.34042  21972801.845    21972798.319
  21713373.580   -19018247.13343 -14794108.55542  21713375.528    21713370.313
  23082158.183   -12292919.74443  -9568744.61942  23082160.379    23082155.346
  24200187.654    -5383307.90943  -4184237.85042  24200189.610    24200187.517
  20294415.337   -26791470.86143 -20866523.62442  20294417.015    20294411.398
  21456611.053   -15308631.16443 -11919457.64442  21456613.017    21456608.099
  23698833.423    -8314808.51143  -6452367.36042  23698836.211    23698831.486
 03  6  6  1 55 30.0000000  0  8G 4G 2G16G25G11G20G 1G13
  24732559.061    -3161561.37843  -2460166.92642  24732561.505    24732557.255
  21962205.616   -17709992.99043 -13664252.47142  21962207.433    21962203.896
  21705739.772   -19058363.28543 -14825367.85842  21705741.673    21705736.431
  23098004.483   -12209647.17843  -9503856.94842  23098006.625    23098001.589
  24216659.126    -5296751.07443  -4116791.17542  24216661.036    24216658.837
  20292385.936   -26802135.51243 -20874833.74942  20292387.626    20292381.985
  21448462.572   -15351451.77943 -11952824.34342  21448464.511    21448459.582
  23684709.990    -8389027.49443  -6510200.25942  23684712.763    23684707.979
 03  6  6  1 56  0.0000000  0  8G 4G 2G16G25G11G20G 1G13
  24724544.707    -3203676.31943  -2492983.72542  24724547.183    24724543.091
  21951682.820   -17765290.15143 -13707341.10642  21951684.617    21951681.184
  21698203.955   -19097963.98043 -14856225.50642  21698205.854    21698200.635
  23113867.302   -12126287.79243  -9438901.61442  23113869.466    23113864.450
  24233128.202    -5210205.47743  -4049353.29442  24233130.216    24233128.304
  20290460.316   -26812254.64043 -20882718.78642  20290462.052    20290456.381
  21440338.676   -15394143.32243 -11986090.46642  21440340.587    21440335.636
  23670593.950    -8463208.16043  -6568003.31342  23670596.663    23670591.804
 03  6  6  1 56 30.0000000  0  8G 4G 2G16G25G11G20G 1G13
  24716622.126    -3245309.79443  -2525425.36742  24716624.611    24716620.498
  21941231.991   -17820209.63143 -13750135.44542  21941233.744    21941230.312
  21690766.408   -19137048.47543 -14886680.91542  21690768.321    21690763.092
  23129746.091   -12042844.12643  -9373880.61542  23129748.272    23129743.315
  24249594.244    -5123674.92743  -3981927.07042  24249596.129    24249594.765
  20288638.562   -26821827.93643 -20890178.49942  20288640.284    20288634.650
  21432239.180   -15436706.46643 -12019256.52942  21432241.082    21432236.125
  23656485.027    -8537350.93143  -6625776.83742  23656487.689    23656482.838
 03  6  6  1 57  0.0000000  0  8G 4G 2G16G25G11G20G 1G13
  24708792.237    -3286457.50243  -2557488.57542  24708794.722    24708790.224
  21930853.841   -17874746.81843 -13792631.89742  21930855.602    21930852.173
  21683428.028   -19175611.86443 -14916730.27542  21683429.950    21683424.672
  23145641.194   -11959314.85143  -9308792.90642  23145643.370    23145638.356
  24266057.777    -5037159.30143  -3914512.46542  24266059.684    24266058.366
  20286921.399   -26830851.49743 -20897209.84342  20286923.131    20286917.523
  21424164.688   -15479137.82243 -12052319.90242  21424166.607    21424161.723
  23642383.721    -8611453.03943  -6683518.66842  23642386.440    23642381.602
 03  6  6  1 57 30.0000000  0  8G 4G 2G16G25G11G20G 1G13
  24701053.310    -3327124.89943  -2589177.40142  24701055.850    24701051.479
  21920547.641   -17928905.85643 -13834833.68542  21920549.410    21920545.954
  21676187.987   -19213658.33043 -14946376.82742  21676189.966    21676184.566
  23161551.105   -11875707.92643  -9243644.66642  23161553.265    23161548.175
  24282516.991    -4950667.15343  -3847116.20042  24282518.690    24282517.399
  20285307.952   -26839330.28043 -20903816.68742  20285309.666    20285304.060
  21416114.233   -15521442.99843 -12085284.94942  21416116.167    21416111.299
  23628289.242    -8685520.09643  -6741233.21642  23628291.943    23628287.010
 03  6  6  1 58  0.0000000  0  8G 4G 2G16G25G11G20G 1G13
  24693407.113    -3367305.57243  -2620487.00042  24693409.522    24693405.697
  21910314.814   -17982679.76643 -13876735.37642  21910316.525    21910313.036
  21669047.615   -19251181.07743 -14975615.28642  21669049.587    21669044.160
  23177476.472   -11792019.56143  -9178433.00342  23177478.596    23177473.520
  24298972.067    -4864196.01343  -3779736.26042  24298973.815    24298972.354
  20283799.298   -26847258.38043 -20909994.42942  20283801.021    20283795.401
  21408088.833   -15563616.62743 -12118147.49842  21408090.770    21408085.923
  23614202.372    -8759546.97043  -6798916.42442  23614204.981    23614199.992
 03  6  6  1 58 30.0000000  0  8G 4G 2G16G25G11G20G 1G13
  24685853.977    -3406997.03143  -2651415.40842  24685856.397    24685852.756
  21900155.867   -18036064.98643 -13918334.18642  21900157.576    21900154.141
  21662007.541   -19288176.88143 -15004443.15842  21662009.477    21662004.010
  23193417.321   -11708250.09043  -9113158.12142  23193419.409    23193414.269
  24315422.711    -4777747.32943  -3712373.83042  24315424.584    24315423.199
  20282395.902   -26854633.36743 -20915741.17742  20282397.613    20282391.989
  21400088.858   -15605656.86143 -12150906.10642  21400090.786    21400085.913
  23600123.513    -8833531.82443  -6856566.93242  23600126.229    23600121.055
 03  6  6  1 59  0.0000000  0  8G 4G 2G16G25G11G20G 1G13
  24678393.715    -3446202.04543  -2681964.78742  24678395.966    24678391.846
  21890070.569   -18089063.29743 -13959631.50742  21890072.275    21890068.885
  21655067.291   -19324647.81443 -15032862.02142  21655069.231    21655063.820
  23209372.590   -11624404.68443  -9047824.06942  23209374.654    23209369.527
  24331868.053    -4691327.17643  -3645033.68142  24331869.934    24331868.638
  20281097.283   -26861457.61043 -20921058.76642  20281098.996    20281093.390
  21392113.591   -15647566.90343 -12183563.26042  21392115.570    21392110.704
  23586051.953    -8907478.09543  -6914187.34242  23586054.614    23586049.551
 03  6  6  1 59 30.0000000  0  8G 4G 2G16G25G11G20G 1G13
  24671026.055    -3484919.46143  -2712134.20742  24671028.428    24671024.107
  21880059.190   -18141672.95343 -14000625.98042  21880060.905    21880057.543
  21648227.298   -19360592.22243 -15060870.62342  21648229.235    21648223.762
  23225341.985   -11540485.00443  -8982432.14842  23225344.014    23225338.931
  24348307.381    -4604938.39843  -3577717.93342  24348309.056    24348307.871
  20279903.601   -26867730.39543 -20925946.65042  20279905.297    20279899.729
  21384163.231   -15689346.42843 -12216118.71742  21384165.178    21384160.306
  23571987.629    -8981385.79143  -6971777.70242  23571990.299    23571985.387
 03  6  6  2  0  0.0000000  0  8G 4G 2G16G25G11G20G 1G13
  24663751.077    -3523149.30943  -2741923.66142  24663753.427    24663749.381
  21870122.041   -18193892.80743 -14041316.72042  21870123.745    21870120.311
  21641487.753   -19396008.93943 -15088468.02542  21641489.674    21641484.142
  23241325.068   -11456493.36143  -8916984.15442  23241327.150    23241322.102
  24364740.203    -4518584.31743  -3510429.25242  24364741.844    24364740.487
  20278814.856   -26873451.50443 -20930404.65742  20278816.585    20278811.038
  21376237.561   -15730995.86143 -12248572.80042  21376239.527    21376234.642
  23557930.782    -9055255.41143  -7029338.41842  23557933.329    23557928.271
 03  6  6  2  0 30.0000000  0  8G 4G 2G16G25G11G20G 1G13
  24656569.634    -3560887.13643  -2771329.74242  24656572.013    24656568.231
  21860260.066   -18245717.92343 -14081699.86542  21860261.726    21860258.274
  21634849.471   -19430893.10343 -15115650.45442  21634851.419    21634845.895
  23257322.244   -11372428.19943  -8851478.88542  23257324.266    23257319.307
  24381166.571    -4432264.25243  -3443167.08842  24381168.223    24381166.877
  20277831.912   -26878616.93843 -20934429.66742  20277833.603    20277828.106
  21368337.388   -15772511.60243 -12280922.70842  21368339.338    21368334.426
  23543881.718    -9129083.37743  -7086866.68342  23543884.336    23543879.258
 03  6  6  2  1  0.0000000  0  8G 4G 2G16G25G11G20G 1G13
  24649482.281    -3598132.00643  -2800351.70342  24649484.698    24649480.711
  21850473.502   -18297146.24543 -14121773.82842  21850475.198    21850471.751
  21628312.817   -19465242.96443 -15142416.54142  21628314.758    21628309.320
  23273333.060   -11288290.94343  -8785917.43642  23273335.082    23273330.157
  24397586.133    -4345980.87143  -3375933.42142  24397587.831    24397586.458
  20276954.915   -26883225.63543 -20938020.86142  20276956.589    20276951.075
  21360462.735   -15813893.16943 -12313168.07142  21360464.661    21360459.773
  23529840.450    -9202869.34843  -7144362.18542  23529843.233    23529838.186
 03  6  6  2  1 30.0000000  0  8G 4G 2G16G25G11G20G 1G13
  24642487.902    -3634886.98143  -2828991.94942  24642490.371    24642486.351
  21840762.067   -18348180.13843 -14161540.44242  21840763.738    21840760.308
  21621877.428   -19499061.03943 -15168768.24442  21621879.342    21621873.965
  23289356.669   -11204087.05443  -8720304.03442  23289358.695    23289353.648
  24413997.324    -4259740.48043  -3308733.30742  24413999.065    24413997.647
  20276183.327   -26887280.44943 -20941180.45242  20276185.012    20276179.440
  21352612.930   -15855144.12043 -12345311.65442  21352614.870    21352609.951
  23515806.887    -9276616.98343  -7201827.83042  23515809.553    23515804.498
 03  6  6  2  2  0.0000000  0  8G 4G 2G16G25G11G20G 1G13
  24635587.613    -3671147.62843  -2857246.96842  24635589.955    24635585.845
  21831126.744   -18398813.96643 -14200995.31942  21831128.394    21831124.916
  21615544.197   -19532341.98743 -15194701.40242  21615546.142    21615540.791
  23305393.222   -11119814.70743  -8654637.29742  23305395.279    23305390.117
  24430400.206    -4173542.29443  -3241566.17442  24430402.043    24430400.968
  20275517.974   -26890776.96343 -20943905.00842  20275519.691    20275514.069
  21344788.826   -15896260.27243 -12377350.20242  21344790.741    21344785.786
  23501781.198    -9350322.35543  -7259260.55742  23501783.897    23501778.815
 03  6  6  2  2 30.0000000  0  8G 4G 2G16G25G11G20G 1G13
  24628782.077    -3706912.17143  -2885115.44142  24628784.378    24628780.059
  21821567.952   -18449045.40643 -14240136.65042  21821569.627    21821566.114
  21609313.676   -19565083.48943 -15220214.22842  21609315.589    21609310.240
  23321442.540   -11035474.58743  -8588917.74542  23321444.676    23321439.599
  24446794.808    -4087388.41143  -3174433.42442  24446796.670    24446795.575
  20274959.073   -26893713.94043 -20946193.55942  20274960.817    20274955.196
  21336990.451   -15937240.70543 -12409282.99342  21336992.401    21336987.471
  23487763.662    -9423984.61043  -7316659.68142  23487766.469    23487761.280
 03  6  6  2  3  0.0000000  0  8G 4G 2G16G25G11G20G 1G13
  24622069.282    -3742187.37943  -2912602.59142  24622071.621    24622067.556
  21812084.735   -18498880.02743 -14278968.77142  21812086.385    21812082.806
  21603184.652   -19597291.54043 -15245311.37142  21603186.582    21603181.205
  23337503.174   -10951075.49143  -8523152.26742  23337505.298    23337500.270
  24463179.449    -4001288.40943  -3107342.78642  24463181.190    24463180.085
  20274505.410   -26896097.71943 -20948051.04842  20274507.165    20274501.587
  21329216.630   -15978092.30643 -12441115.40242  21329218.585    21329213.669
  23473753.075    -9497611.05443  -7374030.86542  23473755.788    23473750.625
 03  6  6  2  3 30.0000000  0  8G 4G 2G16G25G11G20G 1G13
  24615451.797    -3776962.35643  -2939699.91042  24615454.171    24615450.306
  21802679.155   -18548306.24843 -14317482.65742  21802680.842    21802677.294
  21597159.379   -19628954.56543 -15269983.82242  21597161.322    21597155.904
  23353576.574   -10866609.05143  -8457334.30842  23353578.722    23353573.806
  24479554.906    -3915235.29643  -3040288.58442  24479556.665    24479555.686
  20274159.073   -26897917.69743 -20949469.21442  20274160.812    20274155.285
  21321469.323   -16018804.89943 -12472839.48842  21321471.240    21321466.317
  23459751.218    -9571191.13043  -7431365.97342  23459753.934    23459748.718
 03  6  6  2  4  0.0000000  0  8G 4G 2G16G25G11G20G 1G13
  24608928.520    -3811242.62043  -2966411.80942  24608930.905    24608926.979
  21793350.468   -18597328.56443 -14355681.81242  21793352.129    21793348.616
  21591236.868   -19660077.38443 -15294235.33442  21591238.826    21591233.391
  23369661.423   -10782083.06943  -8391469.93542  23369663.559    23369658.636
  24495919.770    -3829237.91243  -2973277.79242  24495921.629    24495920.472
  20273918.985   -26899179.45643 -20950452.40242  20273920.691    20273915.200
  21313747.336   -16059384.25343 -12504459.74942  21313749.249    21313744.318
  23445757.165    -9644731.09643  -7488669.78342  23445759.775    23445754.530
 03  6  6  2  4 30.0000000  0  8G 4G 2G16G25G11G20G 1G13
  24602499.781    -3845025.46743  -2992736.14042  24602502.015    24602497.912
  21784099.378   -18645943.41343 -14393563.45642  21784101.007    21784097.466
  21585417.822   -19690656.79943 -15318063.40942  21585419.777    21585414.313
  23385757.542   -10697497.33743  -8325559.01242  23385759.755    23385754.833
  24512273.686    -3743296.92943  -2906311.16442  24512275.492    24512275.158
  20273785.598   -26899880.36543 -20950998.56942  20273787.313    20273781.816
  21306051.102   -16099828.04043 -12535974.37642  21306053.017    21306048.111
  23431770.904    -9718228.75243  -7545940.64042  23431773.547    23431768.360
 03  6  6  2  5  0.0000000  0  8G 4G 2G16G25G11G20G 1G13
  24596166.231    -3878308.64943  -3018671.07742  24596168.318    24596164.392
  21774926.365   -18694147.39843 -14431124.95242  21774928.058    21774924.474
  21579702.787   -19720689.61943 -15341465.57442  21579704.712    21579699.206
  23401865.221   -10612851.63143  -8259601.36742  23401867.327    23401862.511
  24528617.034    -3657413.09843  -2839388.78542  24528618.799    24528618.025
  20273759.417   -26900017.81843 -20951105.67642  20273761.146    20273755.643
  21298381.080   -16140134.06243 -12567381.65542  21298382.980    21298378.116
  23417793.141    -9791682.43843  -7603177.23542  23417795.767    23417790.589
 03  6  6  2  5 30.0000000  0  8G 4G 2G16G25G11G20G 1G13
  24589927.031    -3911096.47643  -3044219.99942  24589929.247    24589925.530
  21765830.930   -18741944.21143 -14468369.16442  21765832.605    21765829.001
  21574090.932   -19750179.70943 -15364444.82842  21574092.903    21574087.448
  23417982.854   -10528152.73643  -8193602.26442  23417984.974    23417980.259
  24544948.354    -3571594.71443  -2772517.57542  24544950.083    24544949.230
  20273839.515   -26899596.77843 -20950777.59142  20273841.251    20273835.764
  21290736.344   -16180307.31043 -12598685.47342  21290738.228    21290733.349
  23403822.675    -9865097.05243  -7660383.37442  23403825.364    23403820.203
 03  6  6  2  6  0.0000000  0  8G 4G 2G16G25G11G20G 1G13
  24583783.608    -3943380.92243  -3069376.68542  24583785.887    24583782.230
  21756814.687   -18789324.62943 -14505288.91942  21756816.377    21756812.746
  21568584.006   -19779118.18643 -15386994.25142  21568585.999    21568580.596
  23434111.797   -10443394.77543  -8127557.13842  23434113.857    23434109.136
  24561267.369    -3485836.74143  -2705693.36842  24561269.239    24561268.664
  20274027.499   -26898608.87243 -20950007.79342  20274029.231    20274023.754
  21283118.340   -16220339.90143 -12629879.68742  21283120.247    21283115.380
  23389861.279    -9938464.75443  -7717552.97242  23389863.976    23389858.815
 03  6  6  2  6 30.0000000  0  8G 4G 2G16G25G11G20G 1G13
  24577734.522    -3975168.14643  -3094145.94942  24577736.829    24577733.194
  21747876.754   -18836293.89243 -14541888.29742  21747878.432    21747874.748
  21563181.173   -19807510.61043 -15409118.18742  21563183.137    21563177.636
  23450250.364   -10358586.13943  -8061472.50242  23450252.487    23450247.647
  24577573.462    -3400148.48343  -2638923.63342  24577575.352    24577574.972
  20274322.206   -26897060.41443 -20948801.20142  20274323.921    20274318.428
  21275525.945   -16260238.21043 -12660969.26142  21275527.847    21275522.993
  23375907.453   -10011792.09043  -7774691.13542  23375910.184    23375904.949
 03  6  6  2  7  0.0000000  0  8G 4G 2G16G25G11G20G 1G13
  24571781.161    -4006453.77343  -3118524.41342  24571783.449    24571779.183
  21739018.006   -18882846.79543 -14578163.24842  21739019.686    21739015.941
  21557883.067   -19835351.76943 -15430812.56542  21557885.102    21557879.589
  23466399.041   -10273724.55743  -7995346.61942  23466401.186    23466396.228
  24593866.692    -3314528.99343  -2572207.23842  24593868.423    24593867.856
  20274724.372   -26894947.12743 -20947154.49142  20274726.099    20274720.563
  21267959.826   -16299998.19843 -12691951.06242  21267961.750    21267956.923
  23361962.113   -10085075.10043  -7831794.74142  23361964.794    23361959.638
 03  6  6  2  7 30.0000000  0  8G 4G 2G16G25G11G20G 1G13
  24565923.990    -4037234.65043  -3142509.47242  24565926.295    24565921.881
  21730239.276   -18928979.15843 -14614110.49342  21730240.977    21730237.204
  21552690.676   -19862637.83643 -15452074.40542  21552692.710    21552687.141
  23482558.036   -10188809.08143  -7929178.74242  23482560.090    23482555.212
  24610146.837    -3228977.89443  -2505544.34342  24610148.651    24610148.136
  20275234.626   -26892265.80043 -20945065.14642  20275236.357    20275230.796
  21260420.685   -16339616.59643 -12722822.52742  21260422.592    21260417.797
  23348025.916   -10158310.92743  -7888861.58942  23348028.577    23348023.278
 03  6  6  2  8  0.0000000  0  8G 4G 2G16G25G11G20G 1G13
  24560161.614    -4067515.73543  -3166105.15042  24560163.897    24560159.880
  21721539.773   -18974695.04443 -14649733.20842  21721541.455    21721537.719
  21547603.016   -19889373.35443 -15472907.23642  21547605.047    21547599.507
  23498725.801   -10103846.69643  -7862974.32342  23498727.864    23498723.058
  24626412.106    -3143503.66443  -2438941.29342  24626414.085    24626413.349
  20275851.993   -26889021.51643 -20942537.13842  20275853.714    20275848.159
  21252907.437   -16379098.67843 -12753587.76742  21252909.386    21252904.602
  23334097.444   -10231504.87643  -7945895.77542  23334100.140    23334094.955
 03  6  6  2  8 30.0000000  0  8G 4G 2G16G25G11G20G 1G13
  24554494.807    -4097294.71843  -3189309.49942  24554497.121    24554493.195
  21712920.180   -19019991.17143 -14685028.84742  21712921.868    21712918.127
  21542620.790   -19915555.23343 -15493308.66942  21542622.764    21542617.223
  23514902.626   -10018837.07143  -7796733.08642  23514904.716    23514899.924
  24642662.634    -3058107.26543  -2372398.83342  24642664.617    24642663.905
  20276576.882   -26885212.22743 -20939568.86942  20276578.597    20276573.033
  21245420.635   -16418442.31343 -12784245.13342  21245422.555    21245417.746
  23320177.460   -10304655.17543  -8002895.96442  23320180.128    23320174.905
 03  6  6  2  9  0.0000000  0  8G 4G 2G16G25G11G20G 1G13
  24548924.153    -4126568.28143  -3212120.10042  24548926.419    24548922.175
  21704381.226   -19064863.35843 -14719994.14042  21704382.957    21704379.169
  21537744.609   -19941179.54543 -15513275.63242  21537746.530    21537741.042
  23531088.567    -9933779.06343  -7730454.13542  23531090.697    23531085.837
  24658898.537    -2972788.32243  -2305916.76142  24658900.405    24658899.929
  20277409.976   -26880834.45743 -20936157.62542  20277411.685    20277406.103
  21237960.735   -16457644.27643 -12814792.09942  21237962.670    21237957.856
  23306266.215   -10377758.64843  -8059859.66942  23306268.938    23306263.712
 03  6  6  2  9 30.0000000  0  8G 4G 2G16G25G11G20G 1G13
  24543449.712    -4155338.06843  -3234538.13142  24543451.943    24543447.018
  21695922.946   -19109311.96843 -14754629.36942  21695924.613    21695920.819
  21532974.470   -19966246.90043 -15532808.60242  21532976.353    21532970.880
  23547283.018    -9848676.19343  -7664140.22942  23547285.178    23547280.339
  24675118.600    -2887551.55843  -2239498.67342  24675120.640    24675119.704
  20278350.911   -26875889.89943 -20932304.73142  20278352.619    20278347.014
  21230527.468   -16496706.19843 -12845229.94642  21230529.430    21230524.607
  23292363.597   -10450817.09943  -8116788.25642  23292366.382    23292361.089
 03  6  6  2 10  0.0000000  0  8G 4G 2G16G25G11G20G 1G13
  24538070.988    -4183601.97343  -3256561.92042  24538073.344    24538069.013
  21687545.680   -19153334.28043 -14788932.41942  21687547.375    21687543.585
  21528310.780   -19990754.83243 -15551905.66842  21528312.646    21528307.142
  23563485.937    -9763528.63743  -7597791.50542  23563488.089    23563483.463
  24691322.705    -2802398.14443  -2173145.67342  24691324.502    24691324.337
  20279400.132   -26870376.42443 -20928008.52642  20279401.822    20279396.199
  21223121.261   -16535626.10443 -12875557.13242  21223123.187    21223118.389
  23278470.051   -10523828.61843  -8173680.32542  23278472.722    23278467.422
 03  6  6  2 10 30.0000000  0  8G 4G 2G16G25G11G20G 1G13
  24532788.254    -4211362.77243  -3278193.70742  24532790.580    24532786.450
  21679249.337   -19196931.98043 -14822904.60942  21679250.992    21679247.159
  21523753.095   -20014705.51643 -15570568.50842  21523754.982    21523749.422
  23579696.675    -9678341.06143  -7531411.58942  23579698.767    23579694.076
  24707510.151    -2717333.80143  -2106861.82942  24707511.959    24707511.206
  20280556.988   -26864297.10943 -20923271.40742  20280558.702    20280553.076
  21215741.526   -16574406.87643 -12905775.90442  21215743.431    21215738.617
  23264584.778   -10596796.24643  -8230538.16942  23264587.426    23264582.127
 03  6  6  2 11  0.0000000  0  7G 4G 2G16G25G20G 1G13
  24527605.146    -4238598.12243  -3299416.00242  24527607.504    24527603.877
  21671038.222   -19240081.68943 -14856527.70942  21671039.858    21671035.986
  21519305.830   -20038075.85943 -15588779.12542  21519307.774    21519302.159
  23595918.989    -9593092.78843  -7464984.39742  23595921.000    23595916.340
  20281825.761   -26857629.65643 -20918075.99842  20281827.480    20281821.857
  21208392.521   -16613026.14344 -12935868.82242  21208394.440    21208389.611
  23250712.068   -10669697.86643  -8287344.59842  23250714.766    23250709.305
 03  6  6  2 11 30.0000000  0  7G 4G 2G16G25G20G 1G13
  24522514.970    -4265347.31643  -3320259.53042  24522517.456    24522513.632
  21662904.985   -19282821.67343 -14889831.54142  21662906.691    21662902.761
  21514961.664   -20060904.41243 -15606567.57542  21514963.627    21514957.991
  23612144.871    -9507825.22943  -7398542.18442  23612146.877    23612142.282
  20283198.969   -26850413.25043 -20912452.82742  20283200.687    20283195.096
  21201066.759   -16651523.14544 -12965866.47342  21201068.684    21201063.864
  23236844.364   -10742572.96343  -8344130.34142  23236847.019    23236841.589
 03  6  6  2 12  0.0000000  0  7G 4G 2G16G25G20G 1G13
  24517521.866    -4291587.76543  -3340706.62342  24517524.427    24517520.097
  21654854.249   -19325128.28543 -14922797.69142  21654855.928    21654851.985
  21510725.049   -20083168.08543 -15623915.85942  21510726.993    21510721.347
  23628378.439    -9422517.41943  -7332068.59242  23628380.426    23628375.853
  20284680.942   -26842625.32643 -20906384.32342  20284682.650    20284677.091
  21193768.613   -16689875.11044 -12995751.11142  21193770.533    21193765.693
  23222985.992   -10815398.63143  -8400877.58642  23222988.674    23222983.294
 03  6  6  2 12 30.0000000  0  7G 4G 2G16G25G20G 1G13
  24512624.682    -4317321.40243  -3360758.82842  24512627.333    24512623.070
  21646885.740   -19367002.55243 -14955426.93442  21646887.433    21646883.503
  21506595.696   -20104867.87143 -15640824.75242  21506597.651    21506591.969
  23644618.968    -9337173.24843  -7265566.68742  23644620.977    23644616.319
  20286271.242   -26834268.19743 -20899872.28042  20286272.926    20286267.410
  21186497.749   -16728083.82944 -13025524.13042  21186499.623    21186494.782
  23209136.656   -10888177.24343  -8457588.14842  23209139.308    23209133.996
 03  6  6  2 13  0.0000000  0  7G 4G 2G16G25G20G 1G13
  24507824.274    -4342548.25043  -3380416.11742  24507826.813    24507822.778
  21638999.818   -19408443.45043 -14987718.50042  21639001.467    21638997.582
  21502573.708   -20126003.38543 -15657293.95842  21502575.668    21502569.961
  23660866.047    -9251794.52043  -7199037.81442  23660868.105    23660863.291
  20287969.891   -26825341.76743 -20892916.63042  20287971.553    20287966.061
  21179254.115   -16766149.41544 -13055185.61742  21179255.982    21179251.091
  23195296.249   -10960909.08543  -8514262.27442  23195298.881    23195293.560
 03  6  6  2 13 30.0000000  0  7G 4G 2G16G25G20G 1G13
  24503120.871    -4367266.08243  -3399676.74942  24503123.265    24503119.213
  21631196.938   -19449447.85643 -15019669.93942  21631198.577    21631194.707
  21498659.659   -20146571.80943 -15673321.27442  21498661.614    21498655.926
  23677119.728    -9166381.00743  -7132481.86942  23677121.843    23677117.026
  20289777.271   -26815843.90643 -20885515.71142  20289778.929    20289773.466
  21172038.147   -16804069.57744 -13084733.78642  21172039.998    21172035.103
  23181465.114   -11033591.71843  -8570898.05242  23181467.866    23181462.547
 03  6  6  2 14  0.0000000  0  7G 4G 2G16G25G20G 1G13
  24498513.835    -4391476.71343  -3418542.15042  24498516.272    24498512.185
  21623476.946   -19490016.36443 -15051281.71142  21623478.602    21623474.763
  21494853.257   -20166574.22743 -15688907.54842  21494855.253    21494849.517
  23693379.403    -9080935.93043  -7065901.32642  23693381.536    23693376.775
  20291693.075   -26805776.28843 -20877670.82242  20291694.744    20291689.288
  21164849.603   -16841845.67644 -13114169.69842  21164851.463    21164846.548
  23167642.986   -11106226.74243  -8627496.72942  23167645.804    23167640.501
 03  6  6  2 14 30.0000000  0  7G 4G 2G16G25G20G 1G13
  24494003.822    -4415176.14543  -3437009.26242  24494006.446    24494002.418
  21615840.910   -19530144.02143 -15082549.97942  21615842.519    21615838.625
  21491155.461   -20186006.05343 -15704049.21042  21491157.419    21491151.705
  23709645.370    -8995457.21643  -6999294.58042  23709647.607    23709642.845
  20293717.991   -26795135.45743 -20869379.27542  20293719.664    20293714.172
  21157689.232   -16879473.66744 -13143490.20342  21157691.081    21157686.190
  23153830.812   -11178810.44543  -8684055.41242  23153833.545    23153828.172
 03  6  6  2 15  0.0000000  0  7G 4G 2G16G25G20G 1G13
  24489590.397    -4438367.89843  -3455080.74242  24489592.869    24489589.339
  21608288.224   -19569833.27843 -15113476.63442  21608289.878    21608285.966
  21487565.713   -20204870.19643 -15718748.52242  21487567.615    21487561.977
  23725916.865    -8909950.01243  -6932665.65342  23725919.028    23725914.397
  20295851.311   -26783924.72843 -20860643.65542  20295853.019    20295847.499
  21150556.397   -16916956.90644 -13172697.91542  21150558.252    21150553.339
  23140027.693   -11251346.29343  -8740576.81042  23140030.368    23140024.973
 03  6  6  2 15 30.0000000  0  7G 4G 2G16G25G20G 1G13
  24485274.241    -4461047.50843  -3472753.13642  24485276.659    24485273.397
  21600820.043   -19609078.71243 -15144057.44742  21600821.701    21600817.758
  21484084.951   -20223161.35443 -15733001.34842  21484086.857    21484081.227
  23742194.327    -8824411.46343  -6866012.26942  23742196.530    23742191.894
  20298093.936   -26772139.81743 -20851460.61842  20298095.645    20298090.092
  21143452.076   -16954290.48344 -13201789.00642  21143453.932    21143448.950
  23126234.571   -11323829.64043  -8797057.29842  23126237.238    23126231.745
 03  6  6  2 16  0.0000000  0  7G 4G 2G16G25G20G 1G13
  24481055.143    -4483219.80243  -3490030.27442  24481057.498    24481053.872
  21593435.526   -19647884.18543 -15174295.43642  21593437.230    21593433.277
  21480712.468   -20240883.92843 -15746811.12642  21480714.357    21480708.695
  23758476.584    -8738848.11743  -6799339.58342  23758478.731    23758474.155
  20300444.935   -26759785.31443 -20841833.74742  20300446.656    20300441.065
  21136375.323   -16991479.06244 -13230767.11142  21136377.187    21136372.172
  23112450.571   -11396264.93443  -8853500.33442  23112453.219    23112447.726
 03  6  6  2 16 30.0000000  0  7G 4G 2G16G25G20G 1G13
  24476932.846    -4504883.06743  -3506910.74142  24476935.132    24476931.687
  21586135.346   -19686246.80643 -15204188.34942  21586137.027    21586133.053
  21477448.647   -20258035.37343 -15760175.86642  21477450.523    21477444.888
  23774763.726    -8653259.72243  -6732647.37142  23774765.680    23774761.012
  20302904.583   -26746859.69743 -20831761.84242  20302906.323    20302900.719
  21129326.517   -17028520.52044 -13259630.57742  21129328.411    21129323.391
  23098675.971   -11468650.45743  -8909904.61242  23098678.727    23098673.166
 03  6  6  2 17  0.0000000  0  7G 4G 2G16G25G20G 1G13
  24472907.865    -4526033.75843  -3523391.77742  24472910.136    24472907.037
  21578920.301   -19724162.12143 -15233732.71242  21578921.941    21578917.993
  21474294.215   -20274611.75143 -15773092.50842  21474296.130    21474290.483
  23791055.742    -8567644.47543  -6665934.24442  23791057.822    23791053.086
  20305473.570   -26733359.68843 -20821242.36142  20305475.293    20305469.699
  21122306.476   -17065411.15844 -13288376.52142  21122308.335    21122303.316
  23084911.651   -11540982.78043  -8966267.40842  23084914.358    23084908.717
 03  6  6  2 17 30.0000000  0  7G 4G 2G16G25G20G 1G13
  24468980.145    -4546674.73943  -3539475.65442  24468982.463    24468979.239
  21571790.006   -19761631.60743 -15262929.67542  21571791.679    21571787.744
  21471248.875   -20290615.15943 -15785562.68042  21471250.767    21471245.080
  23807352.175    -8482006.53343  -6599203.39542  23807354.265    23807349.299
  20308151.276   -26719288.27243 -20810277.62942  20308153.011    20308147.416
  21115314.673   -17102153.17244 -13317006.65142  21115316.565    21115311.547
  23071156.889   -11613264.33343  -9022590.65942  23071159.626    23071153.943
 03  6  6  2 18  0.0000000  0  7G 4G 2G16G25G20G 1G13
  24465149.263    -4566805.97143  -3555162.33842  24465151.671    24465148.303
  21564744.815   -19798654.33343 -15291778.52342  21564746.461    21564742.514
  21468312.643   -20306044.93943 -15797585.86742  21468314.564    21468308.900
  23823652.514    -8396347.67243  -6532456.28142  23823654.582    23823649.683
  20310937.762   -26704645.34043 -20798867.55942  20310939.472    20310933.902
  21108351.256   -17138746.11444 -13345520.62342  21108353.182    21108348.124
  23057411.788   -11685494.83743  -9078874.11842  23057414.584    23057408.871
 03  6  6  2 18 30.0000000  0  7G 4G 2G16G25G20G 1G13
  24461415.946    -4586424.82143  -3570449.76042  24461418.439    24461414.662
  21557785.306   -19835226.80943 -15320276.52342  21557786.931    21557782.980
  21465486.243   -20320897.91943 -15809159.59942  21465488.145    21465482.415
  23839957.014    -8310666.46443  -6465691.73342  23839959.209    23839954.191
  20313833.468   -26689428.34243 -20787010.16142  20313835.185    20313829.605
  21101416.783   -17175187.06744 -13373916.15742  21101418.682    21101413.625
  23043677.041   -11757671.52343  -9135115.65842  23043679.791    23043673.982
 03  6  6  2 19  0.0000000  0  7G 4G 2G16G25G20G 1G13
  24457779.776    -4605534.56943  -3585340.48642  24457782.291    24457777.884
  21550911.006   -19871351.22643 -15348425.38242  21550912.703    21550908.702
  21462769.086   -20335176.96543 -15820286.10942  21462770.970    21462765.160
  23856265.038    -8224967.41443  -6398913.31142  23856267.189    23856262.246
  20316837.728   -26673640.78343 -20774708.16442  20316839.459    20316833.902
  21094510.621   -17211478.96144 -13402195.54742  21094512.558    21094507.498
  23029951.900   -11829797.32143  -9191317.53742  23029954.601    23029948.832
 03  6  6  2 19 30.0000000  0  7G 4G 2G16G25G20G 1G13
  24454240.891    -4624132.23343  -3599832.19142  24454243.464    24454238.598
  21544122.763   -19907023.50943 -15376221.93342  21544124.454    21544120.437
  21460161.868   -20348878.10143 -15830962.29742  21460163.780    21460157.923
  23872576.607    -8139249.34843  -6332120.02542  23872578.767    23872573.899
  20319951.090   -26657279.76843 -20761959.32942  20319952.832    20319947.301
  21087633.541   -17247618.30144 -13430356.06542  21087635.473    21087630.392
  23016237.142   -11901868.90343  -9247477.17542  23016239.810    23016234.002
 03  6  6  2 20  0.0000000  0  7G 4G 2G16G25G20G 1G13
  24450799.849    -4642215.06543  -3613922.72142  24450802.390    24450797.572
  21537421.355   -19942239.52043 -15403662.94242  21537423.037    21537418.990
  21457665.239   -20361997.94443 -15841185.53142  21457667.170    21457661.265
  23888892.142    -8053510.95943  -6265310.92842  23888894.275    23888889.546
  20323174.112   -26640342.53143 -20748761.48542  20323175.845    20323170.354
  21080786.177   -17283601.56444 -13458394.96042  21080788.098    21080782.980
  23002533.150   -11973883.19843  -9303592.17942  23002535.879    23002530.018
 03  6  6  2 20 30.0000000  0  7G 4G 2G16G25G20G 1G13
  24447455.474    -4659788.90743  -3627616.59642  24447457.882    24447453.605
  21530805.839   -19977004.26743 -15430752.31342  21530807.498    21530803.434
  21455278.145   -20374541.85243 -15850959.98642  21455280.098    21455274.191
  23905210.214    -7967759.08843  -6198491.32142  23905212.291    23905207.647
  20326505.769   -26622834.68143 -20735119.00542  20326507.482    20326501.994
  21073967.484   -17319434.02644 -13486316.35042  21073969.435    21073964.270
  22988839.109   -12045845.66643  -9359666.78842  22988841.826    22988836.005
 03  6  6  2 21  0.0000000  0  7G 4G 2G16G25G20G 1G13
  24444208.895    -4676848.70543  -3640909.95542  24444211.317    24444207.489
  21524277.339   -20011311.67343 -15457485.32342  21524279.008    21524274.934
  21453001.681   -20386504.31143 -15860281.36742  21453003.649    21452997.796
  23921531.517    -7881990.20743  -6131658.45242  23921533.563    23921529.030
  20329946.872   -26604751.69343 -20721028.37042  20329948.555    20329943.058
  21067178.489   -17355110.35044 -13514116.07542  21067180.448    21067175.294
  22975156.078   -12117750.60643  -9415696.58342  22975158.756    22975152.943
 03  6  6  2 21 30.0000000  0  7G 4G 2G16G25G20G 1G13
  24441059.748    -4693396.74243  -3653804.48442  24441062.088    24441058.940
  21517835.648   -20045163.03043 -15483862.97342  21517837.322    21517833.200
  21450835.586   -20397886.95843 -15869150.94542  21450837.540    21450831.727
  23937855.297    -7796208.04943  -6064815.25942  23937857.312    23937852.889
  20333496.942   -26586096.05443 -20706491.51642  20333498.621    20333493.094
  21060418.903   -17390632.20844 -13541795.43842  21060420.857    21060415.729
  22961483.423   -12189600.31943  -9471683.31542  22961486.151    22961480.437
 03  6  6  2 22  0.0000000  0  7G 4G 2G16G25G20G 1G13
  24438007.663    -4709434.77843  -3666301.67142  24438009.959    24438007.178
  21511480.571   -20078558.85243 -15509885.66342  21511482.272    21511478.143
  21448779.654   -20408691.07143 -15877569.71542  21448781.600    21448775.768
  23954181.235    -7710415.24143  -5997963.76042  23954183.333    23954178.780
  20337155.685   -26566869.43643 -20691509.74342  20337157.340    20337151.778
  21053688.484   -17426000.78144 -13569355.35642  21053690.407    21053685.311
  22947821.219   -12261396.12043  -9527628.07142  22947823.892    22947818.185
 03  6  6  2 22 30.0000000  0  7G 4G 2G16G25G20G 1G13
  24435053.123    -4724961.12243  -3678400.10542  24435055.444    24435052.506
  21505212.732   -20111496.18643 -15535551.08642  21505214.463    21505210.339
  21446834.261   -20418914.04543 -15885535.64942  21446836.235    21446830.451
  23970509.112    -7624611.55943  -5931103.75242  23970511.267    23970506.647
  20340923.394   -26547069.99743 -20676081.61542  20340925.053    20340919.469
  21046987.696   -17461213.46544 -13596793.80742  21046989.612    21046984.566
  22934169.551   -12333135.44943  -9583528.80942  22934172.352    22934166.666
 03  6  6  2 23  0.0000000  0  7G 4G 2G16G25G20G 1G13
  24432196.165    -4739976.00443  -3690100.02742  24432198.531    24432195.052
  21499032.349   -20143974.57143 -15560858.88342  21499034.014    21499029.899
  21444999.550   -20428555.91243 -15893048.76942  21445001.475    21444995.672
  23986838.983    -7538798.72943  -5864236.61842  23986841.043    23986836.212
  20344799.937   -26526698.50143 -20660207.72342  20344801.622    20344796.055
  21040316.668   -17496270.03544 -13624110.60642  21040318.557    21040313.525
  22920528.820   -12404817.94443  -9639385.25442  22920531.613    22920525.933
 03  6  6  2 23 30.0000000  0  7G 4G 2G16G25G20G 1G13
  24429436.636    -4754479.02743  -3701401.10742  24429439.092    24429434.543
  21492939.557   -20175992.13943 -15585807.60742  21492941.254    21492937.110
  21443275.532   -20437615.42943 -15900108.11942  21443277.499    21443271.626
  24003170.399    -7452976.85143  -5797362.43742  24003172.451    24003167.478
  20348785.482   -26505754.26543 -20643887.54642  20348787.194    20348781.628
  21033675.570   -17531169.31244 -13651304.84342  21033677.471    21033672.395
  22906898.987   -12476443.02043  -9695196.96242  22906901.768    22906896.063
 03  6  6  2 24  0.0000000  0  7G 4G 2G16G25G20G 1G13
  24426774.194    -4768470.64343  -3712303.65642  24426776.809    24426771.546
  21486934.607   -20207548.23243 -15610396.73942  21486936.287    21486932.154
  21441662.376   -20446092.49643 -15906713.60142  21441664.341    21441658.520
  24019503.008    -7367147.61143  -5730482.57342  24019505.107    24019500.398
  20352879.885   -26484237.99843 -20627121.62842  20352881.633    20352876.040
  21027064.479   -17565910.90744 -13678376.21342  21027066.358    21027061.281
  22893280.078   -12548010.45943  -9750963.74942  22893282.824    22893277.251
 03  6  6  2 24 30.0000000  0  7G 4G 2G16G25G20G 1G13
  24424209.402    -4781948.57443  -3722805.96242  24424211.915    24424206.511
  21481018.177   -20238639.40843 -15634623.60342  21481019.831    21481015.670
  21440160.607   -20453984.25243 -15912863.00442  21440162.590    21440156.765
  24035837.385    -7281310.20943  -5663596.28742  24035839.544    24035834.705
  20357083.601   -26462147.64143 -20609908.37142  20357085.328    20357079.694
  21020483.987   -17600491.75144 -13705322.32542  21020485.859    21020480.756
  22879672.748   -12619517.17943  -9806683.24342  22879675.523    22879669.892
 03  6  6  2 25  0.0000000  0  7G 4G 2G16G25G20G 1G13
  24421741.972    -4794915.26543  -3732909.89042  24421744.507    24421739.186
  21475189.906   -20269266.89243 -15658489.14342  21475191.583    21475187.443
  21438769.907   -20461292.51043 -15918557.73242  21438771.887    21438766.015
  24052172.619    -7195467.76243  -5596706.14442  24052174.778    24052170.135
  20361396.065   -26439485.48743 -20592249.55742  20361397.792    20361392.175
  21013933.816   -17634913.35844 -13732144.35042  21013935.651    21013930.559
  22866076.768   -12690964.85543  -9862356.71442  22866079.467    22866073.786
 03  6  6  2 25 30.0000000  0  7G 4G 2G16G25G20G 1G13
  24419371.927    -4807370.00943  -3742614.89142  24419374.351    24419369.243
  21469450.174   -20299429.10443 -15681992.13642  21469451.868    21469447.717
  21437490.517   -20468016.04843 -15923796.83442  21437492.469    21437486.555
  24068508.599    -7109620.78943  -5529812.43942  24068510.816    24068506.271
  20365817.453   -26416251.10543 -20574144.84842  20365819.165    20365813.531
  21007414.141   -17669174.48444 -13758841.33042  21007415.996    21007410.885
  22852492.035   -12762352.73243  -9917983.61042  22852494.798    22852489.065
 03  6  6  2 26  0.0000000  0  7G 4G 2G16G25G20G 1G13
  24417098.786    -4819315.22043  -3751922.85942  24417101.286    24417096.409
  21463798.834   -20329126.99943 -15705133.32642  21463800.494    21463796.343
  21436322.082   -20474156.61443 -15928581.67842  21436324.010    21436318.002
  24084845.003    -7023772.43143  -5462917.66142  24084847.109    24084842.685
  20370347.292   -26392446.65643 -20555595.93842  20370348.998    20370343.369
  21000924.728   -17703276.41544 -13785414.26442  21000926.613    21000921.498
  22838918.573   -12833681.83543  -9973564.67842  22838921.248    22838915.599
 03  6  6  2 26 30.0000000  0  7G 4G 2G16G25G20G 1G13
  24414923.112    -4830748.05143  -3760831.56842  24414925.532    24414920.993
  21458236.461   -20358357.30143 -15727910.15642  21458238.111    21458233.939
  21435265.040   -20479711.18343 -15932909.89142  21435266.973    21435260.941
  24101181.848    -6937921.67143  -5396021.02242  24101183.933    24101179.679
  20374985.995   -26368070.05143 -20536601.19342  20374987.707    20374982.083
  20994466.238   -17737215.88144 -13811860.59542  20994468.126    20994463.018
  22825356.795   -12904949.14243 -10029097.62342  22825359.528    22825353.859
 03  6  6  2 27  0.0000000  0  8G 4G 2G16G25G27G20G 1G13
  24412843.848    -4841674.35343  -3769345.59442  24412846.206    24412842.109
  21452762.288   -20387124.41243 -15750326.05642  21452763.911    21452759.701
  21434318.619   -20484684.70643 -15936785.35242  21434320.549    21434314.457
  24117517.944    -6852074.51643  -5329127.16042  24117520.143    24117515.789
  24672405.179     -564726.73753   -436498.55852  24672407.276    24672405.593
  20379732.529   -26343126.95743 -20517165.03442  20379734.224    20379728.615
  20988037.794   -17770997.53244 -13838183.95442  20988039.667    20988034.580
  22811805.918   -12976159.49743 -10084586.19042  22811808.622    22811802.921
 03  6  6  2 27 30.0000000  0  8G 4G 2G16G25G27G20G 1G13
  24410861.884    -4852088.95343  -3777460.87142  24410864.293    24410860.634
  21447377.365   -20415422.06543 -15772376.15142  21447379.023    21447374.771
  21433483.750   -20489071.53143 -15940203.64242  21433485.686    21433479.668
  24133854.286    -6766226.74843  -5262232.86542  24133856.343    24133852.182
  24657392.147     -643619.80443   -497973.56442  24657394.165    24657392.817
  20384587.864   -26317612.11943 -20497283.35642  20384589.539    20384583.951
  20981640.547   -17804615.20744 -13864379.54442  20981642.426    20981637.341
  22798267.023   -13047306.94143 -10140025.73042  22798269.702    22798264.001
 03  6  6  2 28  0.0000000  0  8G 4G 2G16G25G27G20G 1G13
  24408977.600    -4861991.46943  -3785177.10642  24408979.974    24408976.507
  21442082.152   -20443248.61543 -15794059.14842  21442083.790    21442079.506
  21432760.761   -20492870.60243 -15943163.94042  21432762.684    21432756.705
  24150190.685    -6680379.11243  -5195338.61342  24150192.743    24150188.418
  24642406.909     -722366.16243   -559334.23242  24642409.049    24642407.750
  20389552.006   -26291525.47743 -20476956.12742  20389553.658    20389548.089
  20975274.765   -17838067.55444 -13890446.30542  20975276.657    20975271.552
  22784740.190   -13118390.43843 -10195415.42242  22784742.940    22784737.239
 03  6  6  2 28 30.0000000  0  8G 4G 2G16G25G27G20G 1G13
  24407190.350    -4871381.69943  -3792494.18042  24407192.850    24407189.828
  21436876.911   -20470602.54543 -15815373.87142  21436878.520    21436874.230
  21432149.802   -20496081.31143 -15945665.77642  21432151.703    21432145.675
  24166526.816    -6594532.20743  -5128445.00142  24166528.873    24166524.719
  24627450.101     -800964.66743   -620579.67342  24627452.255    24627450.886
  20394624.931   -26264866.79543 -20456183.14242  20394626.597    20394621.084
  20968940.728   -17871353.24644 -13916383.20442  20968942.599    20968937.481
  22771225.824   -13189408.64543 -10250754.26742  22771228.596    22771222.786
 03  6  6  2 29  0.0000000  0  8G 4G 2G16G25G27G20G 1G13
  24405500.737    -4880261.66643  -3799413.64042  24405503.087    24405500.006
  21431761.285   -20497485.10343 -15836321.29142  21431762.932    21431758.652
  21431650.425   -20498705.30743 -15947710.43342  21431652.343    21431646.358
  24182862.410    -6508688.97843  -5061554.18342  24182864.478    24182860.221
  24612521.003     -879416.95643   -681711.21642  24612523.121    24612521.694
  20399806.312   -26237638.46743 -20434966.27842  20399807.957    20399802.467
  20962638.099   -17904473.58744 -13942191.25742  20962640.027    20962634.855
  22757723.708   -13260363.01943 -10306043.35742  22757726.380    22757720.568
 03  6  6  2 29 30.0000000  0  8G 4G 2G16G25G27G20G 1G13
  24403907.844    -4888632.80643  -3805936.63742  24403910.150    24403907.063
  21426735.386   -20523896.20943 -15856901.34542  21426737.009    21426732.773
  21431262.635   -20500743.15943 -15949298.35542  21431264.574    21431258.542
  24199196.845    -6422851.38543  -4994667.81842  24199198.923    24199194.585
  24597619.717     -957723.46243   -742729.16542  24597621.774    24597620.200
  20405095.812   -26209841.79343 -20413306.54542  20405097.485    20405092.014
  20956366.984   -17937428.62744 -13967870.50242  20956368.884    20956363.693
  22744233.640   -13331253.77343 -10361282.87642  22744236.317    22744230.378
 03  6  6  2 30  0.0000000  0  8G 4G 2G16G25G27G20G 1G13
  24402412.052    -4896493.19743  -3812061.60542  24402414.415    24402411.305
  21421799.792   -20549832.81543 -15877111.66242  21421801.412    21421797.177
  21430986.831   -20502192.42443 -15950427.64342  21430988.750    21430982.707
  24215530.365    -6337018.50443  -4927785.13942  24215532.389    24215528.128
  24582746.499    -1035881.56143   -803631.39642  24582748.815    24582747.369
  20410493.865   -26181475.02543 -20391202.58342  20410495.526    20410490.062
  20950127.865   -17970215.37144 -13993418.60842  20950129.754    20950124.581
  22730756.221   -13402078.11143 -10416470.64242  22730758.900    22730752.891
 03  6  6  2 30 30.0000000  0  8G 4G 2G16G25G27G20G 1G13
  24401012.895    -4903846.84843  -3817791.72742  24401015.217    24401012.094
  21416953.900   -20575298.04643 -15896954.66942  21416955.538    21416951.319
  21430822.343   -20503056.71843 -15951101.10842  21430824.218    21430818.242
  24231862.109    -6251194.97043  -4860909.69342  24231864.138    24231859.723
  24567900.944    -1113894.67843   -864420.79142  24567903.261    24567901.458
  20415999.547   -26152542.53643 -20368657.79942  20416001.222    20415995.752
  20943920.140   -18002836.90544 -14018837.97442  20943922.074    20943916.932
  22717290.786   -13472839.22443 -10471609.15142  22717293.488    22717287.485
 03  6  6  2 31  0.0000000  0  8G 4G 2G16G25G27G20G 1G13
  24399710.694    -4910690.63643  -3823124.57142  24399713.109    24399709.664
  21412198.634   -20600287.18643 -15916426.69242  21412200.259    21412195.996
  21430769.924   -20503332.16843 -15951315.72842  21430771.797    21430765.838
  24248192.367    -6165378.11843  -4794039.49042  24248194.526    24248190.273
  24553084.076    -1191758.17743   -925093.49842  24553086.464    24553084.790
  20421613.546   -26123040.90243 -20345669.52842  20421615.224    20421609.741
  20937744.798   -18035288.61444 -14044125.00342  20937746.703    20937741.573
  22703838.156   -13543532.89943 -10526695.10642  22703840.892    22703834.895
 03  6  6  2 31 30.0000000  0  8G 4G 2G16G25G27G20G 1G13
  24398505.266    -4917025.03543  -3828060.47842  24398507.779    24398503.950
  21407533.924   -20624800.18843 -15935527.70042  21407535.558    21407531.308
  21430829.462   -20503019.08443 -15951071.75742  21430831.368    21430825.380
  24264521.152    -6079569.53143  -4727175.73142  24264523.285    24264519.223
  24538295.292    -1269472.53743   -985650.04342  24538297.641    24538295.725
  20427335.660   -26092970.99743 -20322238.44542  20427337.348    20427331.883
  20931601.775   -18067570.23844 -14069279.51042  20931603.706    20931598.605
  22690398.528   -13614158.62743 -10581728.12442  22690401.191    22690395.241
 03  6  6  2 32  0.0000000  0  8G 4G 2G16G25G27G20G 1G13
  24397396.704    -4922850.18143  -3832599.55542  24397399.244    24397395.390
  21402959.981   -20648836.06243 -15954256.92842  21402961.611    21402957.395
  21431001.105   -20502117.15543 -15950368.94442  21431003.010    21430997.001
  24280848.383    -5993769.74443  -4660318.77042  24280850.461    24280846.254
  24523535.232    -1347036.91643  -1046089.62042  24523537.492    24523535.993
  20433165.871   -26062333.12143 -20298364.78542  20433167.547    20433162.081
  20925491.362   -18099680.70944 -14094300.64642  20925493.292    20925488.166
  22676971.784   -13684715.82543 -10636707.73042  22676974.454    22676968.655
 03  6  6  2 32 30.0000000  0  8G 4G 2G16G25G27G20G 1G13
  24396383.872    -4928172.66443  -3836746.95642  24396386.348    24396382.469
  21398475.929   -20672399.60543 -15972618.10542  21398477.544    21398473.346
  21431283.767   -20500631.74543 -15949211.47142  21431285.677    21431279.671
  24297172.596    -5907986.02143  -4593474.35942  24297174.593    24297170.445
  24508802.917    -1424456.52943  -1106416.53142  24508805.164    24508802.890
  20439102.950   -26031133.51243 -20274053.41942  20439104.664    20439099.172
  20919412.625   -18131624.77644 -14119192.12042  20919414.555    20919409.412
  22663557.310   -13755209.52343 -10691637.85142  22663559.946    22663554.149
 03  6  6  2 33  0.0000000  0  8G 4G 2G16G25G27G20G 1G13
  24395468.438    -4932984.53243  -3840496.47642  24395470.771    24395466.652
  21394083.386   -20695482.11843 -15990604.45242  21394085.014    21394080.838
  21431678.927   -20498555.01943 -15947593.23242  21431680.845    21431674.886
  24313495.131    -5822211.23743  -4526636.91742  24313497.110    24313492.894
  24494098.920    -1501723.17543  -1166624.02442  24494101.431    24494099.944
  20445148.395   -25999364.71343 -20249298.52942  20445150.102    20445144.594
  20913367.155   -18163393.81844 -14143947.20942  20913369.108    20913363.962
  22650156.629   -13825630.76643 -10746511.51342  22650159.227    22650153.419
 03  6  6  2 33 30.0000000  0  8G 4G 2G16G25G27G20G 1G13
  24394649.202    -4937289.79543  -3843851.22042  24394651.632    24394647.303
  21389781.946   -20718086.46743 -16008218.21042  21389783.546    21389779.312
  21432185.966   -20495890.34043 -15945516.85342  21432187.870    21432181.953
  24329815.087    -5736449.85143  -4459809.86242  24329817.116    24329812.692
  24479424.537    -1578839.76643  -1226714.91442  24479426.742    24479424.520
  20451301.327   -25967031.02643 -20224103.46242  20451303.030    20451297.518
  20907354.519   -18194990.49544 -14168567.99042  20907356.441    20907351.269
  22636769.157   -13895982.49343 -10801331.04642  22636771.771    22636765.823
 03  6  6  2 34  0.0000000  0  8G 4G 2G16G25G27G20G 1G13
  24393925.995    -4941090.06343  -3846812.47842  24393928.404    24393924.029
  21385571.497   -20740212.57843 -16025459.31142  21385573.086    21385568.843
  21432804.728   -20492638.60843 -15942983.02642  21432806.617    21432800.753
  24346132.131    -5650703.37643  -4392994.47342  24346134.176    24346129.646
  24464777.885    -1655806.89643  -1286689.05942  24464780.176    24464778.567
  20457561.461   -25934133.80243 -20198469.27842  20457563.175    20457557.672
  20901374.628   -18226414.90944 -14193054.53842  20901376.566    20901371.382
  22623394.819   -13966264.84243 -10856096.48842  22623397.487    22623391.523
 03  6  6  2 34 30.0000000  0  8G 4G 2G16G25G27G20G 1G13
  24393299.552    -4944382.75143  -3849378.23942  24393301.903    24393297.332
  21381452.657   -20761857.10343 -16042325.15142  21381454.276    21381450.025
  21433535.717   -20488796.94743 -15939989.51642  21433537.603    21433531.809
  24362446.790    -5564970.04943  -4326189.29342  24362448.839    24362444.115
  24450160.159    -1732621.25543  -1346544.29042  24450162.443    24450160.885
  20463929.243   -25900670.75643 -20172394.18942  20463930.960    20463925.450
  20895428.276   -18257663.09244 -14217403.76342  20895430.216    20895425.041
  22610034.397   -14036474.20243 -10910805.04442  22610037.057    22610031.102
 03  6  6  2 35  0.0000000  0  8G 4G 2G16G25G27G20G 1G13
  24392768.361    -4947173.18543  -3851552.60742  24392770.862    24392766.416
  21377424.647   -20783024.18043 -16058818.95142  21377426.286    21377422.037
  21434378.135   -20484370.05743 -15936539.98942  21434379.991    21434374.213
  24378757.389    -5479255.66743  -4259398.91242  24378759.628    24378754.950
  24435571.586    -1809287.19143  -1406283.88942  24435573.683    24435571.922
  20470403.675   -25866647.47443 -20145882.55642  20470405.368    20470399.883
  20889514.702   -18288739.13944 -14241618.85542  20889516.641    20889511.450
  22596686.984   -14106614.96443 -10965460.15942  22596689.603    22596683.764
 03  6  6  2 35 30.0000000  0  8G 4G 2G16G25G27G20G 1G13
  24392333.753    -4949457.80143  -3853332.84442  24392336.081    24392331.728
  21373488.473   -20803708.85043 -16074936.85342  21373490.108    21373485.855
  21435332.740   -20479353.97443 -15932631.34742  21435334.584    21435328.690
  24395065.549    -5393557.29843  -4192620.96342  24395067.732    24395062.955
  24421011.375    -1885800.31743  -1465904.41142  24421013.552    24421011.490
  20476985.365   -25832060.41943 -20118931.62142  20476987.086    20476981.591
  20883634.847   -18319638.04244 -14265695.91442  20883636.765    20883631.583
  22583353.603   -14176682.13143 -11020057.92742  22583356.197    22583350.404
 03  6  6  2 36  0.0000000  0  8G 4G 2G16G25G27G20G 1G13
  24391995.239    -4951236.20843  -3854718.61942  24391997.674    24391993.484
  21369644.375   -20823909.62043 -16090677.68942  21369646.029    21369641.751
  21436399.562   -20473747.65543 -15928262.77942  21436401.451    21436395.540
  24411370.405    -5307874.50043  -4125855.19742  24411372.503    24411367.821
  24406480.535    -1962159.10943  -1525404.52042  24406482.722    24406480.959
  20483674.406   -25796909.27643 -20091541.13842  20483676.118    20483670.641
  20877789.040   -18350357.95244 -14289633.49742  20877790.957    20877785.779
  22570034.604   -14246673.88743 -11074596.93142  22570037.200    22570031.390
 03  6  6  2 36 30.0000000  0  8G 4G 2G16G25G27G20G 1G13
  24391751.682    -4952515.86543  -3855715.76442  24391754.107    24391749.978
  21365891.190   -20843632.78843 -16106046.36742  21365892.850    21365888.568
  21437577.434   -20467558.08043 -15923439.72642  21437579.290    21437573.388
  24427670.804    -5222215.30643  -4059107.78942  24427672.907    24427668.236
  24391978.217    -2038369.84543  -1584789.49642  24391980.348    24391978.088
  20490469.324   -25761201.64943 -20063717.02942  20490471.035    20490465.573
  20871976.149   -18380904.86544 -14313436.28142  20871978.063    20871972.894
  22556728.817   -14316596.23843 -11129081.85942  22556731.469    22556725.529
 03  6  6  2 37  0.0000000  0  8G 4G 2G16G25G27G20G 1G13
  24391604.017    -4953292.09543  -3856320.61642  24391606.502    24391602.265
  21362229.992   -20862872.47544 -16121038.30642  21362231.653    21362227.353
  21438867.198   -20460780.26643 -15918158.30342  21438869.060    21438863.159
  24443967.548    -5136575.49043  -3992375.50242  24443969.604    24443965.084
  24377504.839    -2114427.34743  -1644054.86042  24377507.003    24377504.974
  20497371.023   -25724933.07643 -20035455.80642  20497372.726    20497367.276
  20866197.347   -18411272.59144 -14337099.43842  20866199.244    20866194.112
  22543437.344   -14386443.44643 -11183508.22842  22543440.009    22543434.053
 03  6  6  2 37 30.0000000  0  8G 4G 2G16G25G27G20G 1G13
  24391552.150    -4953564.67543  -3856533.04142  24391554.702    24391550.478
  21358661.103   -20881627.18843 -16135652.35142  21358662.763    21358658.452
  21440269.018   -20453413.27443 -15912417.78542  21440270.900    21440265.010
  24460260.554    -5050954.92643  -3925658.22842  24460262.664    24460258.349
  24363061.083    -2190330.01243  -1703199.73442  24363063.208    24363060.819
  20504379.540   -25688103.10743 -20006757.14442  20504381.229    20504375.798
  20860452.968   -18441459.36544 -14360621.59642  20860454.874    20860449.759
  22530160.479   -14456213.82543 -11237874.70842  22530163.106    22530157.173
 03  6  6  2 38  0.0000000  0  8G 4G 2G16G25G27G20G 1G13
  24391595.887    -4953334.06243  -3856353.35342  24391598.334    24391594.229
  21355184.593   -20899896.17144 -16149887.89842  21355186.232    21355181.944
  21441782.974   -20445457.26243 -15906218.28442  21441784.849    21441778.963
  24476549.808    -4965354.58043  -3858956.63242  24476551.970    24476547.486
  24348646.426    -2266077.52343  -1762223.59742  24348648.827    24348646.508
  20511494.727   -25650712.63643 -19977621.72742  20511496.423    20511490.995
  20854743.230   -18471464.22144 -14384001.99842  20854745.111    20854740.006
  22516898.366   -14525906.34843 -11292180.53442  22516901.062    22516895.121
 03  6  6  2 38 30.0000000  0  8G 4G 2G16G25G27G20G 1G13
  24391734.294    -4952604.59043  -3855784.95942  24391736.647    24391732.959
  21351799.897   -20917682.63143 -16163747.45342  21351801.569    21351797.258
  21443408.290   -20436915.98843 -15899562.73942  21443410.148    21443404.314
  24492834.207    -4879779.10343  -3792274.52142  24492836.344    24492832.036
  24334261.197    -2341673.05943  -1821129.12042  24334263.499    24334261.033
  20518715.705   -25612766.27943 -19948053.15642  20518717.387    20518711.969
  20849067.598   -18501289.97544 -14407242.84642  20849069.463    20849064.326
  22503650.605   -14595523.87343 -11346427.92342  22503653.314    22503647.340
 03  6  6  2 39  0.0000000  0  8G 4G 2G16G25G27G20G 1G13
  24391968.230    -4951375.35743  -3854827.13042  24391970.656    24391966.874
  21348507.453   -20934984.45843 -16177229.37942  21348509.126    21348504.819
  21445145.271   -20427788.04643 -15892450.04742  21445147.140    21445141.286
  24509114.246    -4794227.39543  -3725610.87442  24509116.347    24509112.060
  24319904.857    -2417114.88543  -1879914.82642  24319907.281    24319904.932
  20526042.632   -25574263.12243 -19918050.72042  20526044.320    20526038.885
  20843426.496   -18530934.14244 -14430342.19542  20843428.374    20843423.190
  22490417.505   -14665064.07143 -11400615.05942  22490420.271    22490414.270
 03  6  6  2 39 30.0000000  0  8G 4G 2G16G25G27G20G 1G13
  24392297.157    -4949646.50643  -3853479.97642  24392299.481    24392295.697
  21345307.436   -20951800.45843 -16190332.73442  21345309.100    21345304.779
  21446993.943   -20418073.14343 -15884879.98342  21446995.813    21446989.952
  24525389.312    -4708700.07143  -3658966.16642  24525391.588    24525387.365
  24305577.990    -2492401.76643  -1938579.80342  24305580.393    24305578.230
  20533475.491   -25535203.25643 -19887614.47642  20533477.185    20533471.728
  20837820.260   -18560395.19544 -14453298.85842  20837822.153    20837816.919
  22477199.433   -14734525.40443 -11454740.73642  22477202.186    22477196.187
 03  6  6  2 40  0.0000000  0  8G 4G 2G16G25G27G20G 1G13
  24392721.330    -4947419.55643  -3851744.73442  24392723.565    24392719.401
  21342199.722   -20968131.30543 -16203058.04942  21342201.399    21342197.094
  21448954.122   -20407772.52243 -15876853.51942  21448955.999    21448950.058
  24541659.691    -4623198.92643  -3592341.97342  24541661.849    24541657.768
  24291280.789    -2567534.51843  -1997124.72242  24291282.965    24291280.811
  20541013.908   -25495588.75643 -19856746.04942  20541015.598    20541010.125
  20832248.835   -18589673.13644 -14476112.83342  20832250.740    20832245.499
  22463996.199   -14803908.49343 -11508805.44642  22463998.939    22463993.001
 03  6  6  2 40 30.0000000  0  8G 4G 2G16G25G27G20G 1G13
  24393239.452    -4944695.67343  -3849622.21342  24393241.870    24393237.773
  21339184.452   -20983976.70943 -16215405.09142  21339186.119    21339181.804
  21451025.659   -20396886.60843 -15868370.98042  21451027.559    21451021.588
  24557924.951    -4537724.68043  -3525738.68242  24557927.093    24557922.981
  24277012.583    -2642512.91643  -2055549.31542  24277014.883    24277012.868
  20548657.676   -25455420.54343 -19825446.15642  20548659.348    20548653.909
  20826712.448   -18618767.11044 -14498783.45642  20826714.359    20826709.098
  22450808.129   -14873212.61943 -11562808.63042  22450810.831    22450804.818
 03  6  6  2 41  0.0000000  0  8G 4G 2G16G25G27G20G 1G13
  24393852.666    -4941474.02643  -3847111.85242  24393855.085    24393850.951
  21336261.909   -20999334.76844 -16227372.39642  21336263.598    21336259.259
  21453208.731   -20385414.37843 -15859431.57042  21453210.639    21453204.683
  24574185.111    -4452277.07443  -3459156.11342  24574187.335    24574183.064
  24262774.190    -2717335.20743  -2113852.30542  24262776.384    24262774.439
  20556406.910   -25414698.09943 -19793714.40742  20556408.601    20556403.138
  20821211.460   -18647674.76744 -14521308.90442  20821213.412    20821208.168
  22437635.428   -14942435.16543 -11616748.26042  22437638.209    22437632.157
 03  6  6  2 41 30.0000000  0  8G 4G 2G16G25G27G20G 1G13
  24394559.911    -4937758.04043  -3844216.32142  24394562.280    24394557.999
  21333431.747   -21014207.46043 -16238961.48542  21333433.417    21333429.102
  21455502.948   -20373358.45743 -15850037.34042  21455504.827    21455498.832
  24590439.589    -4366859.39243  -3392596.94242  24590441.733    24590437.500
  24248565.366    -2792003.51343  -2172035.28042  24248567.439    24248565.530
  20564260.921   -25373425.27843 -19761553.78942  20564262.595    20564257.117
  20815745.688   -18676397.77944 -14543690.46942  20815747.606    20815742.353
  22424477.990   -15011578.07343 -11670625.82042  22424480.671    22424474.693
 03  6  6  2 42  0.0000000  0  8G 4G 2G16G25G27G20G 1G13
  24395361.930    -4933544.11543  -3840932.75742  24395364.326    24395359.991
  21330694.806   -21028590.15244 -16250168.76242  21330696.450    21330692.140
  21457908.870   -20360715.08043 -15840185.34942  21457910.782    21457904.766
  24606689.010    -4281468.32443  -3326058.45942  24606691.172    24606686.994
  24234386.433    -2866513.42043  -2230094.87442  24234388.613    24234386.542
  20572220.351   -25331598.28043 -19728961.34142  20572222.063    20572216.548
  20810315.997   -18704930.93744 -14565924.09742  20810317.918    20810312.668
  22411336.628   -15080636.18943 -11724437.32142  22411339.296    22411333.372
 03  6  6  2 42 30.0000000  0  8G 4G 2G16G25G27G20G 1G13
  24396257.736    -4928835.93343  -3837264.03642  24396260.307    24396256.035
  21328050.691   -21042485.03743 -16260995.92542  21328052.327    21328048.013
  21460426.022   -20347487.12043 -15829877.83442  21460427.926    21460421.978
  24622932.535    -4196107.22743  -3259543.38342  24622934.819    24622930.808
  24220237.376    -2940866.94543  -2288032.55642  24220239.664    24220237.562
  20580284.544   -25289220.67943 -19695939.85142  20580286.282    20580280.766
  20804922.146   -18733275.83944 -14588011.03142  20804924.059    20804918.801
  22398211.168   -15149611.11343 -11778183.99842  22398213.767    22398207.854
 03  6  6  2 43  0.0000000  0  8G 4G 2G16G25G27G20G 1G13
  24397247.379    -4923635.78043  -3833212.00242  24397249.949    24397245.522
  21325499.171   -21055893.41744 -16271443.99942  21325500.823    21325496.406
  21463054.022   -20333676.77943 -15819116.52342  21463055.922    21463050.054
  24639170.023    -4110778.56843  -3193053.52742  24639172.162    24639168.310
  24206117.712    -3015065.58643  -2345849.56942  24206119.951    24206117.827
  20588452.957   -25246295.30943 -19662491.53442  20588454.701    20588449.206
  20799563.989   -18761433.17044 -14609951.80742  20799565.880    20799560.632
  22385101.284   -15218503.73543 -11831866.54242  22385103.910    22385098.004
 03  6  6  2 43 30.0000000  0  8G 4G 2G16G25G27G20G 1G13
  24398330.247    -4917944.88943  -3828777.57342  24398332.760    24398328.601
  21323040.199   -21068815.33944 -16281513.00642  21323041.834    21323037.394
  21465792.724   -20319284.82843 -15807902.00642  21465794.634    21465788.758
  24655401.379    -4025483.02843  -3126589.47542  24655403.485    24655399.532
  24192027.628    -3089109.36243  -2403545.91242  24192029.852    24192027.682
  20596725.432   -25202823.43943 -19628617.36942  20596727.150    20596721.673
  20794241.640   -18789402.26944 -14631745.90442  20794243.537    20794238.295
  22372007.235   -15287313.57443 -11885484.58042  22372009.834    22372003.886
 03  6  6  2 44  0.0000000  0  8G 4G 2G16G25G27G20G 1G13
  24399507.449    -4911758.79043  -3823957.23642  24399509.921    24399505.606
  21320674.942   -21081244.97344 -16291198.41942  21320676.573    21320672.132
  21468643.024   -20304306.10543 -15796230.26342  21468644.956    21468639.080
  24671627.039    -3940216.74843  -3060148.27142  24671629.106    24671625.235
  24177968.028    -3162992.52643  -2461117.09142  24177970.292    24177968.162
  20605102.675   -25158800.73743 -19594313.99042  20605104.394    20605098.956
  20788956.359   -18817176.68344 -14653388.30542  20788958.248    20788952.992
  22358930.077   -15356034.32543 -11939033.20442  22358932.670    22358926.710
 03  6  6  2 44 30.0000000  0  8G 4G 2G16G25G27G20G 1G13
  24400777.244    -4905085.40643  -3818757.19442  24400779.753    24400775.620
  21318401.987   -21093188.99844 -16300505.43042  21318403.658    21318399.255
  21471603.571   -20288748.36243 -15784107.33942  21471605.481    21471599.576
  24687845.823    -3854987.23243  -2993735.64342  24687847.826    24687843.883
  24163937.726    -3236721.75343  -2518568.36142  24163940.010    24163937.756
  20613583.200   -25114235.33943 -19559587.73342  20613584.898    20613579.486
  20783706.968   -18844762.51444 -14674883.75742  20783708.864    20783703.584
  22345868.723   -15424672.34843 -11992517.36742  22345871.249    22345865.277
 03  6  6  2 45  0.0000000  0  8G 4G 2G16G25G27G20G 1G13
  24402140.740    -4897920.43843  -3813174.17442  24402143.076    24402139.036
  21316222.585   -21104641.94844 -16309429.79342  21316224.206    21316219.777
  21474675.244   -20272606.72043 -15771529.43842  21474677.119    21474671.242
  24704058.432    -3769790.19143  -2927348.32642  24704060.423    24704056.366
  24149937.814    -3310291.69043  -2575895.47542  24149939.948    24149937.705
  20622167.821   -25069122.97043 -19524435.26042  20622169.510    20622164.098
  20778494.631   -18872153.47344 -14696227.36542  20778496.526    20778491.263
  22332824.310   -15493221.15243 -12045932.01542  22332826.869    22332820.885
 03  6  6  2 45 30.0000000  0  8G 4G 2G16G25G27G20G 1G13
  24403597.294    -4890266.55243  -3807210.13442  24403599.656    24403595.483
  21314136.267   -21115605.24844 -16317972.60142  21314137.933    21314133.497
  21477857.598   -20255883.35143 -15758498.23442  21477859.476    21477853.587
  24720264.160    -3684627.85043  -2860988.09242  24720266.127    24720262.230
  24135967.614    -3383703.65143  -2633099.49442  24135969.813    24135967.832
  20630855.956   -25023466.49043 -19488858.80942  20630857.649    20630852.264
  20773319.242   -18899350.23144 -14717419.63942  20773321.135    20773315.904
  22319796.664   -15561681.64243 -12099277.84842  22319799.261    22319793.258
 03  6  6  2 46  0.0000000  0  8G 4G 2G16G25G27G20G 1G13
  24405146.432    -4882125.33843  -3800866.37342  24405148.744    24405144.782
  21312143.117   -21126079.59444 -16326134.41842  21312144.738    21312140.259
  21481150.345   -20238579.76043 -15745014.91442  21481152.197    21481146.304
  24736463.141    -3599501.72843  -2794656.01742  24736465.166    24736461.156
  24122027.916    -3456958.12543  -2690180.83042  24122029.980    24122027.871
  20639647.257   -24977267.93043 -19452859.95842  20639648.945    20639643.581
  20768180.781   -18926352.83744 -14738460.62242  20768182.676    20768177.483
  22306785.863   -15630053.85343 -12152554.88942  22306788.436    22306782.425
 03  6  6  2 46 30.0000000  0  8G 4G 2G16G25G27G20G 1G13
  24406788.643    -4873495.54943  -3794141.85342  24406791.059    24406787.240
  21310243.439   -21136062.11544 -16333912.98642  21310245.080    21310240.637
  21484553.908   -20220693.85243 -15731077.84342  21484555.777    21484549.863
  24752655.606    -3514410.05643  -2728350.81142  24752657.742    24752653.571
  24108118.476    -3530052.35543  -2747137.24542  24108120.551    24108118.379
  20648542.017   -24930525.66443 -19416437.43042  20648543.700    20648538.319
  20763079.955   -18953157.73544 -14759347.54842  20763081.848    20763076.674
  22293792.462   -15698334.20043 -12205760.34642  22293795.131    22293789.108
 03  6  6  2 47  0.0000000  0  8G 4G 2G16G25G27G20G 1G13
  24408522.484    -4864384.37643  -3787042.29042  24408524.901    24408521.081
  21308436.288   -21145558.94244 -16341313.09442  21308437.883    21308433.394
  21488066.973   -20202232.57543 -15716692.42242  21488068.905    21488062.914
  24768840.229    -3429360.19443  -2662078.20042  24768842.331    24768837.976
  24094238.320    -3602992.44743  -2803973.56842  24094240.363    24094238.311
  20657538.807   -24883247.37043 -19379597.22342  20657540.474    20657535.089
  20758015.768   -18979770.13444 -14780084.47642  20758017.669    20758012.499
  22280815.665   -15766527.99343 -12258898.35642  22280818.299    22280812.223
 03  6  6  2 47 30.0000000  0  8G 4G 2G16G25G27G20G 1G13
  24410349.051    -4854786.77743  -3779563.69842  24410351.452    24410347.529
  21306722.759   -21154563.66544 -16348329.74042  21306724.370    21306719.854
  21491690.557   -20183190.39843 -15701854.36142  21491692.478    21491686.554
  24785017.680    -3344346.54943  -2595833.83342  24785019.837    24785015.629
  24080388.919    -3675771.82643  -2860684.69042  24080390.910    24080388.715
  20666638.568   -24835427.97143 -19342335.38342  20666640.219    20666634.819
  20752989.615   -19006182.91044 -14800665.85142  20752991.504    20752986.301
  22267856.560   -15834628.44643 -12311963.62442  22267859.207    22267853.159
 03  6  6  2 48  0.0000000  0  8G 4G 2G16G25G27G20G 1G13
  24412267.373    -4844706.37043  -3771708.83242  24412269.767    24412266.057
  21305102.414   -21163078.87644 -16354964.94542  21305104.011    21305099.464
  21495424.070   -20163570.77543 -15686566.33842  21495425.982    21495420.060
  24801187.883    -3259372.15643  -2529620.02842  24801189.948    24801185.720
  24066569.619    -3748392.97943  -2917272.49842  24066571.568    24066569.380
  20675840.562   -24787071.44943 -19304655.00142  20675842.190    20675836.767
  20748001.102   -19032397.79344 -14821093.02242  20748002.993    20747997.767
  22254914.964   -15902636.89443 -12364957.21142  22254917.638    22254911.586
 03  6  6  2 48 30.0000000  0  8G 4G 2G16G25G27G20G 1G13
  24414277.612    -4834142.81043  -3763477.53642  24414279.931    24414276.245
  21303575.450   -21171102.83444 -16361217.35642  21303577.076    21303572.544
  21499267.617   -20143372.80943 -15670827.66142  21499269.513    21499263.605
  24817350.629    -3174436.58643  -2463436.46742  24817352.767    24817348.340
  24052780.719    -3820854.09943  -2973735.61942  24052782.731    24052780.257
  20685144.821   -24738177.32443 -19266555.71242  20685146.465    20685141.037
  20743050.697   -19058412.10744 -14841363.90842  20743052.627    20743047.430
  22241991.325   -15970551.00043 -12417877.28342  22241993.969    22241987.976
 03  6  6  2 49  0.0000000  0  8G 4G 2G16G25G27G20G 1G13
  24416379.270    -4823098.66543  -3754871.71842  24416381.652    24416377.866
  21302141.686   -21178637.01544 -16367088.12642  21302143.318    21302138.834
  21503220.800   -20122598.61743 -15654639.97742  21503222.708    21503216.795
  24833505.319    -3089542.20643  -2397285.04142  24833507.563    24833503.186
  24039021.950    -3893156.67243  -3030075.17642  24039024.022    24039021.472
  20694550.784   -24688748.60143 -19228039.83842  20694552.447    20694547.058
  20738138.381   -19084226.37844 -14861478.91342  20738140.320    20738135.172
  22229085.560   -16038371.63143 -12470724.51142  22229088.171    22229082.177
 03  6  6  2 49 30.0000000  0  8G 4G 2G16G25G27G20G 1G13
  24418572.365    -4811573.79043  -3745891.30142  24418574.741    24418571.025
  21300801.467   -21185679.97344 -16372576.12742  21300803.088    21300798.593
  21507283.761   -20101247.67043 -15638002.87542  21507285.646    21507279.746
  24849652.589    -3004688.51343  -2331165.30542  24849654.704    24849650.240
  24025293.568    -3965299.09643  -3086289.94242  24025295.745    24025293.048
  20704058.483   -24638785.36543 -19189107.46842  20704060.148    20704054.755
  20733264.596   -19109838.28344 -14881436.23642  20733266.535    20733261.391
  22216198.010   -16106096.32843 -12523496.98942  22216200.612    22216194.592
 03  6  6  2 50  0.0000000  0  8G 4G 2G16G25G27G20G 1G13
  24420856.518    -4799568.93743  -3736536.89942  24420858.860    24420855.383
  21299554.765   -21192231.19344 -16377680.95442  21299556.413    21299551.910
  21511456.468   -20079320.05243 -15620916.42042  21511458.350    21511452.428
  24865792.051    -2919875.57943  -2265077.33642  24865794.160    24865789.696
  24011595.858    -4037280.56543  -3142379.33142  24011598.041    24011595.165
  20713667.801   -24588288.07143 -19149758.95742  20713669.477    20713664.063
  20728429.621   -19135246.24844 -14901234.63642  20728431.579    20728426.433
  22203328.933   -16173723.66943 -12576193.59742  22203331.594    22203325.521
 03  6  6  2 50 30.0000000  0  8G 4G 2G16G25G27G20G 1G13
  24423231.572    -4787087.80243  -3726811.38742  24423233.850    24423230.551
  21298401.162   -21198293.12244 -16382404.51842  21298402.824    21298398.326
  21515738.140   -20056819.44043 -15603383.47742  21515740.060    21515734.132
  24881922.965    -2835106.65743  -2199023.65542  24881925.169    24881920.766
  23997928.383    -4109103.63943  -3198345.25042  23997930.472    23997927.696
  20723377.992   -24537261.01043 -19109997.63342  20723379.646    20723374.189
  20723633.104   -19160452.05244 -14920875.51642  20723635.059    20723629.904
  22190478.095   -16241255.39343 -12628815.69342  22190480.739    22190474.626
 03  6  6  2 51  0.0000000  0  7G 4G 2G16G27G20G 1G13
  24425698.500    -4774125.21343  -3716710.71242  24425700.777    24425697.173
  21297341.893   -21203859.35744 -16386741.82542  21297343.547    21297339.045
  21520130.014   -20033740.23843 -15585399.67742  21520131.893    21520125.919
  23984292.169    -4180761.68543  -3254182.59642  23984294.268    23984291.475
  20733189.898   -24485699.07143 -19069819.51942  20733191.576    20733186.143
  20718876.458   -19185448.22644 -14940353.04942  20718878.412    20718873.276
  22177646.790   -16308683.93843 -12681357.40342  22177649.511    22177643.372
 03  6  6  2 51 30.0000000  0  7G 4G 2G16G27G20G 1G13
  24428254.513    -4760693.07943  -3706244.08742  24428256.769    24428253.277
  21296375.028   -21208940.25644 -16390700.94942  21296376.685    21296372.161
  21524629.798   -20010093.78143 -15566973.86042  21524631.687    21524625.644
  23970685.490    -4252264.88443  -3309899.29742  23970687.596    23970684.804
  20743101.377   -24433614.10143 -19029233.85242  20743103.033    20743097.615
  20714157.942   -19210244.18744 -14959674.56742  20714159.880    20714154.740
  22164833.336   -16376019.06643 -12733826.31242  22164836.070    22164829.931
 03  6  6  2 52  0.0000000  0  7G 4G 2G16G27G20G 1G13
  24430901.041    -4746786.15443  -3695407.57342  24430903.291    24430899.637
  21295501.732   -21213529.63144 -16394277.06842  21295503.377    21295498.846
  21529238.523   -19985874.65343 -15548101.80842  21529240.436    21529234.369
  23957109.381    -4323607.02743  -3365490.47242  23957111.525    23957108.733
  20753113.239   -24381001.32643 -18988236.91142  20753114.920    20753109.530
  20709478.871   -19234832.73044 -14978834.46242  20709480.818    20709475.684
  22152039.020   -16443253.40143 -12786216.67342  22152041.732    22152035.642
 03  6  6  2 52 30.0000000  0  7G 4G 2G16G27G20G 1G13
  24433637.615    -4732406.17643  -3684202.39442  24433639.928    24433635.855
  21294721.844   -21217628.11044 -16397470.67242  21294723.510    21294718.898
  21533955.984   -19961084.11643 -15528784.50542  21533957.911    21533951.872
  23943563.937    -4394788.31943  -3420956.33342  23943566.086    23943563.366
  20763225.266   -24327862.41643 -18946829.99442  20763226.931    20763221.572
  20704839.445   -19259213.11944 -14997832.15742  20704841.379    20704836.241
  22139263.987   -16510386.40343 -12838528.08642  22139266.664    22139260.629
 03  6  6  2 53  0.0000000  0  7G 4G 2G16G27G20G 1G13
  24436463.607    -4717555.55343  -3672630.48842  24436465.988    24436461.694
  21294035.061   -21221236.85344 -16400282.66242  21294036.762    21294032.160
  21538781.864   -19935724.06743 -15509023.43142  21538783.762    21538777.741
  23930048.959    -4465809.63243  -3476297.56442  23930051.098    23930048.216
  20773436.895   -24274200.17443 -18905015.28742  20773438.553    20773433.216
  20700239.587   -19283385.69144 -15016667.92542  20700241.483    20700236.321
  22126508.209   -16577418.33643 -12890760.73642  22126510.857    22126504.877
 03  6  6  2 53 30.0000000  0  7G 4G 2G16G27G20G 1G13
  24439378.954    -4702235.31843  -3660692.66342  24439381.360    24439377.013
  21293441.588   -21224355.52744 -16402712.78442  21293443.279    21293438.682
  21543715.939   -19909795.43843 -15488819.30642  21543717.815    21543711.823
  23916564.635    -4536670.59843  -3531513.84142  23916566.707    23916563.782
  20783747.917   -24220015.46043 -18862793.45842  20783749.581    20783744.249
  20695679.540   -19307348.99344 -15035340.62642  20695681.405    20695676.260
  22113771.944   -16644347.88143 -12942913.60442  22113774.584    22113768.609
 03  6  6  2 54  0.0000000  0  7G 4G 2G16G27G20G 1G13
  24442383.931    -4686443.42143  -3648387.31142  24442386.309    24442382.093
  21292942.030   -21226980.75544 -16404758.40342  21292943.684    21292939.086
  21548758.706   -19883295.66643 -15468170.12742  21548760.561    21548754.544
  23903111.297    -4607367.55443  -3586602.28242  23903113.362    23903110.521
  20794158.654   -24165306.72143 -18820163.29442  20794160.347    20794154.971
  20691160.186   -19331098.44044 -15053846.68742  20691162.056    20691156.892
  22101056.011   -16711170.45643 -12994983.11542  22101058.635    22101052.663
 03  6  6  2 54 30.0000000  0  7G 4G 2G16G27G20G 1G13
  24445477.142    -4670189.01443  -3635721.53642  24445479.489    24445475.019
  21292534.820   -21229120.48344 -16406425.70842  21292536.469    21292531.901
  21553908.539   -19856233.13843 -15447082.43742  21553910.428    21553904.358
  23889687.946    -4677908.10543  -3641568.89042  23889689.992    23889687.042
  20804667.416   -24110082.90543 -18777131.77342  20804669.108    20804663.750
  20686680.225   -19354640.75944 -15072191.35042  20686682.102    20686676.926
  22088359.167   -16777892.73543 -13046974.47842  22088361.814    22088355.776
 03  6  6  2 55  0.0000000  0  7G 4G 2G16G27G20G 1G13
  24448659.290    -4653466.36243  -3622690.92042  24448661.733    24448657.599
  21292221.339   -21230767.96144 -16407709.44542  21292222.977    21292218.393
  21559166.444   -19828602.30143 -15425551.91242  21559168.362    21559162.313
  23876295.522    -4748285.26143  -3696408.17342  23876297.661    23876294.570
  20815275.193   -24054338.67343 -18733694.74042  20815276.879    20815271.552
  20682241.182   -19377968.07544 -15090368.47742  20682243.063    20682237.888
  22075682.954   -16844506.80343 -13098881.52242  22075685.554    22075679.502
 03  6  6  2 55 30.0000000  0  7G 4G 2G16G27G20G 1G13
  24451929.737    -4636279.10443  -3609298.28342  24451932.195    24451928.240
  21292001.091   -21231925.35044 -16408611.29542  21292002.725    21291998.110
  21564531.946   -19800406.36943 -15403581.04742  21564533.880    21564527.807
  23862933.869    -4818501.09443  -3751121.69942  23862935.893    23862933.031
  20825981.292   -23998077.81243 -18689855.13742  20825982.991    20825977.648
  20677842.768   -19401081.56444 -15108378.98642  20677844.653    20677839.538
  22063027.072   -16911014.08443 -13150705.35542  22063029.671    22063023.593
 03  6  6  2 56  0.0000000  0  7G 4G 2G16G27G20G 1G13
  24455288.133    -4618631.41643  -3595546.83542  24455290.460    24455286.592
  21291873.560   -21232595.62744 -16409133.57742  21291875.224    21291870.536
  21570004.251   -19771649.18043 -15381172.85042  21570006.170    21570000.139
  23849602.443    -4888558.06443  -3805711.49142  23849604.463    23849601.567
  20836784.890   -23941304.68043 -18645616.36242  20836786.565    20836781.227
  20673484.780   -19423982.92544 -15126224.20442  20673486.633    20673481.535
  22050391.081   -16977416.26443 -13202447.29542  22050393.727    22050387.644
 03  6  6  2 56 30.0000000  0  7G 4G 2G16G27G20G 1G13
  24458734.616    -4600520.46543  -3581434.42942  24458736.862    24458732.977
  21291839.428   -21232774.90144 -16409273.26042  21291841.080    21291836.427
  21575583.976   -19742327.41343 -15358324.72042  21575585.919    21575579.877
  23836302.041    -4958451.94743  -3860174.19442  23836304.022    23836301.132
  20847686.448   -23884016.63843 -18600976.35842  20847688.122    20847682.794
  20669168.173   -19446666.83344 -15143899.97842  20669170.016    20669164.912
  22037776.224   -17043707.79143 -13254103.01942  22037778.865    22037772.766
 03  6  6  2 57  0.0000000  0  7G 4G 2G16G27G20G 1G13
  24462269.150    -4581946.68243  -3566961.34342  24462271.504    24462267.318
  21291898.910   -21232462.21644 -16409029.59542  21291900.560    21291895.901
  21581271.173   -19712441.03143 -15335036.62142  21581273.096    21581267.036
  23823032.789    -5028181.46543  -3914508.81042  23823034.890    23823031.972
  20858685.890   -23826214.24943 -18555935.55442  20858687.581    20858682.234
  20664893.413   -19469130.90244 -15161404.44842  20664895.274    20664890.114
  22025182.829   -17109886.44543 -13305670.78942  22025185.449    22025179.342
 03  6  6  2 57 30.0000000  0  7G 4G 2G16G27G20G 1G13
  24465890.387    -4562916.72243  -3552132.85042  24465892.675    24465888.851
  21292051.049   -21231663.02044 -16408406.83642  21292052.670    21292047.976
  21587064.588   -19681996.28743 -15311313.44142  21587066.524    21587060.484
  23809793.851    -5097751.79743  -3968719.38042  23809795.986    23809793.057
  20869781.927   -23767904.08543 -18510499.08842  20869783.628    20869778.321
  20660659.668   -19491379.39644 -15178740.93442  20660661.531    20660656.347
  22012610.040   -17175956.73543 -13357154.11242  22012612.636    22012606.553
 03  6  6  2 58  0.0000000  0  7G 4G 2G16G27G20G 1G13
  24469599.015    -4543427.87043  -3536946.76942  24469601.240    24469597.239
  21292296.444   -21230373.43244 -16407401.95242  21292298.084    21292293.380
  21592964.840   -19650990.41943 -15287153.02442  21592966.722    21592960.721
  23796586.153    -5167158.53543  -4022802.47042  23796588.247    23796585.440
  20880975.079   -23709083.84743 -18464665.16442  20880976.759    20880971.488
  20656467.917   -19513407.01544 -15195905.30942  20656469.810    20656464.633
  22000058.914   -17241913.21243 -13408548.74642  22000061.511    22000055.471
 03  6  6  2 58 30.0000000  0  7G 4G 2G16G27G20G 1G13
  24473393.602    -4523486.73743  -3521408.25442  24473395.823    24473392.081
  21292634.190   -21228598.56744 -16406018.92542  21292635.834    21292631.096
  21598970.669   -19619429.52443 -15262560.11342  21598972.583    21598966.530
  23783408.569    -5236406.87443  -4076762.14242  23783410.746    23783407.819
  20892263.970   -23649760.37843 -18418439.10942  20892265.666    20892260.409
  20652317.449   -19535217.84444 -15212900.75642  20652319.320    20652314.147
  21987528.663   -17307759.86843 -13459857.80642  21987531.268    21987525.259
 03  6  6  2 59  0.0000000  0  7G 4G 2G16G27G20G 1G13
  24477275.542    -4503087.49443  -3505512.78042  24477277.734    24477273.957
  21293065.564   -21226331.44144 -16404252.32542  21293067.223    21293062.468
  21605083.295   -19587307.39043 -15237529.87342  21605085.207    21605079.170
  23770262.611    -5305489.16143  -4130592.39842  23770264.741    23770261.810
  20903649.738   -23589927.77643 -18371816.33142  20903651.432    20903646.223
  20648209.843   -19556803.47244 -15229720.72342  20648211.696    20648206.545
  21975020.827   -17373488.38443 -13511074.80642  21975023.501    21975017.573
 03  6  6  2 59 30.0000000  0  7G 4G 2G16G27G20G 1G13
  24481243.111    -4482237.76743  -3489266.28142  24481245.279    24481241.283
  21293589.425   -21223578.56044 -16402107.21442  21293591.054    21293586.322
  21611301.282   -19554631.49443 -15212068.13542  21611303.193    21611297.190
  23757146.923    -5374411.68243  -4184298.16642  23757149.076    23757146.174
  20915130.873   -23529594.17643 -18324803.16742  20915132.552    20915127.366
  20644144.121   -19578168.94144 -15246369.14442  20644146.003    20644140.822
  21962534.661   -17439103.66643 -13562203.57942  21962537.305    21962531.362
 03  6  6  3  0  0.0000000  0  7G 4G 2G16G27G20G 1G13
  24485296.806    -4460935.66943  -3472667.27842  24485299.023    24485295.076
  21294206.366   -21220336.49744 -16399580.92142  21294207.969    21294203.302
  21617625.130   -19521399.27743 -15186172.89942  21617627.065    21617621.117
  23744062.601    -5443170.49743  -4237876.40242  23744064.752    23744061.702
  20926707.782   -23468757.31943 -18277397.85342  20926709.450    20926704.263
  20640121.285   -19599309.35844 -15262842.19542  20640123.164    20640117.949
  21950070.940   -17504600.99543 -13613240.44542  21950073.619    21950067.673
 03  6  6  3  0 30.0000000  0  7G 4G 2G16G27G20G 1G13
  24489436.169    -4439183.72243  -3455717.76042  24489438.428    24489434.524
  21294916.076   -21216606.68944 -16396674.57042  21294917.704    21294913.042
  21624054.417   -19487613.09243 -15159845.99642  21624056.348    21624050.445
  23731009.122    -5511766.59843  -4291327.82542  23731011.335    23731008.214
  20938379.865   -23407420.04743 -18229602.61242  20938381.540    20938376.372
  20636141.255   -19620224.78044 -15279139.92742  20636143.142    20636137.889
  21937629.735   -17569980.34743 -13664185.39142  21937632.363    21937626.345
 03  6  6  3  1  0.0000000  0  7G 4G 2G16G27G20G 1G13
  24493660.068    -4416986.05443  -3438420.91942  24493662.459    24493658.786
  21295718.010   -21212392.46944 -16393390.75342  21295719.644    21295714.956
  21630588.386   -19453276.99443 -15133090.59342  21630590.295    21630584.382
  23717986.176    -5580202.93743  -4344654.75542  23717988.269    23717985.106
  20950146.293   -23345587.16043 -18181421.17542  20950147.975    20950142.794
  20632203.673   -19640916.90644 -15295263.65642  20632205.607    20632200.331
  21925210.490   -17635243.70643 -13715039.94542  21925213.121    21925207.122
 03  6  6  3  1 30.0000000  0  7G 4G 2G16G27G20G 1G13
  24497969.127    -4394342.19643  -3420776.40442  24497971.495    24497967.934
  21296612.548   -21207691.66544 -16389727.77942  21296614.164    21296609.464
  21637227.133   -19418389.92143 -15105905.85542  21637229.081    21637223.174
  23704994.005    -5648476.96443  -4397855.22642  23704996.045    23704992.828
  20962007.173   -23283257.95143 -18132852.99042  20962008.873    20962003.677
  20628309.192   -19661382.34144 -15311210.74042  20628311.150    20628305.880
  21912814.040   -17700387.19643 -13765801.09342  21912816.655    21912810.654
 03  6  6  3  2  0.0000000  0  7G 4G 2G16G27G20G 1G13
  24502363.183    -4371251.86743  -3402783.97142  24502365.464    24502361.725
  21297599.916   -21202502.80944 -16385684.50342  21297601.544    21297596.843
  21643970.870   -19382951.46243 -15078291.47042  21643972.802    21643966.850
  23692033.155    -5716586.72843  -4450927.69542  23692035.158    23692031.914
  20973962.498   -23220432.40043 -18083898.04642  20973964.200    20973959.011
  20624458.442   -19681618.06844 -15326978.83842  20624460.400    20624455.155
  21900440.983   -17765408.03343 -13816466.66342  21900443.571    21900437.577
 03  6  6  3  2 30.0000000  0  7G 4G 2G16G27G20G 1G13
  24506841.604    -4347718.24943  -3384446.15242  24506843.763    24506840.107
  21298679.804   -21196828.00644 -16381262.57442  21298681.389    21298676.712
  21650818.955   -19346964.31143 -15050249.53242  21650820.908    21650814.922
  23679103.207    -5784533.84743  -4503873.41942  23679105.263    23679101.986
  20986011.684   -23157113.82643 -18034558.92942  20986013.357    20986008.168
  20620651.324   -19701624.59144 -15342568.33642  20620653.240    20620648.019
  21888091.216   -17830306.49443 -13867036.88042  21888093.802    21888087.782
 03  6  6  3  3  0.0000000  0  7G 4G 2G16G27G20G 1G13
  24511403.666    -4323745.10643  -3365765.83942  24511405.832    24511402.177
  21299851.703   -21190669.63444 -16376463.83342  21299853.280    21299848.613
  21657770.857   -19310431.96143 -15021782.76342  21657772.750    21657766.785
  23666203.687    -5852320.25443  -4556693.92442  23666205.765    23666202.627
  20998153.879   -23093306.13543 -17984838.67742  20998155.569    20998150.379
  20616887.664   -19721402.84944 -15357979.96042  20616889.540    20616884.319
  21875764.481   -17895083.57143 -13917512.50942  21875767.111    21875761.084
 03  6  6  3  3 30.0000000  0  7G 4G 2G16G27G20G 1G13
  24516049.380    -4299332.08843  -3346742.74942  24516051.659    24516047.753
  21301115.899   -21184025.97444 -16371286.94642  21301117.518    21301112.843
  21664826.634   -19273353.54443 -14992890.48342  21664828.541    21664822.558
  23653335.203    -5919943.75343  -4609387.47842  23653337.319    23653334.114
  21010389.267   -23029009.02443 -17934737.05242  21010390.935    21010385.721
  20613167.989   -19740949.68544 -15373211.25342  20613169.885    20613164.648
  21863461.492   -17959735.94443 -13967890.95642  21863464.122    21863458.120
 03  6  6  3  4  0.0000000  0  7G 4G 2G16G27G20G 1G13
  24520778.262    -4274480.68743  -3327378.10142  24520780.591    24520776.991
  21302472.405   -21176897.44744 -16365732.24142  21302474.005    21302469.354
  21671986.076   -19235730.49843 -14963573.81742  21671987.948    21671981.992
  23640497.948    -5987404.17943  -4661953.98542  23640500.015    23640496.815
  21022717.392   -22964224.30643 -17884255.48642  21022719.090    21022713.894
  20609492.602   -19760263.94144 -15388261.31442  20609494.516    20609489.240
  21851182.510   -18024262.43643 -14018171.31642  21851185.140    21851179.101
 03  6  6  3  4 30.0000000  0  7G 4G 2G16G27G20G 1G13
  24525590.639    -4249192.72243  -3307673.24942  24525592.846    24525589.062
  21303921.048   -21169284.55144 -16359800.10642  21303922.666    21303918.021
  21679248.855   -19197564.27743 -14933833.90342  21679250.748    21679244.812
  23627691.589    -6054701.71643  -4714393.55142  23627693.714    23627690.503
  21035137.945   -22898954.02143 -17833395.55542  21035139.622    21035134.455
  20605861.652   -19779344.51444 -15403129.29342  20605863.564    20605858.316
  21838927.731   -18088661.82343 -14068352.63442  21838930.338    21838924.331
 03  6  6  3  5  0.0000000  0  7G 4G 2G16G27G20G 1G13
  24530484.951    -4223472.40043  -3287631.46442  24530487.315    24530483.494
  21305461.326   -21161190.39144 -16353492.96142  21305462.952    21305458.286
  21686614.312   -19158858.87743 -14903673.84842  21686616.187    21686610.254
  23614915.808    -6121838.82343  -4766708.11542  23614917.835    23614914.739
  21047650.099   -22833202.43243 -17782160.58942  21047651.765    21047646.599
  20602274.999   -19798192.67044 -15417816.15942  20602276.891    20602271.643
  21826696.878   -18152935.46243 -14118435.96942  21826699.473    21826693.453
 03  6  6  3  5 30.0000000  0  7G 4G 2G16G27G20G 1G13
  24535461.918    -4197319.38043  -3267252.52542  24535464.306    24535460.259
  21307093.453   -21152613.33044 -16346809.52542  21307095.125    21307090.442
  21694082.417   -19119613.60143 -14873093.11242  21694084.345    21694078.404
  23602170.923    -6188813.29243  -4818895.96242  23602173.020    23602169.784
  21060253.826   -22766969.47643 -17730550.53342  21060255.495    21060250.349
  20598733.128   -19816805.33444 -15432319.52642  20598735.039    20598729.776
  21814490.469   -18217080.16043 -14168418.82442  21814493.082    21814487.138
 03  6  6  3  6  0.0000000  0  7G 4G 2G16G27G20G 1G13
  24540521.033    -4170732.84443  -3246535.80642  24540523.379    24540519.603
  21308817.959   -21143550.94844 -16339747.92142  21308819.641    21308814.950
  21701653.548   -19079826.99843 -14842090.56042  21701655.488    21701649.557
  23589457.702    -6255622.17543  -4870954.76842  23589459.769    23589456.426
  21072949.380   -22700254.11543 -17678564.57442  21072951.027    21072945.894
  20595236.860   -19835178.43144 -15446636.22042  20595238.754    20595233.497
  21802309.429   -18281091.77843 -14218297.98642  21802312.028    21802306.110
 03  6  6  3  6 30.0000000  0  7G 4G 2G16G27G20G 1G13
  24545661.559    -4143719.35043  -3225486.42642  24545663.895    24545660.269
  21310633.678   -21134009.16944 -16332312.75942  21310635.376    21310630.694
  21709326.500   -19039505.54043 -14810671.24042  21709328.409    21709322.473
  23576774.742    -6322270.92943  -4922888.78942  23576776.901    23576773.492
  21085735.390   -22633063.44943 -17626208.24342  21085737.039    21085731.894
  20591785.340   -19853316.17844 -15460769.52042  20591787.252    20591782.005
  21790153.022   -18344974.21343 -14268076.48142  21790155.644    21790149.635
 03  6  6  3  7  0.0000000  0  7G 4G 2G16G27G20G 1G13
  24550883.384    -4116279.24643  -3204104.57042  24550885.570    24550882.036
  21312540.890   -21123986.95044 -16324503.22842  21312542.553    21312537.860
  21717101.109   -18998649.36543 -14778835.26242  21717103.059    21717097.089
  23564122.651    -6388757.65243  -4974696.54842  23564124.835    23564121.402
  21098611.765   -22565397.88043 -17573481.85942  21098613.427    21098608.239
  20588379.161   -19871215.65544 -15474717.15342  20588381.085    20588375.822
  21778021.682   -18408724.76843 -14317752.21242  21778024.321    21778018.297
 03  6  6  3  7 30.0000000  0  7G 4G 2G16G27G20G 1G13
  24556186.285    -4088413.06343  -3182390.73842  24556188.496    24556184.834
  21314539.639   -21113483.51044 -16316318.72242  21314541.263    21314536.579
  21724977.490   -18957258.55743 -14746582.68442  21724979.443    21724973.489
  23551501.702    -6455081.08843  -5026377.07242  23551503.860    23551500.451
  21111578.340   -22497258.18943 -17520386.03842  21111580.016    21111574.804
  20585018.805   -19888874.37044 -15488477.18642  20585020.706    20585015.483
  21765915.949   -18472340.71343 -14367323.05342  21765918.589    21765912.522
 03  6  6  3  8  0.0000000  0  7G 4G 2G16G27G20G 1G13
  24561569.228    -4060124.55543  -3160347.80142  24561571.401    24561567.973
  21316629.395   -21102501.63644 -16307761.40542  21316631.048    21316626.333
  21732954.889   -18915336.94743 -14713916.49042  21732956.822    21732950.893
  23538911.326    -6521243.35243  -5077932.02042  23538913.501    23538910.083
  21124634.361   -22428648.37643 -17466923.88142  21124636.049    21124630.846
  20581704.069   -19906293.31344 -15502050.37842  20581705.966    20581700.741
  21753835.602   -18535823.25143 -14416789.93842  21753838.262    21753832.197
 03  6  6  3  8 30.0000000  0  7G 4G 2G16G27G20G 1G13
  24567033.107    -4031411.74343  -3137974.22742  24567035.270    24567031.751
  21318810.899   -21091037.72944 -16298828.48042  21318812.576    21318807.829
  21741033.811   -18872881.87543 -14680834.61942  21741035.733    21741029.813
  23526352.501    -6587240.46843  -5129358.26942  23526354.628    23526351.203
  21137780.246   -22359566.35343 -17413093.76842  21137781.905    21137776.730
  20578436.002   -19923467.15144 -15515432.57842  20578437.905    20578432.648
  21741781.730   -18599166.83543 -14466148.56142  21741784.374    21741778.286
 03  6  6  3  9  0.0000000  0  7G 4G 2G16G27G20G 1G13
  24572576.629    -4002280.65943  -3115274.73842  24572578.875    24572575.334
  21321083.203   -21079096.91744 -16289523.94342  21321084.832    21321080.124
  21749213.174   -18829899.27543 -14647341.68442  21749215.067    21749209.120
  23513824.241    -6653076.66143  -5180659.14042  23513826.398    23513822.855
  21151014.742   -22290018.57843 -17358900.73242  21151016.402    21151011.251
  20575213.962   -19940399.12444 -15528626.31442  20575215.872    20575210.611
  21729753.692   -18662374.41043 -14515401.19042  21729756.358    21729750.273
 03  6  6  3  9 30.0000000  0  7G 4G 2G16G27G20G 1G13
  24578199.650    -3972732.64343  -3092250.37942  24578201.755    24578198.208
  21323446.180   -21066679.18144 -16279847.77742  21323447.848    21323443.132
  21757492.711   -18786390.24843 -14613438.55242  21757494.553    21757488.657
  23501326.593    -6718751.44343  -5231834.21142  23501328.775    23501325.283
  21164337.576   -22220006.43643 -17304345.84842  21164339.244    21164334.155
  20572038.235   -19957087.67744 -15541630.37642  20572040.154    20572034.907
  21717751.830   -18725444.63043 -14564546.79542  21717754.445    21717748.410
 03  6  6  3 10  0.0000000  0  7G 4G 2G16G27G20G 1G13
  24583901.576    -3942768.76943  -3068901.97642  24583903.718    24583900.244
  21325899.988   -21053784.33344 -16269799.83042  21325901.661    21325896.888
  21765872.232   -18742355.45743 -14579125.72742  21765874.095    21765868.192
  23488859.867    -6784263.90043  -5282882.80442  23488862.035    23488858.624
  21177748.588   -22149531.11943 -17249430.05142  21177750.243    21177745.233
  20568909.214   -19973530.67744 -15554443.09742  20568911.142    20568905.928
  21705776.525   -18788375.06643 -14613583.48542  21705779.158    21705773.112
 03  6  6  3 10 30.0000000  0  7G 4G 2G16G27G20G 1G13
  24589682.689    -3912389.13643  -3045229.58042  24589684.943    24589681.240
  21328444.791   -21040411.25144 -16259379.23442  21328446.465    21328441.692
  21774351.873   -18697794.71943 -14544403.07242  21774353.731    21774347.795
  23476424.511    -6849612.34943  -5333803.60742  23476426.635    23476423.112
  21191247.710   -22078593.02343 -17194153.63942  21191249.351    21191244.357
  20565827.531   -19989725.18344 -15567062.18142  20565829.429    20565824.233
  21693828.446   -18851162.74543 -14662508.93142  21693831.036    21693824.980
 03  6  6  3 11  0.0000000  0  7G 4G 2G16G27G20G 1G13
  24595542.282    -3881597.26743  -3021235.96742  24595544.482    24595540.707
  21331080.189   -21026562.13444 -16248587.69742  21331081.864    21331077.061
  21782930.952   -18652711.32843 -14509273.16642  21782932.821    21782926.899
  23464019.916    -6914798.36743  -5384597.81542  23464022.031    23464018.617
  21204834.197   -22007195.81543 -17138519.48342  21204835.873    21204830.830
  20562793.033   -20005671.46644 -15579487.84942  20562794.941    20562789.765
  21681907.484   -18913807.65043 -14711323.12942  21681910.090    21681904.003
 03  6  6  3 11 30.0000000  0  7G 4G 2G16G27G20G 1G13
  24601479.657    -3850396.39043  -2996923.65242  24601481.938    24601478.082
  21333805.683   -21012239.35444 -16237427.07842  21333807.371    21333802.586
  21791608.820   -18607108.45443 -14473738.46442  21791610.714    21791604.834
  23451646.000    -6979823.45243  -5435266.65942  23451648.074    23451644.727
  21218507.398   -21935342.91243 -17082530.23942  21218509.083    21218503.996
  20559805.708   -20021369.98744 -15591720.45742  20559807.620    20559802.435
  21670013.627   -18976310.02143 -14760026.26842  21670016.258    21670010.182
 03  6  6  3 12  0.0000000  0  7G 4G 2G16G27G20G 1G13
  24607494.558    -3818787.60443  -2972293.48742  24607496.953    24607492.981
  21336621.445   -20997442.40244 -16225896.97542  21336623.118    21336618.357
  21800385.594   -18560986.23943 -14437799.07942  21800387.475    21800381.571
  23439302.966    -7044686.29743  -5485809.07842  23439305.060    23439301.676
  21232267.114   -21863035.28543 -17026186.67342  21232268.813    21232263.713
  20556865.969   -20036818.26544 -15603758.07442  20556867.898    20556862.711
  21658147.393   -19038667.50743 -14808616.50442  21658150.011    21658143.928
 03  6  6  3 12 30.0000000  0  7G 4G 2G16G27G20G 1G13
  24613586.670    -3786772.52043  -2947346.73942  24613588.964    24613585.505
  21339527.338   -20982171.88244 -16213997.85442  21339528.948    21339524.210
  21809260.874   -18514346.68243 -14401456.57042  21809262.737    21809256.771
  23426990.814    -7109386.87643  -5536225.03342  23426992.916    23426989.537
  21246112.999   -21790274.96043 -16969490.34742  21246114.681    21246109.534
  20553974.094   -20052015.07244 -15615599.73842  20553976.037    20553970.819
  21646308.966   -19100878.74343 -14857092.77942  21646311.561    21646305.495
 03  6  6  3 13  0.0000000  0  7G 4G 2G16G27G20G 1G13
  24619756.022    -3754353.14643  -2922084.97942  24619758.158    24619754.821
  21342523.173   -20966428.52344 -16201730.29042  21342524.796    21342520.041
  21818234.221   -18467191.31143 -14364712.12742  21818236.142    21818230.129
  23414709.419    -7173925.37343  -5586514.69042  23414711.572    23414708.246
  21260044.601   -21717064.02943 -16912442.90742  21260046.290    21260041.133
  20551130.277   -20066959.28744 -15627244.57642  20551132.229    20551127.029
  21634498.632   -19162942.68143 -14905454.27842  21634501.198    21634495.104
 03  6  6  3 13 30.0000000  0  7G 4G 2G16G27G20G 1G13
  24626001.695    -3721532.61943  -2896510.58942  24626003.827    24626000.269
  21345608.626   -20950214.21444 -16189095.74942  21345610.237    21345605.518
  21827305.249   -18419522.79443 -14327567.83742  21827307.138    21827301.163
  23402458.816    -7238302.87743  -5636678.92242  23402460.906    23402457.571
  21274061.328   -21643405.71343 -16855046.85842  21274063.047    21274057.881
  20548334.578   -20081650.79044 -15638692.49742  20548336.519    20548331.336
  21622716.510   -19224858.40443 -14953700.28342  21622719.098    21622712.908
 03  6  6  3 14  0.0000000  0  7G 4G 2G16G27G20G 1G13
  24632323.938    -3688309.38443  -2870622.39742  24632326.063    24632322.351
  21348784.188   -20933526.36744 -16176092.21642  21348785.813    21348781.096
  21836474.189   -18371339.52543 -14290022.43842  21836476.119    21836470.139
  23390239.507    -7302515.77843  -5686714.88642  23390241.513    23390238.159
  21288163.453   -21569298.88443 -16797301.31842  21288165.155    21288159.994
  20545587.862   -20096084.88044 -15649939.83442  20545589.795    20545584.592
  21610963.437   -19286621.32343 -15001827.22142  21610966.043    21610959.793
 03  6  6  3 14 30.0000000  0  7G 4G 2G16G27G20G 1G13
  24638721.538    -3654690.08043  -2844425.59242  24638723.686    24638720.048
  21352048.871   -20916370.28544 -16162723.82642  21352050.499    21352045.780
  21845739.948   -18322647.85043 -14252080.87742  21845741.836    21845735.843
  23378050.552    -7366568.87343  -5736626.32142  23378052.607    23378049.130
  21302349.567   -21494750.29343 -16739211.54042  21302351.269    21302346.142
  20542889.463   -20110265.02544 -15660989.29542  20542891.396    20542886.174
  21599238.770   -19348234.86343 -15049837.75742  21599241.403    21599235.104
 03  6  6  3 15  0.0000000  0  7G 4G 2G16G27G20G 1G13
  24645194.046    -3620677.41543  -2817922.29442  24645196.249    24645192.659
  21355402.429   -20898747.24544 -16148991.57142  21355404.046    21355399.293
  21855101.967   -18273450.27243 -14213745.10442  21855103.860    21855097.841
  23365892.006    -7430462.70443  -5786413.65542  23365894.044    23365890.477
  21316619.276   -21419762.54343 -16680779.56242  21316620.979    21316615.855
  20540239.469   -20124190.68544 -15671840.45642  20540241.439    20540236.199
  21587542.690   -19409698.14543 -15097731.20842  21587545.334    21587539.057
 03  6  6  3 15 30.0000000  0  8G 4G 2G16G27G20G 3G 1G13
  24651741.024    -3586273.35843  -2791113.97442  24651743.263    24651739.767
  21358844.641   -20880658.22144 -16134896.21542  21358846.278    21358841.499
  21864559.934   -18223748.31243 -14175016.30942  21864561.866    21864555.847
  23353763.625    -7494197.37843  -5836076.98942  23353765.732    23353762.057
  21330972.096   -21344337.81043 -16622007.07542  21330973.823    21330968.762
  24597463.322    -3742729.45653  -2909475.29152  24597465.408    24597463.040
  20537638.149   -20137860.60944 -15682492.34642  20537640.122    20537634.887
  21575875.491   -19471009.79143 -15145506.50842  21575878.118    21575871.845
 03  6  6  3 16  0.0000000  0  8G 4G 2G16G27G20G 3G 1G13
  24658363.189    -3551472.89743  -2763996.83842  24658365.339    24658362.174
  21362376.696   -20862097.05144 -16120432.95142  21362378.332    21362373.557
  21874114.917   -18173536.82543 -14135890.48442  21874116.821    21874110.804
  23341666.828    -7557765.89743  -5885610.83642  23341668.893    23341665.283
  21345409.020   -21268471.42743 -16562890.44442  21345410.709    21345405.667
  24583232.508    -3817513.14243  -2967748.23042  24583234.571    24583231.905
  20535087.090   -20151266.53944 -15692938.52642  20535089.042    20535083.826
  21564238.705   -19532161.48543 -15193157.16442  21564241.355    21564235.086
 03  6  6  3 16 30.0000000  0  8G 4G 2G16G27G20G 3G 1G13
  24665059.419    -3516284.05543  -2736577.02142  24665061.647    24665058.366
  21365997.262   -20843070.56144 -16105607.09942  21365998.927    21365994.162
  21883765.366   -18122823.45643 -14096373.56742  21883767.337    21883761.249
  23329600.713    -7621174.22543  -5935019.86942  23329602.713    23329598.961
  21359928.416   -21192171.61643 -16503436.08242  21359930.095    21359925.061
  24569011.493    -3892243.88343  -3025979.84542  24569013.468    24569011.062
  20532585.374   -20164413.15944 -15703182.64542  20532587.325    20532582.123
  21552631.544   -19593157.60443 -15240686.59642  21552634.205    21552627.912
 03  6  6  3 17  0.0000000  0  8G 4G 2G16G27G20G 3G 1G13
  24671829.912    -3480705.04443  -2708853.15842  24671832.208    24671829.040
  21369706.988   -20823575.79844 -16090416.36042  21369708.650    21369703.863
  21893511.569   -18071606.54543 -14056464.29242  21893513.553    21893507.468
  23317565.638    -7684418.59343  -5984301.15242  23317567.717    23317563.840
  21374530.648   -21115436.54143 -16443642.54942  21374532.362    21374527.264
  24554802.254    -3966914.35143  -3084164.63542  24554804.186    24554801.534
  20530134.001   -20177295.32644 -15713220.69242  20530135.915    20530130.728
  21541054.945   -19653993.02443 -15288090.80842  21541057.601    21541051.298
 03  6  6  3 17 30.0000000  0  8G 4G 2G16G27G20G 3G 1G13
  24678673.946    -3444739.65543  -2680828.25842  24678676.226    24678673.183
  21373505.433   -20803615.09344 -16074862.54942  21373507.057    21373502.222
  21903353.004   -18019889.29943 -14016165.14142  21903355.020    21903348.941
  23305561.395    -7747500.80243  -6033456.08842  23305563.493    23305559.657
  21389214.939   -21038270.33943 -16383513.08342  21389216.648    21389211.531
  24540604.254    -4041523.68043  -3142301.63542  24540606.307    24540603.823
  20527732.831   -20189913.49844 -15723053.02142  20527734.749    20527729.588
  21529508.853   -19714668.04743 -15335370.03942  21529511.509    21529505.184
 03  6  6  3 18  0.0000000  0  8G 4G 2G16G27G20G 3G 1G13
  24685590.367    -3408394.32543  -2652507.30042  24685592.658    24685589.358
  21377391.460   -20783193.80344 -16058949.84142  21377393.075    21377388.235
  21913288.486   -17967677.88243 -13975480.92542  21913290.466    21913284.434
  23293587.259    -7810425.16843  -6082487.99442  23293589.339    23293585.511
  21403980.053   -20960679.38243 -16323052.63942  21403981.764    21403976.652
  24526418.246    -4116072.85143  -3200391.88042  24526420.317    24526417.539
  20525381.297   -20202270.87344 -15732682.13842  20525383.208    20525378.069
  21517992.776   -19775185.43343 -15382526.43242  21517995.410    21517989.087
 03  6  6  3 18 30.0000000  0  8G 4G 2G16G27G20G 3G 1G13
  24692579.362    -3371666.92443  -2623888.56942  24692581.703    24692578.289
  21381365.695   -20762308.71744 -16042675.73642  21381367.355    21381362.502
  21923318.410   -17914970.10443 -13934409.93142  21923320.383    21923314.371
  23281644.080    -7873187.52543  -6131393.69242  23281646.076    23281642.157
  21418826.337   -20882661.85343 -16262259.79942  21418828.068    21418822.939
  24512244.664    -4190554.84543  -3258429.65042  24512246.910    24512244.276
  20523080.373   -20214362.19144 -15742103.93642  20523082.278    20523077.159
  21506507.723   -19835539.60843 -15429555.64842  21506510.368    21506504.063
 03  6  6  3 19  0.0000000  0  8G 4G 2G16G27G20G 3G 1G13
  24699640.419    -3334560.09943  -2594974.21742  24699642.876    24699639.623
  21385427.939   -20740961.29344 -16026041.37042  21385429.594    21385424.777
  21933442.468   -17861768.18643 -13892953.89842  21933444.375    21933438.349
  23269731.386    -7935788.61843  -6180173.71442  23269733.369    23269729.495
  21433753.223   -20804220.49243 -16201136.69842  21433754.995    21433749.849
  24498084.741    -4264966.94943  -3316413.04942  24498086.968    24498083.909
  20520830.224   -20226186.68044 -15751317.81542  20520832.148    20520827.006
  21495053.909   -19895729.99243 -15476457.23342  21495056.549    21495050.214
 03  6  6  3 19 30.0000000  0  8G 4G 2G16G27G20G 3G 1G13
  24706773.728    -3297075.32443  -2565765.39942  24706776.245    24706772.812
  21389578.192   -20719151.73144 -16009046.89542  21389579.816    21389574.997
  21943660.264   -17808073.42543 -13851113.82742  21943662.162    21943656.107
  23257849.403    -7998227.57643  -6228827.42642  23257851.514    23257847.676
  21448760.513   -20725356.93943 -16139684.61142  21448762.245    21448757.107
  24483938.359    -4339305.39243  -3374339.05342  24483940.573    24483937.909
  20518631.296   -20237742.23144 -15760322.13342  20518633.216    20518628.048
  21483631.696   -19955754.01143 -15523229.17842  21483634.367    21483628.000
 03  6  6  3 20  0.0000000  0  8G 4G 2G16G27G20G 3G 1G13
  24713977.663    -3259218.89343  -2536266.93342  24713980.160    24713976.580
  21393815.339   -20696885.17944 -15991696.32742  21393816.986    21393812.192
  21953970.723   -17753892.04443 -13808894.57242  21953972.580    21953966.499
  23245997.835    -8060508.65543  -6277358.11342  23245999.868    23245995.971
  21463846.873   -20646077.80843 -16077908.70742  21463848.619    21463843.456
  24469805.791    -4413571.59343  -3432208.70142  24469807.894    24469805.513
  20516482.896   -20249032.02144 -15769119.36342  20516484.850    20516479.648
  21472240.594   -20015614.44343 -15569873.65742  21472243.258    21472236.924
 03  6  6  3 20 30.0000000  0  8G 4G 2G16G27G20G 3G 1G13
  24721252.489    -3220989.42343  -2506477.79442  24721254.867    24721251.440
  21398140.008   -20674159.04344 -15973987.63942  21398141.649    21398136.842
  21964374.042   -17699222.04643 -13766294.58242  21964375.912    21964369.845
  23234176.819    -8122628.65643  -6325763.27442  23234178.797    23234174.892
  21479012.584   -20566381.71843 -16015807.89642  21479014.296    21479009.152
  24455688.415    -4487758.89943  -3490016.86842  24455690.458    24455688.431
  20514386.013   -20260051.16244 -15777705.69742  20514387.982    20514382.774
  21460881.491   -20075306.60043 -15616387.00842  21460884.197    21460877.848
 03  6  6  3 21  0.0000000  0  8G 4G 2G16G27G20G 3G 1G13
  24728597.833    -3182389.83943  -2476400.24142  24728599.997    24728596.815
  21402551.873   -20650974.73544 -15955921.93142  21402553.513    21402548.653
  21974869.899   -17644065.96543 -13723315.81742  21974871.759    21974865.696
  23222386.239    -8184587.90843  -6374043.18042  23222388.313    23222384.425
  21494257.064   -20486271.56243 -15953384.43442  21494258.783    21494253.647
  24441586.479    -4561864.60543  -3547761.44542  24441588.617    24441586.803
  20512340.746   -20270798.90044 -15786080.54542  20512342.728    20512337.554
  21449554.733   -20134829.04143 -15662768.11942  21449557.382    21449551.078
 03  6  6  3 21 30.0000000  0  8G 4G 2G16G27G20G 3G 1G13
  24736013.330    -3143421.21143  -2446035.12742  24736015.603    24736012.377
  21407050.810   -20627332.73944 -15937499.58942  21407052.450    21407047.562
  21985457.917   -17588425.28943 -13679959.44842  21985459.811    21985453.741
  23210626.540    -8246385.79043  -6422197.34342  23210628.555    23210624.644
  21509580.018   -20405748.98543 -15890639.60642  21509581.708    21509576.625
  24427500.921    -4635885.11343  -3605439.70442  24427503.190    24427500.707
  20510347.520   -20281273.46644 -15794242.53442  20510349.491    20510344.296
  21438260.623   -20194180.04643 -15709015.63742  21438263.231    21438256.904
 03  6  6  3 22  0.0000000  0  8G 4G 2G16G27G20G 3G 1G13
  24743498.060    -3104088.07143  -2415385.98342  24743500.421    24743497.115
  21411636.278   -20603236.02944 -15918722.92242  21411637.903    21411633.009
  21996137.452   -17532303.94943 -13636228.52942  21996139.351    21996133.217
  23198896.986    -8308024.56743  -6470227.51642  23198899.018    23198895.057
  21524980.628   -20324818.28643 -15827576.76042  21524982.325    21524977.271
  24413431.484    -4709819.49343  -3663050.83742  24413433.622    24413431.241
  20508406.107   -20291475.71544 -15802192.32642  20508408.063    20508402.860
  21426999.062   -20253360.00843 -15755129.87142  21427001.664    21426995.312
 03  6  6  3 22 30.0000000  0  8G 4G 2G16G27G20G 3G 1G13
  24751051.774    -3064393.32643  -2384455.09342  24751054.179    24751050.984
  21416307.833   -20578686.67944 -15899593.54942  21416309.459    21416304.555
  22006907.910   -17475704.75943 -13592125.27242  22006909.821    22006903.678
  23187197.655    -8369505.23243  -6518134.50942  23187199.647    23187195.581
  21540458.197   -20243483.06443 -15764198.69642  21540459.877    21540454.904
  24399379.301    -4783665.46743  -3720593.03742  24399381.471    24399378.815
  20506516.537   -20301405.42644 -15809929.75342  20506518.493    20506513.263
  21415770.071   -20312368.36043 -15801110.38742  21415772.711    21415766.375
 03  6  6  3 23  0.0000000  0  8G 4G 2G16G27G20G 3G 1G13
  24758674.374    -3024337.30543  -2353242.66442  24758676.675    24758673.401
  21421065.763   -20553683.48144 -15880110.53142  21421067.378    21421062.491
  22017769.372   -17418627.54243 -13547649.52442  22017771.252    22017765.142
  23175528.657    -8430825.60643  -6565916.57942  23175530.718    23175526.695
  21556012.830   -20161743.11743 -15700505.26742  21556014.497    21556009.521
  24385344.606    -4857417.77243  -3778062.36042  24385346.727    24385343.987
  20504679.500   -20311058.96644 -15817451.97842  20504681.472    20504676.203
  21404574.549   -20371201.21543 -15846954.15042  21404577.159    21404570.844
 03  6  6  3 23 30.0000000  0  8G 4G 2G16G27G20G 3G 1G13
  24766365.244    -2983921.75443  -2321750.09542  24766367.596    24766364.185
  21425909.900   -20528227.05444 -15860274.34142  21425911.549    21425906.683
  22028721.434   -17361073.87043 -13502802.50742  22028723.346    22028717.260
  23163890.427    -8491985.39843  -6613573.51442  23163892.391    23163888.356
  21571644.084   -20079600.46343 -15636498.03442  21571645.789    21571640.778
  24371328.442    -4931072.97543  -3835455.88642  24371330.487    24371327.751
  20502895.373   -20320434.57144 -15824757.63042  20502897.334    20502892.043
  21393412.742   -20429856.80543 -15892659.78742  21393415.372    21393409.034
 03  6  6  3 24  0.0000000  0  8G 4G 2G16G27G20G 3G 1G13
  24774123.835    -2943150.36943  -2289980.27142  24774126.298    24774122.743
  21430839.787   -20502320.12344 -15840087.11142  21430841.432    21430836.594
  22039763.485   -17303047.57843 -13457587.22642  22039765.348    22039759.350
  23152282.189    -8552986.53243  -6661106.83542  23152284.198    23152280.204
  21587351.177   -19997059.32443 -15572180.30442  21587352.885    21587347.899
  24357330.742    -5004629.56643  -3892772.64642  24357332.861    24357330.074
  20501164.030   -20329532.85144 -15831847.18542  20501165.985    20501160.668
  21382284.651   -20488335.45343 -15938227.54242  21382287.266    21382280.880
 03  6  6  3 24 30.0000000  0  8G 4G 2G16G27G20G 3G 1G13
  24781949.996    -2902023.70243  -2257933.57842  24781952.376    24781949.069
  21435855.568   -20475962.11644 -15819548.39242  21435857.201    21435852.364
  22050895.432   -17244548.73143 -13412003.71642  22050897.261    22050891.314
  23140704.552    -8613826.99043  -6708514.94542  23140706.633    23140702.692
  21603133.945   -19914120.32843 -15507552.55142  21603135.703    21603130.739
  24343353.314    -5078082.61343  -3950008.67242  24343355.334    24343352.571
  20499486.060   -20338350.64344 -15838718.18342  20499488.046    20499482.675
  21371190.843   -20546633.65443 -15983654.69842  21371193.474    21371187.079
 03  6  6  3 25  0.0000000  0  8G 4G 2G16G27G20G 3G 1G13
  24789842.953    -2860546.58843  -2225613.82242  24789845.399    24789841.955
  21440956.470   -20449156.64444 -15798661.00442  21440958.104    21440953.254
  22062116.535   -17185581.69543 -13366055.37642  22062118.346    22062112.328
  23129156.999    -8674509.49343  -6755799.96242  23129159.089    23129155.196
  21618991.563   -19830788.25043 -15442618.50242  21618993.323    21618988.334
  24329395.162    -5151432.03743  -4007163.96242  24329397.227    24329394.731
  20497861.206   -20346889.38644 -15845371.73942  20497863.180    20497857.780
  21360131.211   -20604752.50643 -16028942.10442  21360133.823    21360127.404
 03  6  6  3 25 30.0000000  0  8G 4G 2G16G27G20G 3G 1G13
  24797802.521    -2818719.00443  -2193020.97342  24797804.935    24797801.601
  21446142.790   -20421902.20244 -15777423.76542  21446144.477    21446139.572
  22073426.756   -17126146.08443 -13319741.92042  22073428.572    22073422.530
  23117639.939    -8735031.71643  -6802960.08342  23117642.018    23117638.217
  21634923.933   -19747063.10243 -15377378.16142  21634925.731    21634920.731
  24315457.884    -5224671.91543  -4064233.90442  24315460.013    24315457.432
  20496290.123   -20355145.39344 -15851804.98242  20496292.094    20496286.704
  21349106.500   -20662687.65043 -16074086.35742  21349109.105    21349102.666
 03  6  6  3 26  0.0000000  0  8G 4G 2G16G27G20G 3G 1G13
  24805827.839    -2776545.70743  -2160158.73742  24805830.209    24805826.934
  21451413.864   -20394202.69844 -15755839.72642  21451415.538    21451410.589
  22084825.184   -17066246.89843 -13273067.23342  22084827.039    22084820.965
  23106152.990    -8795396.55343  -6849997.58642  23106154.990    23106151.094
  21650930.192   -19662950.07743 -15311835.57842  21650931.952    21650926.984
  24301541.346    -5297801.80443  -4121218.12442  24301543.656    24301541.176
  20494772.552   -20363120.21744 -15858019.11942  20494774.495    20494769.125
  21338116.395   -20720440.79343 -16119088.79042  21338119.010    21338112.586
 03  6  6  3 26 30.0000000  0  8G 4G 2G16G27G20G 3G 1G13
  24813919.138    -2734026.64843  -2127027.07342  24813921.420    24813918.049
  21456769.812   -20366056.84944 -15733907.88942  21456771.509    21456766.553
  22096311.811   -17005883.99443 -13226031.20642  22096313.697    22096307.595
  23094696.224    -8855601.80343  -6896910.73442  23094698.254    23094694.407
  21667010.176   -19578449.20943 -15245990.78142  21667011.952    21667007.011
  24287647.481    -5370816.26643  -4178112.46242  24287649.623    24287646.718
  20493309.168   -20370810.19844 -15864011.30342  20493311.133    20493305.754
  21327161.762   -20778007.82243 -16163946.19942  21327164.367    21327157.935
 03  6  6  3 27  0.0000000  0  8G 4G 2G16G27G20G 3G 1G13
  24822075.093    -2691166.95843  -2093629.97842  24822077.359    24822074.108
  21462209.944   -20337468.73644 -15711631.42642  21462211.614    21462206.666
  22107885.836   -16945061.97243 -13178637.42542  22107887.687    22107881.625
  23083269.368    -8915650.17043  -6943701.61242  23083271.395    23083267.555
  21683162.978   -19493565.84243 -15179847.92742  21683164.746    21683159.785
  24273774.894    -5443715.18643  -4234916.67342  24273777.110    24273774.574
  20491899.735   -20378216.76544 -15869782.64942  20491901.685    20491896.312
  21316242.266   -20835389.88143 -16208659.46942  21316244.888    21316238.502
 03  6  6  3 27 30.0000000  0  8G 4G 2G16G27G20G 3G 1G13
  24830294.957    -2647971.59643  -2059971.28142  24830297.291    24830293.889
  21467733.579   -20308441.99444 -15689013.17942  21467735.232    21467730.256
  22119546.417   -16883785.41643 -13130889.46842  22119548.212    22119542.182
  23071871.897    -8975544.38443  -6990372.37842  23071873.881    23071869.996
  21699387.587   -19408305.09343 -15113411.01342  21699389.352    21699384.371
  24259925.037    -5516498.00443  -4291630.52842  24259927.217    24259924.224
  20490543.971   -20385341.32644 -15875334.24842  20490545.912    20490540.569
  21305357.827   -20892588.12643 -16253229.52042  21305360.450    21305354.012
 03  6  6  3 28  0.0000000  0  8G 4G 2G16G27G20G 3G 1G13
  24838580.278    -2604431.92443  -2026044.35142  24838582.595    24838579.133
  21473342.480   -20278967.04644 -15666045.67942  21473344.101    21473339.123
  22131295.061   -16822045.76343 -13082780.65342  22131296.858    22131290.809
  23060505.757    -9035273.82643  -7036914.77142  23060507.755    23060503.784
  21715685.659   -19322658.38043 -15046673.35242  21715687.389    21715682.421
  24246099.718    -5589150.71243  -4348242.99542  24246101.867    24246098.537
  20489244.144   -20392171.87144 -15880656.74142  20489246.105    20489240.788
  21294510.714   -20949590.00743 -16297646.55442  21294513.341    21294506.920
 03  6  6  3 28 30.0000000  0  8G 4G 2G16G27G20G 3G 1G13
  24846928.695    -2560560.92643  -1991859.21442  24846930.905    24846927.585
  21479034.453   -20249055.55944 -15642738.01742  21479036.088    21479031.070
  22143129.443   -16759855.58443 -13034320.77942  22143131.282    22143125.226
  23049168.976    -9094848.98643  -7083336.92942  23049170.912    23049166.933
  21732054.693   -19236638.61443 -14979645.00442  21732056.420    21732051.461
  24232297.671    -5661680.72943  -4404759.78142  24232299.834    24232296.499
  20487998.523   -20398717.72544 -15885757.40242  20488000.450    20487995.177
  21283699.263   -21006404.39343 -16341917.49142  21283701.891    21283695.517
 03  6  6  3 29  0.0000000  0  7G 2G16G27G20G 3G 1G13
  21484812.370   -20218692.30444 -15619078.33342  21484814.011    21484809.017
  22155052.323   -16697200.46443 -12985498.62242  22155054.131    22155048.139
  23037864.609    -9154253.54243  -7129626.13942  23037866.534    23037862.620
  21748497.352   -19150231.94843 -14912315.18142  21748499.068    21748494.141
  24218522.564    -5734068.59243  -4461165.85142  24218524.694    24218521.432
  20486810.434   -20404961.13044 -15890622.38842  20486812.352    20486807.093
  21272926.917   -21063013.35943 -16386028.35442  21272929.537    21272923.192
 03  6  6  3 29 30.0000000  0  7G 2G16G27G20G 3G 1G13
  21490670.887   -20187905.63844 -15595088.71742  21490672.515    21490667.560
  22167058.191   -16634109.85043 -12936337.10442  22167059.962    22167053.964
  23026587.452    -9213514.85543  -7175803.73942  23026589.470    23026585.543
  21765007.940   -19063468.15843 -14844707.07642  21765009.659    21765004.788
  24204770.010    -5806338.41243  -4517479.92842  24204771.944    24204768.929
  20485674.947   -20410927.89744 -15895271.81142  20485676.887    20485671.647
  21262188.786   -21119442.60144 -16429999.17942  21262191.376    21262185.058
 03  6  6  3 30  0.0000000  0  7G 2G16G27G20G 3G 1G13
  21496612.911   -20156679.99944 -15570757.04642  21496614.531    21496609.625
  22179149.635   -16570568.91943 -12886824.69542  22179151.418    22179145.436
  23015340.772    -9272616.18143  -7221856.67042  23015342.764    23015338.908
  21781589.271   -18976332.86443 -14776809.48442  21781590.987    21781586.146
  24191043.587    -5878470.12443  -4573686.39642  24191045.646    24191042.566
  20484595.630   -20416599.96144 -15899691.59842  20484597.540    20484592.274
  21251488.353   -21175673.58743 -16473815.51742  21251490.979    21251484.639
 03  6  6  3 30 30.0000000  0  7G 2G16G27G20G 3G 1G13
  21502638.001   -20125017.70444 -15546085.11842  21502639.667    21502634.751
  22191326.091   -16506581.11143 -12836964.07742  22191327.873    22191321.958
  23004124.361    -9331558.73943  -7267785.90842  23004126.343    23004122.422
  21798240.652   -18888829.61743 -14708625.18042  21798242.363    21798237.521
  24177343.898    -5950461.73743  -4629783.62942  24177346.124    24177342.883
  20483572.339   -20421977.29844 -15903881.72242  20483574.269    20483568.975
  21240825.809   -21231705.71544 -16517476.90442  21240828.433    21240822.073
 03  6  6  3 31  0.0000000  0  7G 2G16G27G20G 3G 1G13
  21508744.718   -20092926.65444 -15521079.10042  21508746.370    21508741.498
  22203585.953   -16442155.02443 -12786761.94142  22203587.754    22203581.872
  22992936.937    -9390349.41543  -7313596.79542  22992938.872    22992934.892
  21814960.309   -18800967.49643 -14640161.23942  21814961.996    21814957.170
  24163670.509    -6022316.71843  -4685774.49742  24163672.567    24163669.416
  20482604.060   -20427065.26344 -15907846.36642  20482606.011    20482600.747
  21230200.151   -21287544.02244 -16560987.25842  21230202.762    21230196.385
 03  6  6  3 31 30.0000000  0  7G 2G16G27G20G 3G 1G13
  21514934.333   -20060399.96344 -15495733.62442  21514935.985    21514931.096
  22215930.355   -16377284.90643 -12736213.80242  22215932.151    22215926.279
  22981779.738    -9448980.16443  -7359283.04242  22981781.755    22981777.794
  21831749.226   -18712741.19943 -14571413.52742  21831750.898    21831746.118
  24150024.652    -6094024.21943  -4741650.34842  24150026.878    24150024.250
  20481692.698   -20431854.58244 -15911578.29842  20481694.621    20481689.380
  21219613.148   -21343178.94344 -16604339.12442  21219615.784    21219609.398
 03  6  6  3 32  0.0000000  0  7G 2G16G27G20G 3G 1G13
  21521205.369   -20027445.49044 -15470054.80942  21521207.006    21521202.110
  22228357.628   -16311979.31243 -12685326.32442  22228359.443    22228353.448
  22970651.831    -9507457.52543  -7404849.75842  22970653.796    22970649.844
  21848605.793   -18624159.50343 -14502388.88142  21848607.486    21848602.683
  24136406.591    -6165587.28043  -4797413.70342  24136408.690    24136406.287
  20480837.141   -20436350.42844 -15915081.54742  20480839.080    20480833.857
  21209063.980   -21398615.17444 -16647536.17142  21209066.632    21209060.213
 03  6  6  3 32 30.0000000  0  7G 2G16G27G20G 3G 1G13
  21527558.535   -19994059.23644 -15444039.54042  21527560.173    21527555.298
  22240868.358   -16246235.13143 -12634097.09242  22240870.164    22240864.127
  22959554.096    -9565776.45543  -7450293.03442  22959556.074    22959552.023
  21865530.505   -18535219.78743 -14433085.25042  21865532.197    21865527.389
  24122817.678    -6236997.70343  -4853058.08642  24122819.763    24122817.361
  20480038.692   -20440546.34144 -15918351.08342  20480040.633    20480035.413
  21198553.913   -21453845.90044 -16690573.06942  21198556.561    21198550.129
 03  6  6  3 33  0.0000000  0  7G 2G16G27G20G 3G 1G13
  21533993.110   -19960245.34344 -15417691.04642  21533994.749    21533989.876
  22253461.600   -16180057.30643 -12582529.95742  22253463.419    22253457.343
  22948485.995    -9623939.73143  -7495615.02242  22948487.968    22948483.916
  21882522.317   -18445927.47043 -14363506.86742  21882523.998    21882519.224
  24109257.849    -6308254.96543  -4908583.16942  24109259.907    24109257.118
  20479297.000   -20444443.93644 -15921388.16242  20479298.977    20479293.744
  21188082.733   -21508872.03844 -16733450.55442  21188085.411    21188078.968
 03  6  6  3 33 30.0000000  0  7G 2G16G27G20G 3G 1G13
  21540508.695   -19926005.76544 -15391010.85242  21540510.313    21540505.474
  22266136.709   -16113448.88643 -12530627.29942  22266138.560    22266132.497
  22937447.258    -9681948.31943  -7540816.48042  22937449.332    22937445.245
  21899580.611   -18356285.72743 -14293656.20342  21899582.290    21899577.562
  24095727.605    -6379356.36143  -4963986.79542  24095729.674    24095726.807
  20478612.201   -20448042.60944 -15924192.32242  20478614.159    20478608.924
  21177650.682   -21563692.91144 -16776168.09842  21177653.328    21177646.873
 03  6  6  3 34  0.0000000  0  7G 2G16G27G20G 3G 1G13
  21547105.688   -19891338.32444 -15363997.25842  21547107.316    21547102.498
  22278894.098   -16046408.53143 -12478388.06142  22278895.893    22278889.856
  22926438.571    -9739798.97443  -7585894.85542  22926440.627    22926436.557
  21916705.546   -18266293.86243 -14223532.72042  21916707.221    21916702.506
  24082228.299    -6450295.81243  -5019264.17542  24082230.315    24082227.690
  20477985.167   -20451337.81944 -15926760.01342  20477987.133    20477981.863
  21167258.581   -21618303.56344 -16818721.83442  21167261.237    21167254.798
 03  6  6  3 34 30.0000000  0  7G 2G16G27G20G 3G 1G13
  21553783.127   -19856248.07144 -15336654.19942  21553784.761    21553779.932
  22291732.428   -15978942.34143 -12425817.00942  22291734.251    22291728.296
  22915459.235    -9797495.45443  -7630853.12442  22915461.307    22915457.230
  21933895.906   -18175957.97743 -14153141.16942  21933897.588    21933892.914
  24068759.420    -6521074.09043  -5074415.99242  24068761.516    24068759.048
  20477415.369   -20454332.09844 -15929093.21342  20477417.366    20477412.055
  21156906.123   -21672705.76144 -16861113.13242  21156908.796    21156902.371
 03  6  6  3 35  0.0000000  0  7G 2G16G27G20G 3G 1G13
  21560540.563   -19820737.44444 -15308983.57542  21560542.214    21560537.369
  22304651.224   -15911053.80443 -12372916.86042  22304652.999    22304647.053
  22904509.084    -9855039.16443  -7675692.33242  22904511.109    22904507.053
  21951151.014   -18085281.92643 -14082484.54542  21951152.686    21951148.024
  24055321.807    -6591688.83243  -5129440.39142  24055323.782    24055321.329
  20476902.866   -20457025.40944 -15931191.89642  20476904.854    20476899.515
  21146593.404   -21726899.28444 -16903341.82342  21146596.080    21146589.669
 03  6  6  3 35 30.0000000  0  7G 2G16G27G20G 3G 1G13
  21567378.428   -19784804.09844 -15280983.56442  21567380.091    21567375.249
  22317650.609   -15842741.24643 -12319686.30342  22317652.460    22317646.519
  22893588.685    -9912426.36343  -7720409.59142  22893590.664    22893586.609
  21968471.064   -17994264.50543 -14011561.92442  21968472.769    21968468.064
  24041916.783    -6662133.26843  -5184332.08742  24041918.915    24041915.701
  20476448.617   -20459412.51044 -15933051.97142  20476450.604    20476445.272
  21136321.523   -21780878.34144 -16945403.40542  21136324.187    21136317.760
 03  6  6  3 36  0.0000000  0  7G 2G16G27G20G 3G 1G13
  21574295.922   -19748452.28244 -15252657.46642  21574297.614    21574292.782
  22330729.848   -15774009.44743 -12266129.06142  22330731.669    22330725.759
  22882697.433    -9969660.13343  -7765007.28142  22882699.414    22882695.266
  21985855.097   -17902911.04843 -13940377.45742  21985856.798    21985852.067
  24028544.078    -6732407.06943  -5239090.80242  24028546.212    24028543.069
  20476052.338   -20461494.96944 -15934674.66642  20476054.307    20476048.970
  21126090.169   -21834644.18944 -16987298.84942  21126092.847    21126086.408
 03  6  6  3 36 30.0000000  0  7G 2G16G27G20G 3G 1G13
  21581292.868   -19711682.98244 -15224006.05742  21581294.545    21581289.715
  22343888.497   -15704860.49843 -12212246.78042  22343890.279    22343884.402
  22871835.513   -10026740.05143  -7809485.08842  22871837.502    22871833.259
  22003302.712   -17811223.70943 -13868932.82042  22003304.373    22003299.634
  24015204.749    -6802506.70443  -5293713.86542  24015206.788    24015203.566
  20475714.348   -20463271.16544 -15936058.70342  20475716.324    20475710.925
  21115899.820   -21888194.77044 -17029026.54542  21115902.486    21115896.028
 03  6  6  3 37  0.0000000  0  7G 2G16G27G20G 3G 1G13
  21588369.653   -19674494.46544 -15195027.99042  21588371.308    21588366.447
  22357126.703   -15635293.52943 -12158038.74942  22357128.523    22357122.553
  22861003.312   -10083663.17843  -7853840.71742  22861005.332    22861001.162
  22020813.902   -17719201.92343 -13797227.58142  22020815.588    22020810.807
  24001899.301    -6872425.82343  -5348196.19042  24001901.422    24001898.354
  20475435.412   -20464736.81444 -15937200.76542  20475437.395    20475432.010
  21105751.355   -21941525.29844 -17070582.78442  21105753.985    21105747.528
 03  6  6  3 37 30.0000000  0  7G 2G16G27G20G 3G 1G13
  21595524.805   -19636893.84244 -15165728.80042  21595526.448    21595521.592
  22370442.896   -15565316.66743 -12103511.33142  22370444.729    22370438.746
  22850199.818   -10140435.55143  -7898078.87142  22850201.768    22850197.651
  22038387.077   -17626854.30543 -13725268.44842  22038388.782    22038384.015
  23988627.942    -6942167.28443  -5402540.11942  23988629.987    23988626.951
  20475214.704   -20465896.59244 -15938104.48142  20475216.672    20475211.314
  21095643.956   -21994639.89944 -17111970.75642  21095646.587    21095640.140
 03  6  6  3 38  0.0000000  0  7G 2G16G27G20G 3G 1G13
  21602759.287   -19598876.41744 -15136104.82942  21602760.954    21602756.086
  22383837.671   -15494926.35743 -12048661.74542  22383839.564    22383833.618
  22839426.096   -10197051.28843  -7942194.99642  22839428.040    22839423.963
  22056022.948   -17534177.34943 -13653052.68242  22056024.640    22056019.886
  23975392.220    -7011721.96443  -5456738.54442  23975394.227    23975390.720
  20475053.557   -20466743.39344 -15938764.31942  20475055.524    20475050.159
  21085579.122   -22047530.74044 -17153184.37342  21085581.764    21085575.323
 03  6  6  3 38 30.0000000  0  7G 2G16G27G20G 3G 1G13
  21610071.666   -19560449.61444 -15106161.86142  21610073.305    21610068.425
  22397309.710   -15424130.38343 -11993496.06042  22397311.610    22397305.645
  22828681.227   -10253516.33743  -7986193.71642  22828683.138    22828678.964
  22073719.867   -17441179.69743 -13580587.02442  22073721.548    22073716.779
  23962191.150    -7081092.51543  -5510793.41642  23962193.265    23962190.007
  20474951.088   -20467281.78544 -15939183.84142  20474953.058    20474947.691
  21075556.135   -22100201.91444 -17194226.82542  21075558.767    21075552.321
 03  6  6  3 39  0.0000000  0  7G 2G16G27G20G 3G 1G13
  21617462.303   -19521611.40444 -15075898.31742  21617463.977    21617459.063
  22410859.127   -15352927.71443 -11938013.46642  22410861.029    22410854.999
  22817965.491   -10309827.45843  -8030072.45642  22817967.408    22817963.245
  22091477.967   -17347860.40843 -13507870.74342  22091479.668    22091474.904
  23949026.324    -7150272.32043  -5564699.70242  23949028.504    23949025.302
  20474908.222   -20467507.04944 -15939359.36542  20474910.180    20474904.810
  21065575.854   -22152648.59844 -17235094.34642  21065578.490    21065572.021
 03  6  6  3 39 30.0000000  0  7G 2G16G27G20G 3G 1G13
  21624930.545   -19482365.32944 -15045316.95842  21624932.230    21624927.328
  22424485.084   -15281322.85643 -11882217.47942  22424486.991    22424480.948
  22807278.670   -10365987.08343  -8073833.15642  22807280.563    22807276.422
  22109296.356   -17254224.19543 -13434907.51242  22109298.052    22109293.318
  23935898.408    -7219260.18943  -5618456.39242  23935900.544    23935897.440
  20474924.760   -20467420.13544 -15939291.63542  20474926.708    20474921.337
  21055638.321   -22204870.71644 -17275786.88942  21055640.963    21055634.461
 03  6  6  3 40  0.0000000  0  7G 2G16G27G20G 3G 1G13
  21632476.447   -19442711.32944 -15014417.73542  21632478.083    21632473.220
  22438187.493   -15209316.34343 -11826108.51842  22438189.389    22438183.332
  22796620.954   -10421993.54843  -8117474.51142  22796622.886    22796618.712
  22127174.839   -17160272.30443 -13361698.29342  22127176.572    22127171.801
  23922807.894    -7288051.48043  -5672059.93142  23922810.025    23922806.816
  20475001.244   -20467018.11244 -15938978.36642  20475003.211    20474997.817
  21045744.072   -22256865.32644 -17316302.14842  21045746.751    21045740.182
 03  6  6  3 40 30.0000000  0  7G 2G16G27G20G 3G 1G13
  21640099.512   -19402651.77144 -14983202.49342  21640101.149    21640096.335
  22451965.623   -15136911.58543 -11769689.23842  22451967.547    22451961.529
  22785992.204   -10477847.90643  -8160997.33742  22785994.165    22785989.924
  22145112.769   -17066008.22443 -13288245.80442  22145114.493    22145109.691
  23909755.138    -7356644.19843  -5725508.78042  23909757.218    23909753.902
  20475137.738   -20466300.86644 -15938419.46942  20475139.686    20475134.318
  21035893.294   -22308631.59044 -17356639.47342  21035895.985    21035889.382
 03  6  6  3 41  0.0000000  0  7G 2G16G27G20G 3G 1G13
  21647799.289   -19362189.16444 -14951673.18842  21647800.938    21647796.132
  22465818.933   -15064112.05843 -11712962.33342  22465820.845    22465814.869
  22775392.083   -10533551.49943  -8204402.68642  22775394.109    22775389.899
  22163109.394   -16971435.55843 -13214552.85742  22163111.122    22163106.312
  23896740.729    -7425036.04543  -5778801.05042  23896742.809    23896739.434
  20475334.201   -20465268.32944 -15937614.89042  20475336.155    20475330.828
  21026086.103   -22360168.78144 -17396798.30342  21026088.794    21026082.176
 03  6  6  3 41 30.0000000  0  7G 2G16G27G20G 3G 1G13
  21655575.834   -19321323.29643 -14919829.65642  21655577.467    21655572.631
  22479747.231   -14990918.46343 -11655928.36942  22479749.156    22479743.084
  22764820.946   -10589102.85643  -8247689.40742  22764822.957    22764818.746
  22181164.479   -16876555.42443 -13140620.33042  22181166.235    22181161.464
  23883765.145    -7493222.53243  -5831933.28142  23883767.256    23883764.057
  20475591.262   -20463917.57744 -15936562.35342  20475593.196    20475587.875
  21016323.117   -22411473.34644 -17436775.86142  21016325.840    21016319.243
 03  6  6  3 42  0.0000000  0  7G 2G16G27G20G 3G 1G13
  21663428.547   -19280056.95744 -14887674.06042  21663430.188    21663425.341
  22493749.862   -14917334.08443 -11598589.89342  22493751.799    22493745.743
  22754278.575   -10644503.33543  -8290858.55342  22754280.587    22754276.315
  22199277.388   -16781371.68043 -13066451.22142  22199279.132    22199274.390
  23870829.200    -7561201.59843  -5884903.90342  23870831.394    23870827.979
  20475908.835   -20462248.56344 -15935261.81642  20475910.768    20475905.464
  21006604.509   -22462544.89944 -17476571.85442  21006607.214    21006600.632
 03  6  6  3 42 30.0000000  0  7G 2G16G27G20G 3G 1G13
  21671357.781   -19238388.88744 -14855205.42742  21671359.408    21671354.477
  22507826.939   -14843358.55443 -11540946.63442  22507828.869    22507822.807
  22743765.397   -10699750.28543  -8333908.08142  22743767.382    22743763.161
  22217448.116   -16685884.19643 -12992045.42842  22217449.843    22217445.074
  23857933.679    -7628967.40343  -5937708.38442  23857935.818    23857932.350
  20476287.798   -20460257.24544 -15933710.13642  20476289.677    20476284.385
  20996931.078   -22513379.08944 -17516182.89642  20996933.780    20996927.217
 03  6  6  3 43  0.0000000  0  7G 2G16G27G20G 3G 1G13
  21679362.207   -19196325.51844 -14822428.77242  21679363.853    21679358.875
  22521977.090   -14768999.14743 -11483004.25642  22521978.976    22521972.986
  22733280.461   -10754848.79443  -8376841.92842  22733282.426    22733278.216
  22235675.100   -16590100.78043 -12917409.04642  22235676.825    22235672.047
  23845078.353    -7696521.73143  -5990348.04242  23845080.487    23845077.215
  20476727.358   -20457947.41044 -15931910.26242  20476729.274    20476723.946
  20987302.259   -22563978.88844 -17555611.28742  20987304.943    20987298.375
 03  6  6  3 43 30.0000000  0  8G 2G16G27G20G 3G 1G13G31
  21687440.826   -19153871.92844 -14789348.05142  21687442.488    21687437.534
  22536199.055   -14694261.93843 -11424767.47742  22536200.974    22536195.041
  22722823.120   -10809802.61743  -8419663.05242  22722825.095    22722820.811
  22253957.226   -16494027.62843 -12842546.89042  22253958.978    22253954.192
  23832263.380    -7763865.01843  -6042823.27242  23832265.448    23832262.161
  20477227.035   -20455321.59844 -15929864.17242  20477228.968    20477223.586
  20977717.739   -22614345.86144 -17594858.25742  20977720.430    20977713.808
  24558104.043    -3721919.62553  -2876591.94152  24558106.050    24558104.238
 03  6  6  3 44  0.0000000  0  8G 2G16G27G20G 3G 1G13G31
  21695596.050   -19111015.73544 -14755953.60642  21695597.720    21695592.776
  22550495.217   -14619135.34843 -11366227.29042  22550497.079    22550491.175
  22712395.856   -10864598.28343  -8462360.91842  22712397.798    22712393.506
  22272296.642   -16397653.49943 -12767450.20642  22272298.405    22272293.617
  23819491.437    -7830980.43643  -6095120.91542  23819493.549    23819490.532
  20477789.769   -20452364.61044 -15927560.02242  20477791.665    20477786.250
  20968180.388   -22664465.01644 -17633912.11742  20968183.062    20968176.408
  24540970.017    -3811959.03943  -2946752.37642  24540972.188    24540970.202
 03  6  6  3 44 30.0000000  0  8G 2G16G27G20G 3G 1G13G31
  21703825.784   -19067768.10644 -14722254.14642  21703827.448    21703822.492
  22564863.112   -14543631.48343 -11307393.11342  22564865.000    22564859.072
  22701996.743   -10919245.53043  -8504943.14742  22701998.684    22701994.452
  22290690.941   -16300990.88143 -12692128.73342  22290692.711    22290687.952
  23806761.999    -7897874.57043  -6147246.13342  23806763.989    23806760.992
  20478413.850   -20449085.14044 -15925004.58542  20478415.773    20478410.301
  20958688.742   -22714343.78844 -17672778.66542  20958691.424    20958684.772
  24523827.545    -3902043.12243  -3016947.67042  24523829.757    24523827.766
 03  6  6  3 45  0.0000000  0  8G 2G16G27G20G 3G 1G13G31
  21712130.191   -19024128.30344 -14688249.10342  21712131.841    21712126.877
  22579302.830   -14467750.34043 -11248264.95342  22579304.720    22579298.789
  22691626.343   -10973742.03243  -8547407.89542  22691628.312    22691624.107
  22309140.100   -16204039.91343 -12616582.56942  22309141.864    22309137.141
  23794075.742    -7964541.61143  -6199194.43542  23794077.813    23794074.593
  20479099.907   -20445479.62944 -15922195.09542  20479101.877    20479096.423
  20949243.648   -22763978.14244 -17711454.76742  20949246.290    20949239.622
  24506677.410    -3992166.55643  -3087173.59542  24506679.530    24506677.714
 03  6  6  3 45 30.0000000  0  8G 2G16G27G20G 3G 1G13G31
  21720508.732   -18980098.94644 -14653940.50542  21720510.362    21720505.375
  22593813.642   -14391495.32343 -11188845.46442  22593815.600    22593809.556
  22681284.316   -11028089.18443  -8589756.27542  22681286.338    22681282.127
  22327643.419   -16106804.50143 -12540814.76242  22327645.177    22327640.448
  23781432.750    -8030979.70443  -6250964.26542  23781434.902    23781431.785
  20479848.108   -20441547.83044 -15919131.35142  20479850.067    20479844.653
  20939845.171   -22813367.44044 -17749939.91442  20939847.830    20939841.147
  24489520.449    -4082327.20343  -3157428.52342  24489522.503    24489520.561
 03  6  6  3 46  0.0000000  0  8G 2G16G27G20G 3G 1G13G31
  21728960.746   -18935682.95343 -14619330.63242  21728962.404    21728957.480
  22608395.016   -14314870.16843 -11129137.55542  22608396.928    22608390.859
  22670970.493   -11082288.42443  -8631989.40042  22670972.472    22670968.242
  22346200.072   -16009288.72343 -12464828.47142  22346201.836    22346197.104
  23768833.936    -8097187.09643  -6302554.40742  23768836.164    23768832.578
  20480658.318   -20437290.04444 -15915813.59342  20480660.295    20480654.881
  20930493.433   -22862511.30444 -17788233.81442  20930496.064    20930489.346
  24472356.633    -4172523.54643  -3227711.28542  24472358.808    24472356.563
 03  6  6  3 46 30.0000000  0  8G 2G16G27G20G 3G 1G13G31
  21737486.596   -18890879.31343 -14584418.70542  21737488.248    21737483.354
  22623046.784   -14237874.69843 -11069141.09342  22623048.685    22623042.625
  22660685.305   -11136337.44243  -8674105.47042  22660687.251    22660682.963
  22364810.048   -15911492.69543 -12388623.82742  22364811.833    22364807.117
  23756280.077    -8163158.31743  -6353960.46842  23756282.296    23756278.720
  20481531.299   -20432702.61544 -15912238.97542  20481533.263    20481527.844
  20921189.165   -22911405.43744 -17826333.12042  20921191.819    20921185.086
  24455186.898    -4262749.95543  -3298017.45742  24455189.037    24455186.921
 03  6  6  3 47  0.0000000  0  8G 2G16G27G20G 3G 1G13G31
  21746085.768   -18845690.43143 -14549206.58042  21746087.398    21746082.505
  22637768.355   -14160512.20843 -11008858.63542  22637770.207    22637764.195
  22650428.443   -11190237.23943  -8716105.23642  22650430.384    22650426.114
  22383472.660   -15813420.14443 -12312203.69842  22383474.423    22383469.773
  23743771.317    -8228891.05143  -6405180.71142  23743773.682    23743770.153
  20482467.038   -20427785.24444 -15908407.25442  20482469.009    20482463.584
  20911932.583   -22960048.94944 -17864237.13942  20911935.253    20911928.517
  24438011.928    -4353004.18843  -3368345.32542  24438014.049    24438012.028
 03  6  6  3 47 30.0000000  0  8G 2G16G27G20G 3G 1G13G31
  21754757.603   -18800119.62144 -14513696.85142  21754759.252    21754754.306
  22652558.857   -14082786.90343 -10948293.47042  22652560.797    22652554.829
  22640199.680   -11243989.66143  -8757990.19642  22640201.664    22640197.263
  22402187.068   -15715075.27843 -12235571.38942  22402188.858    22402184.279
  23731308.307    -8294383.94543  -6456214.10042  23731310.522    23731306.826
  20483465.507   -20422538.32944 -15904318.74642  20483467.474    20483462.029
  20902723.697   -23008441.76344 -17901945.81442  20902726.368    20902719.649
  24420832.024    -4443284.91343  -3438693.80942  24420834.206    24420832.278
 03  6  6  3 48  0.0000000  0  8G 2G16G27G20G 3G 1G13G31
  21763502.122   -18754167.04144 -14477889.64242  21763503.782    21763498.789
  22667418.480   -14004699.49643 -10887446.15942  22667420.322    22667414.339
  22629999.140   -11297593.44443  -8799759.33042  22630001.150    22629996.700
  22420953.129   -15616459.42943 -12158727.92042  22420954.893    22420950.268
  23718892.019    -8359632.17443  -6507056.80642  23718894.139    23718890.323
  20484527.150   -20416959.17244 -15899971.34642  20484529.121    20484523.706
  20893563.258   -23056580.17644 -17939456.25242  20893565.914    20893559.158
  24403647.858    -4533587.41743  -3509059.23342  24403650.069    24403648.061
 03  6  6  3 48 30.0000000  0  8G 2G16G27G20G 3G 1G13G31
  21772318.998   -18707834.00944 -14441785.97942  21772320.682    21772315.658
  22682346.522   -13926252.01643 -10826318.25742  22682348.385    22682342.422
  22619826.876   -11351048.29543  -8841412.39442  22619828.939    22619824.564
  22439770.291   -15517574.83843 -12081675.04442  22439772.019    22439767.427
  23706522.769    -8424632.54443  -6557706.37542  23706524.840    23706521.145
  20485652.273   -20411046.39044 -15895363.97842  20485654.237    20485648.858
  20884451.557   -23104462.41944 -17976767.08542  20884454.208    20884447.438
  24386460.150    -4623908.35243  -3579439.12042  24386462.506    24386460.379
 03  6  6  3 49  0.0000000  0  8G 2G16G27G20G 3G 1G13G31
  21781207.235   -18661125.78643 -14405389.95542  21781208.952    21781203.920
  22697341.868   -13847450.97543 -10764914.86442  22697343.749    22697337.775
  22609682.330   -11404358.50343  -8882952.76542  22609684.314    22609679.907
  22458637.303   -15418428.13943 -12004417.93242  22458639.024    22458634.507
  23694200.768    -8489385.73443  -6608163.32442  23694202.839    23694199.231
  20486840.377   -20404802.82044 -15890498.85542  20486842.310    20486836.982
  20875388.250   -23152090.29444 -18013879.69642  20875390.907    20875384.134
  24369268.922    -4714248.53343  -3649833.92642  24369271.132    24369269.144
 03  6  6  3 49 30.0000000  0  9G 2G16G 8G27G20G 3G 1G13G31
  21790166.243   -18614045.79343 -14368704.24342  21790167.938    21790162.930
  22712403.826   -13768300.36943 -10703239.07942  22712405.635    22712399.613
  24402497.262    -1450213.78053  -1102817.97452  24402498.030    24402495.917
  22599564.937   -11457525.80243  -8924381.78042  22599566.927    22599562.461
  22477553.295   -15319023.97243 -11926960.18442  22477555.087    22477550.545
  23681925.869    -8553890.40043  -6658426.62142  23681927.833    23681924.296
  20488091.314   -20398229.01744 -15885376.40642  20488093.241    20488087.952
  20866373.334   -23199463.85144 -18050794.13542  20866376.000    20866369.258
  24352074.390    -4804606.53443  -3720242.61942  24352076.532    24352074.525
 03  6  6  3 50  0.0000000  0  9G 2G16G 8G27G20G 3G 1G13G31
  21799197.157   -18566588.00144 -14331724.14242  21799198.856    21799193.843
  22727533.194   -13688794.93343 -10641286.79842  22727535.049    22727528.968
  24386758.916    -1532918.26943  -1167262.95042  24386759.619    24386757.675
  22589476.088   -11510542.87943  -8965693.74542  22589478.120    22589473.607
  22496519.287   -15219357.51043 -11849298.05742  22496521.030    22496516.505
  23669700.538    -8618135.75243  -6708487.88142  23669702.472    23669698.821
  20489406.770   -20391316.24744 -15879989.82742  20489408.734    20489403.414
  20857408.603   -23246573.87544 -18087503.22242  20857411.239    20857404.506
  24334878.303    -4894971.67843  -3790656.91042  24334880.444    24334878.460
 03  6  6  3 50 30.0000000  0  9G 2G16G 8G27G20G 3G 1G13G31
  21808298.874   -18518758.01943 -14294454.01742  21808300.587    21808295.598
  22742728.986   -13608940.79043 -10579062.81042  22742730.836    22742724.697
  24371041.875    -1615511.80043  -1231621.45042  24371042.512    24371040.552
  22579415.119   -11563413.58443  -9006891.65142  22579417.128    22579412.610
  22515533.982   -15119434.97143 -11771436.39142  22515535.686    22515531.192
  23657524.285    -8682122.50643  -6758347.60442  23657526.278    23657522.587
  20490786.222   -20384067.08144 -15874341.11842  20490788.196    20490782.872
  20848493.636   -23293422.07544 -18124008.29242  20848496.291    20848489.570
  24317680.839    -4985344.51743  -3861077.15142  24317682.909    24317681.097
 03  6  6  3 51  0.0000000  0  9G 2G16G 8G27G20G 3G 1G13G31
  21817471.507   -18470555.70843 -14256893.77042  21817473.207    21817468.203
  22757990.941   -13528738.77643 -10516567.73442  22757992.808    22757986.587
  24355346.228    -1697992.57143  -1295892.06042  24355346.977    24355344.848
  22569382.219   -11616136.24243  -9047974.19142  22569384.269    22569379.794
  22534597.068   -15019257.58043 -11693376.13642  22534598.823    22534594.406
  23645397.834    -8745845.92943  -6808002.12842  23645399.789    23645396.477
  20492230.248   -20376478.68044 -15868428.07542  20492232.204    20492226.913
  20839629.198   -23340004.88244 -18160306.56242  20839631.845    20839625.135
  24300482.691    -5075720.15343  -3931499.61342  24300484.734    24300482.971
 03  6  6  3 51 30.0000000  0  9G 2G16G 8G27G20G 3G 1G13G31
  21826714.256   -18421984.64143 -14219046.18042  21826715.980    21826710.986
  22773318.260   -13448193.05743 -10453804.85342  22773320.097    22773313.989
  24339671.865    -1780361.67343  -1360075.73442  24339672.551    24339670.403
  22559377.267   -11668712.98843  -9088943.03542  22559379.241    22559374.688
  22553707.816   -14918829.80043 -11615120.77742  22553709.594    22553705.255
  23633322.200    -8809304.70143  -6857450.46442  23633324.039    23633320.745
  20493738.714   -20368551.64044 -15862251.15742  20493740.671    20493735.399
  20830815.257   -23386322.31344 -18196398.04842  20830817.899    20830811.185
  24283284.501    -5166097.21443  -4001923.14242  24283286.538    24283284.764
 03  6  6  3 52  0.0000000  0  9G 2G16G 8G27G20G 3G 1G13G31
  21836026.869   -18373046.52943 -14180912.58642  21836028.582    21836023.576
  22788710.393   -13367306.44143 -10390776.33942  22788712.252    22788706.257
  24324018.826    -1862619.38343  -1424172.56542  24324019.345    24324017.169
  22549399.817   -11721144.27243  -9129798.51442  22549401.819    22549397.326
  22572865.707   -14818154.65443 -11536672.64642  22572867.487    22572863.189
  23621297.147    -8872496.13943  -6906690.47242  23621299.113    23621295.582
  20495311.762   -20360285.18944 -15855809.75942  20495313.717    20495308.430
  20822052.081   -23432372.86144 -18232281.56642  20822054.708    20822048.000
  24266086.432    -5256472.92843  -4072345.67042  24266088.503    24266086.415
 03  6  6  3 52 30.0000000  0  9G 2G16G 8G27G20G 3G 1G13G31
  21845409.296   -18323741.35643 -14142492.96642  21845411.037    21845406.021
  22804167.429   -13286079.37643 -10327482.54642  22804169.247    22804163.368
  24308387.286    -1944763.33843  -1488180.78042  24308387.920    24308385.727
  22539450.468   -11773428.41543  -9170539.36742  22539452.461    22539447.891
  22592070.507   -14717233.05443 -11458032.49642  22592072.267    22592068.027
  23609324.112    -8935415.26643  -6955718.32442  23609326.076    23609322.300
  20496949.938   -20351676.50444 -15849101.69042  20496951.906    20496946.578
  20813340.404   -23478152.87344 -18267954.28342  20813343.018    20813336.329
  24248889.753    -5346842.37843  -4142763.28542  24248891.795    24248889.719
 03  6  6  3 53  0.0000000  0  9G 2G16G 8G27G20G 3G 1G13G31
  21854860.731   -18274073.76943 -14103790.94642  21854862.486    21854857.439
  22819688.216   -13204517.61143 -10263927.94542  22819690.005    22819684.132
  24292776.814    -2026796.20443  -1552102.37142  24292777.474    24292775.296
  22529528.457   -11825568.83243  -9211168.21942  22529530.460    22529525.834
  22611321.036   -14616070.95343 -11379204.92442  22611322.796    22611318.617
  23597402.563    -8998062.16443  -7004534.01342  23597404.645    23597400.922
  20498652.896   -20342727.47244 -15842128.41142  20498654.867    20498649.522
  20804679.992   -23523663.70544 -18303417.25242  20804682.591    20804675.886
  24231694.283    -5437205.44843  -4213175.94642  24231696.365    24231694.283
 03  6  6  3 53 30.0000000  0  9G 2G16G 8G27G20G 3G 1G13G31
  21864381.377   -18224042.55943 -14064805.58342  21864383.112    21864378.037
  22835272.685   -13122620.57543 -10200112.09842  22835274.493    22835268.635
  24277188.196    -2108714.93443  -1615935.05142  24277188.834    24277186.473
  22519634.259   -11877562.77143  -9251682.92342  22519636.304    22519631.678
  22630617.316   -14514668.27743 -11300189.90242  22630619.098    22630614.955
  23585534.022    -9060431.07043  -7053133.07142  23585536.229    23585532.570
  20500421.339   -20333434.22344 -15834886.91342  20500423.300    20500417.977
  20796071.684   -23568900.63644 -18338666.79042  20796074.296    20796067.562
  24214500.967    -5527556.24743  -4283579.02642  24214503.052    24214500.992
 03  6  6  3 54  0.0000000  0  9G 2G16G 8G27G20G 3G 1G13G31
  21873970.803   -18173649.43143 -14025538.20642  21873972.584    21873967.497
  22850920.573   -13040390.66943 -10136036.86042  22850922.394    22850916.480
  24261621.324    -2190519.16243  -1679678.48842  24261622.022    24261619.654
  22509767.966   -11929410.34543  -9292083.59242  22509769.983    22509765.329
  22649958.924   -14413027.63043 -11220989.45742  22649960.684    22649956.576
  23573719.329    -9122518.76643  -7101513.03942  23573721.367    23573717.618
  20502255.532   -20323795.37344 -15827376.11742  20502257.488    20502252.184
  20787515.867   -23613861.66044 -18373701.33542  20787518.508    20787511.780
  24197310.750    -5617891.28543  -4353969.87442  24197312.907    24197310.329
 03  6  6  3 54 30.0000000  0  9G 2G16G 8G27G20G 3G 1G13G31
  21883628.197   -18122899.34243 -13985992.67642  21883629.963    21883624.899
  22866630.652   -12957833.66743 -10071706.75842  22866632.535    22866626.585
  24246075.509    -2272211.69543  -1743334.90142  24246076.327    24246074.113
  22499928.826   -11981114.95343  -9332372.85142  22499930.837    22499926.223
  22669344.639   -14311155.04943 -11141608.27342  22669346.449    22669342.330
  23561957.813    -9184325.49343  -7149674.05942  23561959.888    23561956.014
  20504155.037   -20313813.42544 -15819597.97142  20504157.008    20504151.678
  20779012.246   -23658548.49044 -18408522.22042  20779014.905    20779008.147
  24180123.356    -5708210.77143  -4424348.55442  24180125.659    24180122.984
 03  6  6  3 55  0.0000000  0  9G 2G16G 8G27G20G 3G 1G13G31
  21893353.479   -18071792.77043 -13946169.37142  21893355.193    21893350.178
  22882402.698   -12874950.78043 -10007122.69842  22882404.648    22882398.559
  24230551.270    -2353791.25543  -1806903.28842  24230552.169    24230549.811
  22490117.135   -12032675.86343  -9372550.14142  22490119.102    22490114.482
  22688774.207   -14209052.33643 -11062047.77442  22688775.977    22688771.815
  23550250.351    -9245847.15943  -7197612.93042  23550252.548    23550248.639
  20506120.224   -20303486.20044 -15811550.77642  20506122.211    20506116.873
  20770561.361   -23702958.07244 -18443127.06842  20770564.025    20770557.267
  24162939.686    -5798510.55343  -4494711.88842  24162941.896    24162939.363
 03  6  6  3 55 30.0000000  0  9G 2G16G 8G27G20G 3G 1G13G31
  21903145.529   -18020335.15143 -13906072.52442  21903147.197    21903142.229
  22898235.677   -12791748.26843  -9942289.59942  22898237.554    22898231.425
  24215048.142    -2435261.02743  -1870386.08742  24215049.013    24215046.494
  22480332.018   -12084096.83243  -9412618.38842  22480333.957    22480329.352
  22708246.363   -14106725.77843 -10982312.85242  22708248.082    22708243.908
  23538597.353    -9307084.54543  -7245330.34142  23538599.562    23538595.354
  20508150.611   -20292816.23144 -15803236.51242  20508152.615    20508147.303
  20762162.921   -23747092.12244 -18477517.20942  20762165.593    20762158.813
  24145759.883    -5888790.89943  -4565060.10542  24145762.043    24145759.477
 03  6  6  3 56  0.0000000  0  9G 2G16G 8G27G20G 3G 1G13G31
  21913005.259   -17968522.11343 -13865698.72342  21913006.876    21913001.914
  22914130.187   -12708222.37243  -9877204.50242  22914132.052    22914125.870
  24199567.062    -2516614.72243  -1933778.51642  24199567.752    24199565.323
  22470574.602   -12135371.94543  -9452572.98842  22470576.581    22470571.970
  22727761.754   -14004172.09343 -10902400.93542  22727763.463    22727759.260
  23527000.260    -9368028.27343  -7292818.87842  23527002.473    23526998.120
  20510247.633   -20281796.37044 -15794649.60342  20510249.625    20510244.313
  20753818.473   -23790942.55644 -18511686.36142  20753821.131    20753814.331
  24128585.417    -5979042.49443  -4635385.90642  24128587.646    24128584.750
 03  6  6  3 56 30.0000000  0  9G 2G16G 8G27G20G 3G 1G13G31
  21922931.574   -17916358.83543 -13825052.01042  21922933.207    21922928.295
  22930085.072   -12624379.10943  -9811872.11042  22930086.936    22930080.756
  24184107.271    -2597855.15143  -1997082.62842  24184108.110    24184105.668
  22460844.396   -12186504.72543  -9492416.66042  22460846.356    22460841.715
  22747319.135   -13901397.40143 -10822316.81742  22747320.905    22747316.721
  23515458.651    -9428678.94443  -7340079.07742  23515460.885    23515456.560
  20512410.760   -20270429.14144 -15785792.01742  20512412.764    20512407.405
  20745527.536   -23834511.47544 -18545636.15042  20745530.201    20745523.406
  24111416.422    -6069265.69443  -4705689.58942  24111418.789    24111415.628
 03  6  6  3 57  0.0000000  0  9G 2G16G 8G27G20G 3G 1G13G31
  21932924.641   -17863844.95043 -13784132.09942  21932926.257    21932921.327
  22946100.238   -12540219.06343  -9746292.88142  22946102.078    22946095.940
  24168669.673    -2678980.33943  -2060296.94342  24168670.393    24168667.972
  22451141.410   -12237493.50843  -9532148.13942  22451143.401    22451138.792
  22766918.425   -13798402.77943 -10742061.31642  22766920.134    22766915.967
  23503973.798    -9489031.57143  -7387107.05442  23503976.007    23503971.637
  20514640.544   -20258711.55844 -15776661.42942  20514642.574    20514637.171
  20737290.959   -23877794.68944 -18579363.31042  20737293.647    20737286.868
  24094253.971    -6159455.32743  -4775967.08542  24094256.262    24094253.258
 03  6  6  3 57 30.0000000  0  9G 2G16G 8G27G20G 3G 1G13G31
  21942983.180   -17810986.73843 -13742943.88142  21942984.817    21942979.941
  22962174.416   -12455748.89543  -9680471.98042  22962176.227    22962170.063
  24153253.167    -2759994.39943  -2123424.68142  24153253.892    24153251.403
  22441465.100   -12288343.05343  -9571771.12442  22441467.031    22441462.409
  22786558.218   -13695195.33743 -10661639.99042  22786559.884    22786555.761
  23492545.460    -9549087.63343  -7433903.93342  23492547.610    23492543.329
  20516936.344   -20246646.98244 -15767260.45842  20516938.359    20516932.998
  20729108.255   -23920794.95644 -18612869.98642  20729110.918    20729104.151
  24077097.355    -6249612.56743  -4846219.34042  24077099.644    24077096.792
 03  6  6  3 58  0.0000000  0  9G 2G16G 8G27G20G 3G 1G13G31
  21953107.538   -17757782.86343 -13701486.31842  21953109.170    21953104.371
  22978307.672   -12370967.92843  -9614408.90242  22978309.552    22978303.392
  24137858.229    -2840893.68743  -2186462.94742  24137859.069    24137856.637
  22431815.773   -12339050.25543  -9611283.20542  22431817.738    22431813.115
  22806238.606   -13591774.42943 -10581052.32042  22806240.297    22806236.159
  23481174.876    -9608840.57743  -7480464.62842  23481176.850    23481172.750
  20519299.033   -20234231.05944 -15757585.70742  20519301.014    20519295.663
  20720980.417   -23963507.01544 -18646152.09242  20720983.066    20720976.280
  24059948.384    -6339730.90743  -4916441.28942  24059950.837    24059947.654
 03  6  6  3 58 30.0000000  0  9G 2G16G 8G27G20G 3G 1G13G31
  21963297.540   -17704234.05743 -13659759.97642  21963299.165    21963294.368
  22994499.893   -12285877.61943  -9548104.79542  22994501.724    22994495.674
  24122485.701    -2921676.76443  -2249410.68742  24122486.448    24122484.056
  22422193.762   -12389614.32543  -9650683.74742  22422195.709    22422191.086
  22825959.217   -13488142.11043 -10500299.92542  22825960.921    22825956.745
  23469862.460    -9668286.65543  -7526786.16242  23469864.414    23469860.526
  20521728.903   -20221461.94644 -15747635.74542  20521730.893    20521725.522
  20712907.929   -24005928.38744 -18679207.69142  20712910.563    20712903.746
  24042807.458    -6429806.11043  -4986629.64042  24042809.882    24042806.581
 03  6  6  3 59  0.0000000  0  9G 2G16G 8G27G20G 3G 1G13G31
  21973552.917   -17650341.87743 -13617766.06942  21973554.506    21973549.661
  23010750.235   -12200480.47143  -9481561.59542  23010752.172    23010746.321
  24107135.281    -3002343.61843  -2312267.85942  24107136.028    24107133.588
  22412598.940   -12440035.32643  -9689972.81242  22412600.902    22412596.247
  22845719.603   -13384301.21743 -10419385.00142  22845721.253    22845716.976
  23458609.187    -9727422.89643  -7572866.31042  23458611.086    23458607.181
  20524226.243   -20208338.46844 -15737409.65342  20524228.199    20524222.806
  20704891.121   -24048056.97844 -18712035.14742  20704893.752    20704886.934
  24025675.245    -6519835.08943  -5056781.94042  24025677.616    24025674.420
 03  6  6  3 59 30.0000000  0  9G 2G16G 8G27G20G 3G 1G13G31
  21983872.458   -17596112.51743 -13575509.42042  21983874.059    21983869.138
  23027057.873   -12114783.14743  -9414784.49542  23027059.721    23027054.049
  24091806.238    -3082898.12243  -2375037.50942  24091806.958    24091804.463
  22403030.422   -12490317.85343  -9729153.95642  22403032.408    22403027.765
  22865518.251   -13280258.65943 -10338312.93142  22865519.991    22865515.608
  23447414.621    -9786250.77843  -7618706.19342  23447416.433    23447412.502
  20526790.309   -20194864.04044 -15726910.09442  20526792.255    20526786.914
  20696929.531   -24089895.26544 -18744636.39442  20696932.163    20696925.352
  24008552.109    -6609818.74343  -5126898.95942  24008554.574    24008551.046
 03  6  6  4  0  0.0000000  0  9G 2G16G 8G27G20G 3G 1G13G31
  21994256.601   -17541543.08043 -13532987.78542  21994258.267    21994253.317
  23043423.074   -12028783.61043  -9347771.89542  23043424.945    23043419.254
  24076499.557    -3163335.48443  -2437715.86842  24076500.346    24076497.575
  22393489.154   -12540457.51543  -9768223.79842  22393491.110    22393486.425
  22885355.644   -13176012.54443 -10257082.26342  22885357.426    22885352.947
  23436280.239    -9844762.55043  -7664299.72442  23436282.093    23436277.980
  20529422.315   -20181032.91244 -15716132.58842  20529424.226    20529418.903
  20689024.434   -24131436.64144 -18777006.27842  20689027.090    20689020.310
  23991438.810    -6699749.30243  -5196974.60542  23991441.184    23991437.820
 03  6  6  4  0 30.0000000  0  9G 2G16G 8G27G20G 3G 1G13G31
  22004704.605   -17486638.56143 -13490205.04942  22004706.229    22004701.303
  23059844.656   -11942487.47243  -9280528.17842  23059846.534    23059840.891
  24061214.341    -3243658.53743  -2500305.16642  24061215.238    24061212.461
  22383974.355   -12590457.70943  -9807184.95742  22383976.338    22383971.689
  22905230.620   -13071568.97343 -10175697.71542  22905232.380    22905227.882
  23425205.776    -9902958.56743  -7709647.20042  23425207.787    23425203.600
  20532121.710   -20166847.35244 -15705078.90142  20532123.640    20532118.308
  20681175.546   -24172682.78544 -18809146.09942  20681178.201    20681171.414
  23974335.531    -6789626.68543  -5267008.76742  23974337.932    23974334.893
